<?xml version="1.0" encoding="UTF-8" standalone="no" ?>
<gpx xmlns="http://www.topografix.com/GPX/1/1" xmlns:xsi="http://www.w3.org/2001/XMLSchema-instance" xsi:schemaLocation="http://www.topografix.com/GPX/1/1 http://www.topografix.com/GPX/1/1/gpx.xsd" version="1.1" creator="VisuGPX - https://www.visugpx.com">
  <metadata>
    <name>Bois Barbu 2em : 18 févr. 2021 10:59:35</name>
  </metadata>
  <trk>
    <name><![CDATA[Bois Barbu 2em : 18 févr. 2021 10:59:35]]></name>
    <trkseg>
      <trkpt lat="45.05929" lon="5.52281">
        <ele>1143.14591888</ele>
        <time>2021-02-18T09:59:35Z</time>
      </trkpt>
      <trkpt lat="45.05937" lon="5.52278">
        <ele>1138.1463448</ele>
        <time>2021-02-18T10:01:13Z</time>
      </trkpt>
      <trkpt lat="45.05931" lon="5.52288">
        <ele>1139.14572364</ele>
        <time>2021-02-18T10:02:00Z</time>
      </trkpt>
      <trkpt lat="45.05923" lon="5.52287">
        <ele>1139.14543088</ele>
        <time>2021-02-18T10:02:24Z</time>
      </trkpt>
      <trkpt lat="45.05915" lon="5.52281">
        <ele>1140.14535284</ele>
        <time>2021-02-18T10:02:59Z</time>
      </trkpt>
      <trkpt lat="45.05907" lon="5.52281">
        <ele>1141.14507108</ele>
        <time>2021-02-18T10:03:44Z</time>
      </trkpt>
      <trkpt lat="45.05898" lon="5.52279">
        <ele>1140.14479532</ele>
        <time>2021-02-18T10:03:48Z</time>
      </trkpt>
      <trkpt lat="45.05888" lon="5.52274">
        <ele>1139.14458488</ele>
        <time>2021-02-18T10:03:53Z</time>
      </trkpt>
      <trkpt lat="45.05881" lon="5.52268">
        <ele>1138.14448784</ele>
        <time>2021-02-18T10:03:57Z</time>
      </trkpt>
      <trkpt lat="45.05869" lon="5.52264">
        <ele>1138.14418472</ele>
        <time>2021-02-18T10:04:02Z</time>
      </trkpt>
      <trkpt lat="45.05859" lon="5.52259">
        <ele>1138.14400104</ele>
        <time>2021-02-18T10:04:07Z</time>
      </trkpt>
      <trkpt lat="45.05851" lon="5.52253">
        <ele>1137.14390996</ele>
        <time>2021-02-18T10:04:11Z</time>
      </trkpt>
      <trkpt lat="45.05841" lon="5.5225">
        <ele>1135.1436454</ele>
        <time>2021-02-18T10:04:16Z</time>
      </trkpt>
      <trkpt lat="45.05835" lon="5.52244">
        <ele>1133.14364184</ele>
        <time>2021-02-18T10:04:23Z</time>
      </trkpt>
      <trkpt lat="45.05826" lon="5.52241">
        <ele>1135.14339888</ele>
        <time>2021-02-18T10:04:28Z</time>
      </trkpt>
      <trkpt lat="45.05818" lon="5.52235">
        <ele>1136.14334648</ele>
        <time>2021-02-18T10:04:33Z</time>
      </trkpt>
      <trkpt lat="45.0581" lon="5.5223">
        <ele>1140.14322168</ele>
        <time>2021-02-18T10:04:41Z</time>
      </trkpt>
      <trkpt lat="45.05802" lon="5.52229">
        <ele>1141.14291932</ele>
        <time>2021-02-18T10:04:45Z</time>
      </trkpt>
      <trkpt lat="45.05794" lon="5.52227">
        <ele>1143.14264488</ele>
        <time>2021-02-18T10:04:49Z</time>
      </trkpt>
      <trkpt lat="45.05781" lon="5.52227">
        <ele>1138.1421594</ele>
        <time>2021-02-18T10:04:54Z</time>
      </trkpt>
      <trkpt lat="45.05772" lon="5.52226">
        <ele>1134.141856</ele>
        <time>2021-02-18T10:04:59Z</time>
      </trkpt>
      <trkpt lat="45.05764" lon="5.52225">
        <ele>1133.14155908</ele>
        <time>2021-02-18T10:05:03Z</time>
      </trkpt>
      <trkpt lat="45.05755" lon="5.52227">
        <ele>1132.14114896</ele>
        <time>2021-02-18T10:05:07Z</time>
      </trkpt>
      <trkpt lat="45.05749" lon="5.5222">
        <ele>1132.14118976</ele>
        <time>2021-02-18T10:05:17Z</time>
      </trkpt>
      <trkpt lat="45.05737" lon="5.52214">
        <ele>1134.14093996</ele>
        <time>2021-02-18T10:05:22Z</time>
      </trkpt>
      <trkpt lat="45.05727" lon="5.52209">
        <ele>1135.140703</ele>
        <time>2021-02-18T10:05:27Z</time>
      </trkpt>
      <trkpt lat="45.0572" lon="5.52201">
        <ele>1135.14076368</ele>
        <time>2021-02-18T10:05:32Z</time>
      </trkpt>
      <trkpt lat="45.05709" lon="5.52194">
        <ele>1135.1406088</ele>
        <time>2021-02-18T10:05:37Z</time>
      </trkpt>
      <trkpt lat="45.05701" lon="5.52191">
        <ele>1134.14041144</ele>
        <time>2021-02-18T10:05:42Z</time>
      </trkpt>
      <trkpt lat="45.05694" lon="5.52188">
        <ele>1134.1402582</ele>
        <time>2021-02-18T10:05:46Z</time>
      </trkpt>
      <trkpt lat="45.05687" lon="5.52184">
        <ele>1133.14012392</ele>
        <time>2021-02-18T10:05:51Z</time>
      </trkpt>
      <trkpt lat="45.0568" lon="5.52178">
        <ele>1134.14009592</ele>
        <time>2021-02-18T10:05:56Z</time>
      </trkpt>
      <trkpt lat="45.05671" lon="5.52176">
        <ele>1135.13982076</ele>
        <time>2021-02-18T10:06:01Z</time>
      </trkpt>
      <trkpt lat="45.05663" lon="5.52171">
        <ele>1138.13969264</ele>
        <time>2021-02-18T10:06:06Z</time>
      </trkpt>
      <trkpt lat="45.05656" lon="5.52164">
        <ele>1139.13968356</ele>
        <time>2021-02-18T10:06:11Z</time>
      </trkpt>
      <trkpt lat="45.05646" lon="5.52153">
        <ele>1139.13972448</ele>
        <time>2021-02-18T10:06:16Z</time>
      </trkpt>
      <trkpt lat="45.0564" lon="5.52144">
        <ele>1138.13982776</ele>
        <time>2021-02-18T10:06:20Z</time>
      </trkpt>
      <trkpt lat="45.05634" lon="5.52135">
        <ele>1139.13994364</ele>
        <time>2021-02-18T10:06:25Z</time>
      </trkpt>
      <trkpt lat="45.05629" lon="5.52125">
        <ele>1138.14014616</ele>
        <time>2021-02-18T10:06:29Z</time>
      </trkpt>
      <trkpt lat="45.05624" lon="5.52115">
        <ele>1140.14038492</ele>
        <time>2021-02-18T10:06:34Z</time>
      </trkpt>
      <trkpt lat="45.0562" lon="5.52105">
        <ele>1139.14058256</ele>
        <time>2021-02-18T10:06:39Z</time>
      </trkpt>
      <trkpt lat="45.05616" lon="5.52096">
        <ele>1141.14079612</ele>
        <time>2021-02-18T10:06:44Z</time>
      </trkpt>
      <trkpt lat="45.05612" lon="5.52085">
        <ele>1139.14109504</ele>
        <time>2021-02-18T10:06:50Z</time>
      </trkpt>
      <trkpt lat="45.05607" lon="5.52075">
        <ele>1137.14128112</ele>
        <time>2021-02-18T10:06:57Z</time>
      </trkpt>
      <trkpt lat="45.05603" lon="5.52065">
        <ele>1138.14151788</ele>
        <time>2021-02-18T10:07:04Z</time>
      </trkpt>
      <trkpt lat="45.05598" lon="5.52056">
        <ele>1138.14170024</ele>
        <time>2021-02-18T10:07:10Z</time>
      </trkpt>
      <trkpt lat="45.05596" lon="5.52045">
        <ele>1141.14201196</ele>
        <time>2021-02-18T10:07:16Z</time>
      </trkpt>
      <trkpt lat="45.05592" lon="5.52036">
        <ele>1141.14225072</ele>
        <time>2021-02-18T10:07:22Z</time>
      </trkpt>
      <trkpt lat="45.05585" lon="5.52029">
        <ele>1140.14226108</ele>
        <time>2021-02-18T10:07:28Z</time>
      </trkpt>
      <trkpt lat="45.05582" lon="5.52015">
        <ele>1141.14269216</ele>
        <time>2021-02-18T10:07:32Z</time>
      </trkpt>
      <trkpt lat="45.05585" lon="5.51999">
        <ele>1141.14341836</ele>
        <time>2021-02-18T10:07:36Z</time>
      </trkpt>
      <trkpt lat="45.05584" lon="5.51984">
        <ele>1142.14398652</ele>
        <time>2021-02-18T10:07:41Z</time>
      </trkpt>
      <trkpt lat="45.05584" lon="5.51971">
        <ele>1142.1445456</ele>
        <time>2021-02-18T10:07:45Z</time>
      </trkpt>
      <trkpt lat="45.05581" lon="5.51957">
        <ele>1144.14498292</ele>
        <time>2021-02-18T10:07:50Z</time>
      </trkpt>
      <trkpt lat="45.05576" lon="5.51944">
        <ele>1142.14530704</ele>
        <time>2021-02-18T10:07:54Z</time>
      </trkpt>
      <trkpt lat="45.05575" lon="5.51925">
        <ele>1142.1459986</ele>
        <time>2021-02-18T10:07:59Z</time>
      </trkpt>
      <trkpt lat="45.05574" lon="5.51914">
        <ele>1144.14641984</ele>
        <time>2021-02-18T10:08:03Z</time>
      </trkpt>
      <trkpt lat="45.05572" lon="5.51902">
        <ele>1147.14680368</ele>
        <time>2021-02-18T10:08:09Z</time>
      </trkpt>
      <trkpt lat="45.05569" lon="5.51891">
        <ele>1146.1471274</ele>
        <time>2021-02-18T10:08:13Z</time>
      </trkpt>
      <trkpt lat="45.05565" lon="5.51881">
        <ele>1146.14733676</ele>
        <time>2021-02-18T10:08:18Z</time>
      </trkpt>
      <trkpt lat="45.05558" lon="5.51876">
        <ele>1148.1473026</ele>
        <time>2021-02-18T10:08:22Z</time>
      </trkpt>
      <trkpt lat="45.05556" lon="5.51866">
        <ele>1149.14759988</ele>
        <time>2021-02-18T10:08:29Z</time>
      </trkpt>
      <trkpt lat="45.05555" lon="5.51853">
        <ele>1148.14811208</ele>
        <time>2021-02-18T10:08:33Z</time>
      </trkpt>
      <trkpt lat="45.0556" lon="5.51838">
        <ele>1147.148918</ele>
        <time>2021-02-18T10:08:37Z</time>
      </trkpt>
      <trkpt lat="45.05565" lon="5.51827">
        <ele>1145.1495192</ele>
        <time>2021-02-18T10:08:41Z</time>
      </trkpt>
      <trkpt lat="45.05565" lon="5.51815">
        <ele>1145.15000384</ele>
        <time>2021-02-18T10:08:46Z</time>
      </trkpt>
      <trkpt lat="45.0557" lon="5.51807">
        <ele>1145.15052964</ele>
        <time>2021-02-18T10:08:50Z</time>
      </trkpt>
      <trkpt lat="45.05573" lon="5.51796">
        <ele>1141.15107492</ele>
        <time>2021-02-18T10:08:54Z</time>
      </trkpt>
      <trkpt lat="45.05576" lon="5.51784">
        <ele>1142.15166636</ele>
        <time>2021-02-18T10:08:58Z</time>
      </trkpt>
      <trkpt lat="45.05576" lon="5.51773">
        <ele>1140.15212244</ele>
        <time>2021-02-18T10:09:04Z</time>
      </trkpt>
      <trkpt lat="45.05575" lon="5.5176">
        <ele>1141.15258656</ele>
        <time>2021-02-18T10:09:09Z</time>
      </trkpt>
      <trkpt lat="45.0557" lon="5.51752">
        <ele>1140.15271088</ele>
        <time>2021-02-18T10:09:13Z</time>
      </trkpt>
      <trkpt lat="45.05567" lon="5.51741">
        <ele>1142.15304156</ele>
        <time>2021-02-18T10:09:18Z</time>
      </trkpt>
      <trkpt lat="45.05563" lon="5.51731">
        <ele>1141.15326584</ele>
        <time>2021-02-18T10:09:23Z</time>
      </trkpt>
      <trkpt lat="45.05565" lon="5.5172">
        <ele>1142.15380048</ele>
        <time>2021-02-18T10:09:27Z</time>
      </trkpt>
      <trkpt lat="45.05568" lon="5.51709">
        <ele>1142.15433916</ele>
        <time>2021-02-18T10:09:31Z</time>
      </trkpt>
      <trkpt lat="45.05565" lon="5.517">
        <ele>1140.15460872</ele>
        <time>2021-02-18T10:09:35Z</time>
      </trkpt>
      <trkpt lat="45.05564" lon="5.51689">
        <ele>1141.15501308</ele>
        <time>2021-02-18T10:09:40Z</time>
      </trkpt>
      <trkpt lat="45.05558" lon="5.51681">
        <ele>1140.1550882</ele>
        <time>2021-02-18T10:09:44Z</time>
      </trkpt>
      <trkpt lat="45.05552" lon="5.51676">
        <ele>1141.15502908</ele>
        <time>2021-02-18T10:09:48Z</time>
      </trkpt>
      <trkpt lat="45.05547" lon="5.51668">
        <ele>1141.15514068</ele>
        <time>2021-02-18T10:09:53Z</time>
      </trkpt>
      <trkpt lat="45.05536" lon="5.51661">
        <ele>1140.15502768</ele>
        <time>2021-02-18T10:09:58Z</time>
      </trkpt>
      <trkpt lat="45.05532" lon="5.5165">
        <ele>1141.15524452</ele>
        <time>2021-02-18T10:10:05Z</time>
      </trkpt>
      <trkpt lat="45.05528" lon="5.51638">
        <ele>1140.1555986</ele>
        <time>2021-02-18T10:10:10Z</time>
      </trkpt>
      <trkpt lat="45.05529" lon="5.51626">
        <ele>1140.15614384</ele>
        <time>2021-02-18T10:10:15Z</time>
      </trkpt>
      <trkpt lat="45.05531" lon="5.51613">
        <ele>1143.15671588</ele>
        <time>2021-02-18T10:10:20Z</time>
      </trkpt>
      <trkpt lat="45.05529" lon="5.51602">
        <ele>1142.157064</ele>
        <time>2021-02-18T10:10:26Z</time>
      </trkpt>
      <trkpt lat="45.05527" lon="5.51591">
        <ele>1144.15744644</ele>
        <time>2021-02-18T10:10:32Z</time>
      </trkpt>
      <trkpt lat="45.05528" lon="5.51579">
        <ele>1144.15794616</ele>
        <time>2021-02-18T10:10:39Z</time>
      </trkpt>
      <trkpt lat="45.05527" lon="5.51567">
        <ele>1149.15839564</ele>
        <time>2021-02-18T10:10:51Z</time>
      </trkpt>
      <trkpt lat="45.05529" lon="5.51558">
        <ele>1149.15882504</ele>
        <time>2021-02-18T10:10:55Z</time>
      </trkpt>
      <trkpt lat="45.05533" lon="5.51548">
        <ele>1149.15942108</ele>
        <time>2021-02-18T10:10:59Z</time>
      </trkpt>
      <trkpt lat="45.05533" lon="5.51538">
        <ele>1148.15982704</ele>
        <time>2021-02-18T10:11:04Z</time>
      </trkpt>
      <trkpt lat="45.05537" lon="5.51528">
        <ele>1149.16038124</ele>
        <time>2021-02-18T10:11:13Z</time>
      </trkpt>
      <trkpt lat="45.05544" lon="5.51523">
        <ele>1151.160869</ele>
        <time>2021-02-18T10:11:19Z</time>
      </trkpt>
      <trkpt lat="45.05554" lon="5.51519">
        <ele>1152.1613968</ele>
        <time>2021-02-18T10:11:24Z</time>
      </trkpt>
      <trkpt lat="45.05563" lon="5.51518">
        <ele>1155.16178348</ele>
        <time>2021-02-18T10:11:29Z</time>
      </trkpt>
      <trkpt lat="45.05571" lon="5.51514">
        <ele>1157.16227004</ele>
        <time>2021-02-18T10:11:35Z</time>
      </trkpt>
      <trkpt lat="45.05578" lon="5.5151">
        <ele>1155.16273216</ele>
        <time>2021-02-18T10:11:40Z</time>
      </trkpt>
      <trkpt lat="45.05586" lon="5.51506">
        <ele>1155.16319408</ele>
        <time>2021-02-18T10:11:44Z</time>
      </trkpt>
      <trkpt lat="45.05593" lon="5.515">
        <ele>1153.16370956</ele>
        <time>2021-02-18T10:11:48Z</time>
      </trkpt>
      <trkpt lat="45.056" lon="5.51494">
        <ele>1153.16420592</ele>
        <time>2021-02-18T10:11:53Z</time>
      </trkpt>
      <trkpt lat="45.05605" lon="5.51485">
        <ele>1150.16479912</ele>
        <time>2021-02-18T10:12:01Z</time>
      </trkpt>
      <trkpt lat="45.05607" lon="5.51473">
        <ele>1148.16533436</ele>
        <time>2021-02-18T10:12:08Z</time>
      </trkpt>
      <trkpt lat="45.05605" lon="5.51461">
        <ele>1151.16575944</ele>
        <time>2021-02-18T10:12:15Z</time>
      </trkpt>
      <trkpt lat="45.05604" lon="5.51449">
        <ele>1157.16619188</ele>
        <time>2021-02-18T10:12:23Z</time>
      </trkpt>
      <trkpt lat="45.056" lon="5.51441">
        <ele>1158.16635516</ele>
        <time>2021-02-18T10:12:33Z</time>
      </trkpt>
      <trkpt lat="45.056" lon="5.5143">
        <ele>1158.1667688</ele>
        <time>2021-02-18T10:12:38Z</time>
      </trkpt>
      <trkpt lat="45.05598" lon="5.51416">
        <ele>1156.16729816</ele>
        <time>2021-02-18T10:12:43Z</time>
      </trkpt>
      <trkpt lat="45.05599" lon="5.51404">
        <ele>1158.16779928</ele>
        <time>2021-02-18T10:12:49Z</time>
      </trkpt>
      <trkpt lat="45.05594" lon="5.51393">
        <ele>1157.16806616</ele>
        <time>2021-02-18T10:12:53Z</time>
      </trkpt>
      <trkpt lat="45.05599" lon="5.51384">
        <ele>1160.16861184</ele>
        <time>2021-02-18T10:13:00Z</time>
      </trkpt>
      <trkpt lat="45.05604" lon="5.51378">
        <ele>1157.16902128</ele>
        <time>2021-02-18T10:13:04Z</time>
      </trkpt>
      <trkpt lat="45.05615" lon="5.51371">
        <ele>1159.16974964</ele>
        <time>2021-02-18T10:13:09Z</time>
      </trkpt>
      <trkpt lat="45.05622" lon="5.51366">
        <ele>1161.17026768</ele>
        <time>2021-02-18T10:13:13Z</time>
      </trkpt>
      <trkpt lat="45.05631" lon="5.5136">
        <ele>1163.1708444</ele>
        <time>2021-02-18T10:13:17Z</time>
      </trkpt>
      <trkpt lat="45.05636" lon="5.51349">
        <ele>1161.17146264</ele>
        <time>2021-02-18T10:13:26Z</time>
      </trkpt>
      <trkpt lat="45.05639" lon="5.51338">
        <ele>1161.17203652</ele>
        <time>2021-02-18T10:13:35Z</time>
      </trkpt>
      <trkpt lat="45.0564" lon="5.51327">
        <ele>1160.1724982</ele>
        <time>2021-02-18T10:13:43Z</time>
      </trkpt>
      <trkpt lat="45.05639" lon="5.51317">
        <ele>1161.17289272</ele>
        <time>2021-02-18T10:13:49Z</time>
      </trkpt>
      <trkpt lat="45.05635" lon="5.51307">
        <ele>1161.17315196</ele>
        <time>2021-02-18T10:13:54Z</time>
      </trkpt>
      <trkpt lat="45.05633" lon="5.51295">
        <ele>1163.17351928</ele>
        <time>2021-02-18T10:14:00Z</time>
      </trkpt>
      <trkpt lat="45.05632" lon="5.51283">
        <ele>1163.1739782</ele>
        <time>2021-02-18T10:14:07Z</time>
      </trkpt>
      <trkpt lat="45.0563" lon="5.51274">
        <ele>1164.17423496</ele>
        <time>2021-02-18T10:14:12Z</time>
      </trkpt>
      <trkpt lat="45.05626" lon="5.51264">
        <ele>1164.17449048</ele>
        <time>2021-02-18T10:14:19Z</time>
      </trkpt>
      <trkpt lat="45.05621" lon="5.51257">
        <ele>1166.17455828</ele>
        <time>2021-02-18T10:14:24Z</time>
      </trkpt>
      <trkpt lat="45.05616" lon="5.51248">
        <ele>1165.17471708</ele>
        <time>2021-02-18T10:14:36Z</time>
      </trkpt>
      <trkpt lat="45.05611" lon="5.51239">
        <ele>1170.17484384</ele>
        <time>2021-02-18T10:14:41Z</time>
      </trkpt>
      <trkpt lat="45.05606" lon="5.51229">
        <ele>1175.17506516</ele>
        <time>2021-02-18T10:14:48Z</time>
      </trkpt>
      <trkpt lat="45.05598" lon="5.51222">
        <ele>1176.17506984</ele>
        <time>2021-02-18T10:14:54Z</time>
      </trkpt>
      <trkpt lat="45.05593" lon="5.51212">
        <ele>1177.17523064</ele>
        <time>2021-02-18T10:14:59Z</time>
      </trkpt>
      <trkpt lat="45.05588" lon="5.51202">
        <ele>1173.1754652</ele>
        <time>2021-02-18T10:15:04Z</time>
      </trkpt>
      <trkpt lat="45.05585" lon="5.51193">
        <ele>1173.17565392</ele>
        <time>2021-02-18T10:15:09Z</time>
      </trkpt>
      <trkpt lat="45.05581" lon="5.51184">
        <ele>1173.1758778</ele>
        <time>2021-02-18T10:15:14Z</time>
      </trkpt>
      <trkpt lat="45.05579" lon="5.51171">
        <ele>1171.17630708</ele>
        <time>2021-02-18T10:15:20Z</time>
      </trkpt>
      <trkpt lat="45.0558" lon="5.5116">
        <ele>1171.17680432</ele>
        <time>2021-02-18T10:15:26Z</time>
      </trkpt>
      <trkpt lat="45.05585" lon="5.51152">
        <ele>1176.17731616</ele>
        <time>2021-02-18T10:19:11Z</time>
      </trkpt>
      <trkpt lat="45.05589" lon="5.51144">
        <ele>1173.17782872</ele>
        <time>2021-02-18T10:19:15Z</time>
      </trkpt>
      <trkpt lat="45.05597" lon="5.51137">
        <ele>1173.1784182</ele>
        <time>2021-02-18T10:19:20Z</time>
      </trkpt>
      <trkpt lat="45.05606" lon="5.51133">
        <ele>1177.17889332</ele>
        <time>2021-02-18T10:19:24Z</time>
      </trkpt>
      <trkpt lat="45.05614" lon="5.5113">
        <ele>1180.17933884</ele>
        <time>2021-02-18T10:19:28Z</time>
      </trkpt>
      <trkpt lat="45.05622" lon="5.51128">
        <ele>1183.17979324</ele>
        <time>2021-02-18T10:19:33Z</time>
      </trkpt>
      <trkpt lat="45.0563" lon="5.51127">
        <ele>1181.18011964</ele>
        <time>2021-02-18T10:19:37Z</time>
      </trkpt>
      <trkpt lat="45.05639" lon="5.51128">
        <ele>1181.1804494</ele>
        <time>2021-02-18T10:19:42Z</time>
      </trkpt>
      <trkpt lat="45.0565" lon="5.51126">
        <ele>1183.18093868</ele>
        <time>2021-02-18T10:19:47Z</time>
      </trkpt>
      <trkpt lat="45.05658" lon="5.51128">
        <ele>1188.18120064</ele>
        <time>2021-02-18T10:19:52Z</time>
      </trkpt>
      <trkpt lat="45.05666" lon="5.51129">
        <ele>1189.18147092</ele>
        <time>2021-02-18T10:19:57Z</time>
      </trkpt>
      <trkpt lat="45.05676" lon="5.51131">
        <ele>1191.18181064</ele>
        <time>2021-02-18T10:20:02Z</time>
      </trkpt>
      <trkpt lat="45.05685" lon="5.51129">
        <ele>1188.18224068</ele>
        <time>2021-02-18T10:20:06Z</time>
      </trkpt>
      <trkpt lat="45.05694" lon="5.51122">
        <ele>1186.18287676</ele>
        <time>2021-02-18T10:20:11Z</time>
      </trkpt>
      <trkpt lat="45.05702" lon="5.51119">
        <ele>1182.18333124</ele>
        <time>2021-02-18T10:20:15Z</time>
      </trkpt>
      <trkpt lat="45.05708" lon="5.51112">
        <ele>1179.18380868</ele>
        <time>2021-02-18T10:20:19Z</time>
      </trkpt>
      <trkpt lat="45.05714" lon="5.51105">
        <ele>1177.1843798</ele>
        <time>2021-02-18T10:20:25Z</time>
      </trkpt>
      <trkpt lat="45.05718" lon="5.51095">
        <ele>1175.1849086</ele>
        <time>2021-02-18T10:20:30Z</time>
      </trkpt>
      <trkpt lat="45.05722" lon="5.51084">
        <ele>1174.18552392</ele>
        <time>2021-02-18T10:20:36Z</time>
      </trkpt>
      <trkpt lat="45.05726" lon="5.51073">
        <ele>1173.186106</ele>
        <time>2021-02-18T10:20:40Z</time>
      </trkpt>
      <trkpt lat="45.05731" lon="5.51063">
        <ele>1174.18670792</ele>
        <time>2021-02-18T10:20:45Z</time>
      </trkpt>
      <trkpt lat="45.05739" lon="5.51057">
        <ele>1176.18730216</ele>
        <time>2021-02-18T10:20:50Z</time>
      </trkpt>
      <trkpt lat="45.05746" lon="5.5105">
        <ele>1176.1878318</ele>
        <time>2021-02-18T10:20:56Z</time>
      </trkpt>
      <trkpt lat="45.05756" lon="5.51048">
        <ele>1176.1883382</ele>
        <time>2021-02-18T10:21:01Z</time>
      </trkpt>
      <trkpt lat="45.05764" lon="5.51043">
        <ele>1179.18882516</ele>
        <time>2021-02-18T10:21:05Z</time>
      </trkpt>
      <trkpt lat="45.05771" lon="5.51036">
        <ele>1178.18941456</ele>
        <time>2021-02-18T10:21:12Z</time>
      </trkpt>
      <trkpt lat="45.0578" lon="5.51031">
        <ele>1180.18995572</ele>
        <time>2021-02-18T10:21:17Z</time>
      </trkpt>
      <trkpt lat="45.05787" lon="5.51027">
        <ele>1180.19042464</ele>
        <time>2021-02-18T10:21:21Z</time>
      </trkpt>
      <trkpt lat="45.05795" lon="5.51023">
        <ele>1178.19087012</ele>
        <time>2021-02-18T10:21:25Z</time>
      </trkpt>
      <trkpt lat="45.05801" lon="5.51019">
        <ele>1178.19129744</ele>
        <time>2021-02-18T10:21:29Z</time>
      </trkpt>
      <trkpt lat="45.0581" lon="5.51016">
        <ele>1179.19175712</ele>
        <time>2021-02-18T10:21:33Z</time>
      </trkpt>
      <trkpt lat="45.05817" lon="5.51014">
        <ele>1179.19215132</ele>
        <time>2021-02-18T10:21:38Z</time>
      </trkpt>
      <trkpt lat="45.05827" lon="5.51011">
        <ele>1180.19264308</ele>
        <time>2021-02-18T10:21:43Z</time>
      </trkpt>
      <trkpt lat="45.05833" lon="5.51005">
        <ele>1179.19309812</ele>
        <time>2021-02-18T10:21:47Z</time>
      </trkpt>
      <trkpt lat="45.05839" lon="5.50998">
        <ele>1178.19363616</ele>
        <time>2021-02-18T10:21:52Z</time>
      </trkpt>
      <trkpt lat="45.05845" lon="5.50991">
        <ele>1176.1941758</ele>
        <time>2021-02-18T10:21:56Z</time>
      </trkpt>
      <trkpt lat="45.05854" lon="5.50982">
        <ele>1173.1948824</ele>
        <time>2021-02-18T10:22:01Z</time>
      </trkpt>
      <trkpt lat="45.05858" lon="5.50971">
        <ele>1171.19547572</ele>
        <time>2021-02-18T10:22:06Z</time>
      </trkpt>
      <trkpt lat="45.05863" lon="5.50961">
        <ele>1172.19608868</ele>
        <time>2021-02-18T10:22:11Z</time>
      </trkpt>
      <trkpt lat="45.05868" lon="5.50952">
        <ele>1172.19664748</ele>
        <time>2021-02-18T10:22:16Z</time>
      </trkpt>
      <trkpt lat="45.05872" lon="5.50941">
        <ele>1172.19724056</ele>
        <time>2021-02-18T10:22:22Z</time>
      </trkpt>
      <trkpt lat="45.05878" lon="5.50932">
        <ele>1173.19783932</ele>
        <time>2021-02-18T10:22:27Z</time>
      </trkpt>
      <trkpt lat="45.05883" lon="5.50923">
        <ele>1173.19837096</ele>
        <time>2021-02-18T10:22:31Z</time>
      </trkpt>
      <trkpt lat="45.05888" lon="5.50914">
        <ele>1173.19897328</ele>
        <time>2021-02-18T10:22:35Z</time>
      </trkpt>
      <trkpt lat="45.0589" lon="5.50902">
        <ele>1175.19951024</ele>
        <time>2021-02-18T10:22:40Z</time>
      </trkpt>
      <trkpt lat="45.05897" lon="5.50897">
        <ele>1176.19999752</ele>
        <time>2021-02-18T10:22:44Z</time>
      </trkpt>
      <trkpt lat="45.05903" lon="5.50891">
        <ele>1176.20047536</ele>
        <time>2021-02-18T10:22:49Z</time>
      </trkpt>
      <trkpt lat="45.05911" lon="5.50888">
        <ele>1176.20092208</ele>
        <time>2021-02-18T10:22:53Z</time>
      </trkpt>
      <trkpt lat="45.05916" lon="5.50878">
        <ele>1179.20150188</ele>
        <time>2021-02-18T10:22:58Z</time>
      </trkpt>
      <trkpt lat="45.05922" lon="5.5087">
        <ele>1179.202086</ele>
        <time>2021-02-18T10:23:03Z</time>
      </trkpt>
      <trkpt lat="45.05929" lon="5.50865">
        <ele>1181.20257088</ele>
        <time>2021-02-18T10:23:08Z</time>
      </trkpt>
      <trkpt lat="45.05935" lon="5.50856">
        <ele>1178.20315492</ele>
        <time>2021-02-18T10:23:12Z</time>
      </trkpt>
      <trkpt lat="45.05941" lon="5.50849">
        <ele>1179.20365976</ele>
        <time>2021-02-18T10:23:16Z</time>
      </trkpt>
      <trkpt lat="45.05945" lon="5.5084">
        <ele>1178.20418476</ele>
        <time>2021-02-18T10:23:20Z</time>
      </trkpt>
      <trkpt lat="45.05951" lon="5.50833">
        <ele>1175.20469108</ele>
        <time>2021-02-18T10:23:25Z</time>
      </trkpt>
      <trkpt lat="45.05959" lon="5.50826">
        <ele>1176.2053356</ele>
        <time>2021-02-18T10:23:30Z</time>
      </trkpt>
      <trkpt lat="45.05967" lon="5.50817">
        <ele>1176.2059886</ele>
        <time>2021-02-18T10:23:34Z</time>
      </trkpt>
      <trkpt lat="45.05967" lon="5.50807">
        <ele>1179.20642016</ele>
        <time>2021-02-18T10:23:38Z</time>
      </trkpt>
      <trkpt lat="45.05974" lon="5.5079">
        <ele>1175.20736556</ele>
        <time>2021-02-18T10:23:43Z</time>
      </trkpt>
      <trkpt lat="45.05981" lon="5.50786">
        <ele>1176.2078002</ele>
        <time>2021-02-18T10:23:49Z</time>
      </trkpt>
      <trkpt lat="45.05988" lon="5.50779">
        <ele>1177.20834272</ele>
        <time>2021-02-18T10:23:55Z</time>
      </trkpt>
      <trkpt lat="45.05995" lon="5.50774">
        <ele>1181.20884968</ele>
        <time>2021-02-18T10:24:00Z</time>
      </trkpt>
      <trkpt lat="45.06003" lon="5.5077">
        <ele>1182.2093302</ele>
        <time>2021-02-18T10:24:06Z</time>
      </trkpt>
      <trkpt lat="45.06013" lon="5.5076">
        <ele>1181.21012484</ele>
        <time>2021-02-18T10:24:11Z</time>
      </trkpt>
      <trkpt lat="45.06018" lon="5.50753">
        <ele>1179.21061848</ele>
        <time>2021-02-18T10:24:15Z</time>
      </trkpt>
      <trkpt lat="45.06026" lon="5.50745">
        <ele>1177.21125264</ele>
        <time>2021-02-18T10:24:19Z</time>
      </trkpt>
      <trkpt lat="45.06033" lon="5.50741">
        <ele>1179.2116708</ele>
        <time>2021-02-18T10:24:23Z</time>
      </trkpt>
      <trkpt lat="45.06038" lon="5.50733">
        <ele>1177.2122108</ele>
        <time>2021-02-18T10:24:27Z</time>
      </trkpt>
      <trkpt lat="45.06045" lon="5.50728">
        <ele>1179.21270808</ele>
        <time>2021-02-18T10:24:33Z</time>
      </trkpt>
      <trkpt lat="45.06052" lon="5.50721">
        <ele>1178.21322292</ele>
        <time>2021-02-18T10:24:37Z</time>
      </trkpt>
      <trkpt lat="45.06059" lon="5.50717">
        <ele>1176.21368772</ele>
        <time>2021-02-18T10:24:49Z</time>
      </trkpt>
      <trkpt lat="45.06069" lon="5.50707">
        <ele>1175.21447564</ele>
        <time>2021-02-18T10:24:53Z</time>
      </trkpt>
      <trkpt lat="45.06079" lon="5.50699">
        <ele>1173.21522272</ele>
        <time>2021-02-18T10:24:58Z</time>
      </trkpt>
      <trkpt lat="45.06086" lon="5.5069">
        <ele>1174.2158328</ele>
        <time>2021-02-18T10:25:02Z</time>
      </trkpt>
      <trkpt lat="45.06092" lon="5.50683">
        <ele>1176.21632172</ele>
        <time>2021-02-18T10:25:06Z</time>
      </trkpt>
      <trkpt lat="45.06101" lon="5.50678">
        <ele>1176.21692476</ele>
        <time>2021-02-18T10:25:11Z</time>
      </trkpt>
      <trkpt lat="45.06105" lon="5.50671">
        <ele>1174.2173696</ele>
        <time>2021-02-18T10:25:15Z</time>
      </trkpt>
      <trkpt lat="45.06113" lon="5.50667">
        <ele>1176.2178264</ele>
        <time>2021-02-18T10:25:19Z</time>
      </trkpt>
      <trkpt lat="45.06122" lon="5.50665">
        <ele>1176.21826244</ele>
        <time>2021-02-18T10:25:24Z</time>
      </trkpt>
      <trkpt lat="45.06129" lon="5.50661">
        <ele>1177.21873272</ele>
        <time>2021-02-18T10:25:29Z</time>
      </trkpt>
      <trkpt lat="45.06136" lon="5.50656">
        <ele>1177.21919344</ele>
        <time>2021-02-18T10:25:33Z</time>
      </trkpt>
      <trkpt lat="45.06142" lon="5.50649">
        <ele>1179.21971256</ele>
        <time>2021-02-18T10:25:38Z</time>
      </trkpt>
      <trkpt lat="45.06148" lon="5.50645">
        <ele>1176.22013972</ele>
        <time>2021-02-18T10:25:42Z</time>
      </trkpt>
      <trkpt lat="45.06155" lon="5.50636">
        <ele>1177.22072828</ele>
        <time>2021-02-18T10:25:47Z</time>
      </trkpt>
      <trkpt lat="45.06161" lon="5.50628">
        <ele>1179.22132728</ele>
        <time>2021-02-18T10:25:52Z</time>
      </trkpt>
      <trkpt lat="45.06164" lon="5.50617">
        <ele>1178.22188024</ele>
        <time>2021-02-18T10:25:56Z</time>
      </trkpt>
      <trkpt lat="45.06167" lon="5.50607">
        <ele>1176.22242168</ele>
        <time>2021-02-18T10:26:00Z</time>
      </trkpt>
      <trkpt lat="45.06172" lon="5.50596">
        <ele>1177.2230402</ele>
        <time>2021-02-18T10:26:05Z</time>
      </trkpt>
      <trkpt lat="45.06174" lon="5.50583">
        <ele>1177.223655</ele>
        <time>2021-02-18T10:26:10Z</time>
      </trkpt>
      <trkpt lat="45.06177" lon="5.50574">
        <ele>1178.22411336</ele>
        <time>2021-02-18T10:26:14Z</time>
      </trkpt>
      <trkpt lat="45.06179" lon="5.5056">
        <ele>1178.22478464</ele>
        <time>2021-02-18T10:26:19Z</time>
      </trkpt>
      <trkpt lat="45.06185" lon="5.50551">
        <ele>1179.225381</ele>
        <time>2021-02-18T10:26:25Z</time>
      </trkpt>
      <trkpt lat="45.06189" lon="5.50543">
        <ele>1180.22583112</ele>
        <time>2021-02-18T10:26:29Z</time>
      </trkpt>
      <trkpt lat="45.06193" lon="5.50535">
        <ele>1181.2263148</ele>
        <time>2021-02-18T10:26:35Z</time>
      </trkpt>
      <trkpt lat="45.06199" lon="5.50526">
        <ele>1179.22692756</ele>
        <time>2021-02-18T10:26:40Z</time>
      </trkpt>
      <trkpt lat="45.06205" lon="5.50518">
        <ele>1177.22748084</ele>
        <time>2021-02-18T10:26:44Z</time>
      </trkpt>
      <trkpt lat="45.06211" lon="5.50512">
        <ele>1176.22796196</ele>
        <time>2021-02-18T10:26:48Z</time>
      </trkpt>
      <trkpt lat="45.06219" lon="5.50507">
        <ele>1177.22848568</ele>
        <time>2021-02-18T10:26:53Z</time>
      </trkpt>
      <trkpt lat="45.06225" lon="5.50502">
        <ele>1178.22890644</ele>
        <time>2021-02-18T10:26:57Z</time>
      </trkpt>
      <trkpt lat="45.06231" lon="5.50497">
        <ele>1181.2293482</ele>
        <time>2021-02-18T10:27:01Z</time>
      </trkpt>
      <trkpt lat="45.06238" lon="5.50491">
        <ele>1185.22989136</ele>
        <time>2021-02-18T10:27:06Z</time>
      </trkpt>
      <trkpt lat="45.06244" lon="5.50482">
        <ele>1187.23049992</ele>
        <time>2021-02-18T10:27:13Z</time>
      </trkpt>
      <trkpt lat="45.06252" lon="5.50476">
        <ele>1188.23104072</ele>
        <time>2021-02-18T10:27:18Z</time>
      </trkpt>
      <trkpt lat="45.06255" lon="5.50466">
        <ele>1188.23157136</ele>
        <time>2021-02-18T10:27:23Z</time>
      </trkpt>
      <trkpt lat="45.0626" lon="5.50459">
        <ele>1188.2320592</ele>
        <time>2021-02-18T10:27:27Z</time>
      </trkpt>
      <trkpt lat="45.06264" lon="5.50448">
        <ele>1187.23262808</ele>
        <time>2021-02-18T10:27:31Z</time>
      </trkpt>
      <trkpt lat="45.06271" lon="5.5044">
        <ele>1186.2332304</ele>
        <time>2021-02-18T10:27:36Z</time>
      </trkpt>
      <trkpt lat="45.06277" lon="5.50431">
        <ele>1185.23382852</ele>
        <time>2021-02-18T10:27:41Z</time>
      </trkpt>
      <trkpt lat="45.06286" lon="5.50426">
        <ele>1184.23443172</ele>
        <time>2021-02-18T10:27:46Z</time>
      </trkpt>
      <trkpt lat="45.06292" lon="5.50415">
        <ele>1181.23507324</ele>
        <time>2021-02-18T10:27:51Z</time>
      </trkpt>
      <trkpt lat="45.06296" lon="5.50405">
        <ele>1180.23563704</ele>
        <time>2021-02-18T10:27:55Z</time>
      </trkpt>
      <trkpt lat="45.06303" lon="5.50397">
        <ele>1181.2362382</ele>
        <time>2021-02-18T10:28:00Z</time>
      </trkpt>
      <trkpt lat="45.06308" lon="5.50388">
        <ele>1181.23677708</ele>
        <time>2021-02-18T10:28:05Z</time>
      </trkpt>
      <trkpt lat="45.06309" lon="5.50378">
        <ele>1180.2372534</ele>
        <time>2021-02-18T10:28:10Z</time>
      </trkpt>
      <trkpt lat="45.0631" lon="5.50365">
        <ele>1179.23778008</ele>
        <time>2021-02-18T10:28:15Z</time>
      </trkpt>
      <trkpt lat="45.06312" lon="5.50353">
        <ele>1177.23834616</ele>
        <time>2021-02-18T10:28:20Z</time>
      </trkpt>
      <trkpt lat="45.06315" lon="5.50344">
        <ele>1179.23886952</ele>
        <time>2021-02-18T10:28:25Z</time>
      </trkpt>
      <trkpt lat="45.06321" lon="5.50336">
        <ele>1181.23939508</ele>
        <time>2021-02-18T10:28:29Z</time>
      </trkpt>
      <trkpt lat="45.06326" lon="5.50327">
        <ele>1182.23996868</ele>
        <time>2021-02-18T10:28:33Z</time>
      </trkpt>
      <trkpt lat="45.06329" lon="5.50316">
        <ele>1181.24050516</ele>
        <time>2021-02-18T10:28:38Z</time>
      </trkpt>
      <trkpt lat="45.0633" lon="5.50304">
        <ele>1180.24103308</ele>
        <time>2021-02-18T10:28:43Z</time>
      </trkpt>
      <trkpt lat="45.06334" lon="5.50293">
        <ele>1180.2416378</ele>
        <time>2021-02-18T10:28:48Z</time>
      </trkpt>
      <trkpt lat="45.0634" lon="5.50286">
        <ele>1181.24215992</ele>
        <time>2021-02-18T10:28:52Z</time>
      </trkpt>
      <trkpt lat="45.06346" lon="5.50278">
        <ele>1182.2427174</ele>
        <time>2021-02-18T10:28:57Z</time>
      </trkpt>
      <trkpt lat="45.0635" lon="5.50268">
        <ele>1182.24330056</ele>
        <time>2021-02-18T10:29:02Z</time>
      </trkpt>
      <trkpt lat="45.06351" lon="5.50257">
        <ele>1182.24377196</ele>
        <time>2021-02-18T10:29:06Z</time>
      </trkpt>
      <trkpt lat="45.06354" lon="5.50247">
        <ele>1181.24427148</ele>
        <time>2021-02-18T10:29:10Z</time>
      </trkpt>
      <trkpt lat="45.06361" lon="5.50237">
        <ele>1181.24496612</ele>
        <time>2021-02-18T10:29:15Z</time>
      </trkpt>
      <trkpt lat="45.06364" lon="5.50228">
        <ele>1182.24542552</ele>
        <time>2021-02-18T10:29:19Z</time>
      </trkpt>
      <trkpt lat="45.06372" lon="5.50224">
        <ele>1183.24592296</ele>
        <time>2021-02-18T10:29:23Z</time>
      </trkpt>
      <trkpt lat="45.06376" lon="5.50214">
        <ele>1183.24648164</ele>
        <time>2021-02-18T10:29:28Z</time>
      </trkpt>
      <trkpt lat="45.06383" lon="5.50205">
        <ele>1184.24713096</ele>
        <time>2021-02-18T10:29:33Z</time>
      </trkpt>
      <trkpt lat="45.06387" lon="5.50195">
        <ele>1184.24765572</ele>
        <time>2021-02-18T10:29:37Z</time>
      </trkpt>
      <trkpt lat="45.0639" lon="5.50182">
        <ele>1184.24832344</ele>
        <time>2021-02-18T10:29:42Z</time>
      </trkpt>
      <trkpt lat="45.0639" lon="5.50169">
        <ele>1183.24883076</ele>
        <time>2021-02-18T10:29:46Z</time>
      </trkpt>
      <trkpt lat="45.06395" lon="5.50159">
        <ele>1184.24944492</ele>
        <time>2021-02-18T10:29:51Z</time>
      </trkpt>
      <trkpt lat="45.06397" lon="5.50147">
        <ele>1186.25000012</ele>
        <time>2021-02-18T10:29:56Z</time>
      </trkpt>
      <trkpt lat="45.06402" lon="5.50139">
        <ele>1187.25054292</ele>
        <time>2021-02-18T10:30:01Z</time>
      </trkpt>
      <trkpt lat="45.06412" lon="5.50135">
        <ele>1185.25108716</ele>
        <time>2021-02-18T10:30:05Z</time>
      </trkpt>
      <trkpt lat="45.06417" lon="5.50125">
        <ele>1183.25168376</ele>
        <time>2021-02-18T10:30:10Z</time>
      </trkpt>
      <trkpt lat="45.06414" lon="5.5011">
        <ele>1184.2521522</ele>
        <time>2021-02-18T10:30:15Z</time>
      </trkpt>
      <trkpt lat="45.06423" lon="5.50106">
        <ele>1185.25269636</ele>
        <time>2021-02-18T10:30:19Z</time>
      </trkpt>
      <trkpt lat="45.0643" lon="5.50099">
        <ele>1190.25325028</ele>
        <time>2021-02-18T10:30:25Z</time>
      </trkpt>
      <trkpt lat="45.06444" lon="5.50094">
        <ele>1192.25398916</ele>
        <time>2021-02-18T10:30:29Z</time>
      </trkpt>
      <trkpt lat="45.0645" lon="5.50085">
        <ele>1195.25459192</ele>
        <time>2021-02-18T10:30:34Z</time>
      </trkpt>
      <trkpt lat="45.06457" lon="5.50076">
        <ele>1195.25524652</ele>
        <time>2021-02-18T10:30:39Z</time>
      </trkpt>
      <trkpt lat="45.06468" lon="5.50076">
        <ele>1196.25565268</ele>
        <time>2021-02-18T10:30:44Z</time>
      </trkpt>
      <trkpt lat="45.06476" lon="5.50074">
        <ele>1201.25606148</ele>
        <time>2021-02-18T10:30:48Z</time>
      </trkpt>
      <trkpt lat="45.06484" lon="5.5007">
        <ele>1202.25655052</ele>
        <time>2021-02-18T10:30:53Z</time>
      </trkpt>
      <trkpt lat="45.0649" lon="5.50066">
        <ele>1203.25694248</ele>
        <time>2021-02-18T10:30:57Z</time>
      </trkpt>
      <trkpt lat="45.06498" lon="5.50062">
        <ele>1203.25742812</ele>
        <time>2021-02-18T10:31:02Z</time>
      </trkpt>
      <trkpt lat="45.06509" lon="5.50057">
        <ele>1202.25805572</ele>
        <time>2021-02-18T10:31:07Z</time>
      </trkpt>
      <trkpt lat="45.06518" lon="5.5005">
        <ele>1203.2587262</ele>
        <time>2021-02-18T10:31:12Z</time>
      </trkpt>
      <trkpt lat="45.06525" lon="5.50047">
        <ele>1201.25911416</ele>
        <time>2021-02-18T10:31:16Z</time>
      </trkpt>
      <trkpt lat="45.06531" lon="5.5004">
        <ele>1203.25961972</ele>
        <time>2021-02-18T10:31:20Z</time>
      </trkpt>
      <trkpt lat="45.06542" lon="5.50036">
        <ele>1201.26024288</ele>
        <time>2021-02-18T10:31:25Z</time>
      </trkpt>
      <trkpt lat="45.06548" lon="5.50041">
        <ele>1203.2603114</ele>
        <time>2021-02-18T10:31:29Z</time>
      </trkpt>
      <trkpt lat="45.06559" lon="5.50041">
        <ele>1202.26072528</ele>
        <time>2021-02-18T10:31:34Z</time>
      </trkpt>
      <trkpt lat="45.06566" lon="5.50039">
        <ele>1199.26107848</ele>
        <time>2021-02-18T10:31:38Z</time>
      </trkpt>
      <trkpt lat="45.06572" lon="5.50033">
        <ele>1200.26156856</ele>
        <time>2021-02-18T10:31:42Z</time>
      </trkpt>
      <trkpt lat="45.06578" lon="5.50028">
        <ele>1198.26201924</ele>
        <time>2021-02-18T10:31:46Z</time>
      </trkpt>
      <trkpt lat="45.06585" lon="5.50018">
        <ele>1194.26270384</ele>
        <time>2021-02-18T10:31:50Z</time>
      </trkpt>
      <trkpt lat="45.06592" lon="5.50011">
        <ele>1195.2632582</ele>
        <time>2021-02-18T10:31:56Z</time>
      </trkpt>
      <trkpt lat="45.06599" lon="5.50004">
        <ele>1192.26378796</ele>
        <time>2021-02-18T10:32:03Z</time>
      </trkpt>
      <trkpt lat="45.06604" lon="5.49997">
        <ele>1190.2641762</ele>
        <time>2021-02-18T10:32:07Z</time>
      </trkpt>
      <trkpt lat="45.06612" lon="5.49991">
        <ele>1189.26447348</ele>
        <time>2021-02-18T10:32:11Z</time>
      </trkpt>
      <trkpt lat="45.0662" lon="5.49987">
        <ele>1191.26477916</ele>
        <time>2021-02-18T10:32:16Z</time>
      </trkpt>
      <trkpt lat="45.06622" lon="5.49975">
        <ele>1183.26489656</ele>
        <time>2021-02-18T10:33:52Z</time>
      </trkpt>
      <trkpt lat="45.0662" lon="5.49963">
        <ele>1187.2648078</ele>
        <time>2021-02-18T10:34:29Z</time>
      </trkpt>
      <trkpt lat="45.06615" lon="5.49954">
        <ele>1190.2645786</ele>
        <time>2021-02-18T10:34:37Z</time>
      </trkpt>
      <trkpt lat="45.06608" lon="5.49947">
        <ele>1191.26433692</ele>
        <time>2021-02-18T10:34:42Z</time>
      </trkpt>
      <trkpt lat="45.06601" lon="5.49934">
        <ele>1189.26404204</ele>
        <time>2021-02-18T10:34:47Z</time>
      </trkpt>
      <trkpt lat="45.06597" lon="5.49923">
        <ele>1189.26385936</ele>
        <time>2021-02-18T10:34:51Z</time>
      </trkpt>
      <trkpt lat="45.06594" lon="5.4991">
        <ele>1192.26376184</ele>
        <time>2021-02-18T10:34:56Z</time>
      </trkpt>
      <trkpt lat="45.06599" lon="5.49899">
        <ele>1194.26397116</ele>
        <time>2021-02-18T10:35:00Z</time>
      </trkpt>
      <trkpt lat="45.06603" lon="5.4989">
        <ele>1197.26413552</ele>
        <time>2021-02-18T10:35:04Z</time>
      </trkpt>
      <trkpt lat="45.06606" lon="5.49875">
        <ele>1194.26423384</ele>
        <time>2021-02-18T10:35:08Z</time>
      </trkpt>
      <trkpt lat="45.06605" lon="5.49859">
        <ele>1194.26420224</ele>
        <time>2021-02-18T10:35:12Z</time>
      </trkpt>
      <trkpt lat="45.06612" lon="5.49844">
        <ele>1190.26448336</ele>
        <time>2021-02-18T10:35:17Z</time>
      </trkpt>
      <trkpt lat="45.06617" lon="5.49835">
        <ele>1188.26466492</ele>
        <time>2021-02-18T10:35:22Z</time>
      </trkpt>
      <trkpt lat="45.06618" lon="5.49823">
        <ele>1189.2647238</ele>
        <time>2021-02-18T10:35:27Z</time>
      </trkpt>
      <trkpt lat="45.06617" lon="5.49812">
        <ele>1186.26466512</ele>
        <time>2021-02-18T10:35:32Z</time>
      </trkpt>
      <trkpt lat="45.0661" lon="5.49801">
        <ele>1186.264388</ele>
        <time>2021-02-18T10:35:37Z</time>
      </trkpt>
      <trkpt lat="45.06605" lon="5.49789">
        <ele>1193.26420316</ele>
        <time>2021-02-18T10:35:42Z</time>
      </trkpt>
      <trkpt lat="45.06603" lon="5.4978">
        <ele>1192.26410136</ele>
        <time>2021-02-18T10:35:46Z</time>
      </trkpt>
      <trkpt lat="45.06599" lon="5.49765">
        <ele>1189.26396772</ele>
        <time>2021-02-18T10:35:51Z</time>
      </trkpt>
      <trkpt lat="45.06593" lon="5.49751">
        <ele>1185.26370132</ele>
        <time>2021-02-18T10:35:56Z</time>
      </trkpt>
      <trkpt lat="45.06589" lon="5.4974">
        <ele>1184.26356136</ele>
        <time>2021-02-18T10:36:00Z</time>
      </trkpt>
      <trkpt lat="45.06585" lon="5.4973">
        <ele>1185.2633948</ele>
        <time>2021-02-18T10:36:04Z</time>
      </trkpt>
      <trkpt lat="45.06579" lon="5.49722">
        <ele>1187.26315908</ele>
        <time>2021-02-18T10:36:08Z</time>
      </trkpt>
      <trkpt lat="45.06577" lon="5.4971">
        <ele>1187.26306544</ele>
        <time>2021-02-18T10:36:12Z</time>
      </trkpt>
      <trkpt lat="45.06578" lon="5.49697">
        <ele>1191.2631124</ele>
        <time>2021-02-18T10:36:16Z</time>
      </trkpt>
      <trkpt lat="45.06573" lon="5.49688">
        <ele>1192.26292584</ele>
        <time>2021-02-18T10:36:22Z</time>
      </trkpt>
      <trkpt lat="45.06568" lon="5.49679">
        <ele>1196.26273216</ele>
        <time>2021-02-18T10:36:28Z</time>
      </trkpt>
      <trkpt lat="45.06561" lon="5.49672">
        <ele>1198.26244688</ele>
        <time>2021-02-18T10:36:34Z</time>
      </trkpt>
      <trkpt lat="45.06557" lon="5.49664">
        <ele>1197.26226928</ele>
        <time>2021-02-18T10:36:39Z</time>
      </trkpt>
      <trkpt lat="45.06549" lon="5.4966">
        <ele>1195.2619718</ele>
        <time>2021-02-18T10:36:44Z</time>
      </trkpt>
      <trkpt lat="45.06542" lon="5.49652">
        <ele>1194.261683</ele>
        <time>2021-02-18T10:36:49Z</time>
      </trkpt>
      <trkpt lat="45.06537" lon="5.49645">
        <ele>1195.26149508</ele>
        <time>2021-02-18T10:36:53Z</time>
      </trkpt>
      <trkpt lat="45.06525" lon="5.49631">
        <ele>1195.26098988</ele>
        <time>2021-02-18T10:36:57Z</time>
      </trkpt>
      <trkpt lat="45.06514" lon="5.49617">
        <ele>1198.26054364</ele>
        <time>2021-02-18T10:37:02Z</time>
      </trkpt>
      <trkpt lat="45.06507" lon="5.49613">
        <ele>1199.2602664</ele>
        <time>2021-02-18T10:37:07Z</time>
      </trkpt>
      <trkpt lat="45.06488" lon="5.49605">
        <ele>1194.25949864</ele>
        <time>2021-02-18T10:37:12Z</time>
      </trkpt>
      <trkpt lat="45.06482" lon="5.49597">
        <ele>1190.25925928</ele>
        <time>2021-02-18T10:37:16Z</time>
      </trkpt>
      <trkpt lat="45.06475" lon="5.49594">
        <ele>1188.25898408</ele>
        <time>2021-02-18T10:37:20Z</time>
      </trkpt>
      <trkpt lat="45.06463" lon="5.49587">
        <ele>1187.25852192</ele>
        <time>2021-02-18T10:37:24Z</time>
      </trkpt>
      <trkpt lat="45.06457" lon="5.49575">
        <ele>1184.25828252</ele>
        <time>2021-02-18T10:37:28Z</time>
      </trkpt>
      <trkpt lat="45.06452" lon="5.49568">
        <ele>1182.25807756</ele>
        <time>2021-02-18T10:37:32Z</time>
      </trkpt>
      <trkpt lat="45.06445" lon="5.49557">
        <ele>1181.257805</ele>
        <time>2021-02-18T10:37:37Z</time>
      </trkpt>
      <trkpt lat="45.06441" lon="5.49546">
        <ele>1178.25765368</ele>
        <time>2021-02-18T10:37:41Z</time>
      </trkpt>
      <trkpt lat="45.06445" lon="5.49534">
        <ele>1178.2578042</ele>
        <time>2021-02-18T10:37:45Z</time>
      </trkpt>
      <trkpt lat="45.06457" lon="5.49522">
        <ele>1181.25829196</ele>
        <time>2021-02-18T10:37:50Z</time>
      </trkpt>
      <trkpt lat="45.06462" lon="5.49511">
        <ele>1185.25846332</ele>
        <time>2021-02-18T10:38:19Z</time>
      </trkpt>
      <trkpt lat="45.06453" lon="5.49513">
        <ele>1175.25813348</ele>
        <time>2021-02-18T10:45:40Z</time>
      </trkpt>
      <trkpt lat="45.06447" lon="5.49519">
        <ele>1171.25787404</ele>
        <time>2021-02-18T10:46:15Z</time>
      </trkpt>
      <trkpt lat="45.06438" lon="5.49518">
        <ele>1166.25752472</ele>
        <time>2021-02-18T10:46:20Z</time>
      </trkpt>
      <trkpt lat="45.06433" lon="5.4951">
        <ele>1168.25732652</ele>
        <time>2021-02-18T10:46:26Z</time>
      </trkpt>
      <trkpt lat="45.06426" lon="5.49503">
        <ele>1172.25703512</ele>
        <time>2021-02-18T10:46:32Z</time>
      </trkpt>
      <trkpt lat="45.06418" lon="5.495">
        <ele>1175.25670296</ele>
        <time>2021-02-18T10:46:37Z</time>
      </trkpt>
      <trkpt lat="45.06409" lon="5.49503">
        <ele>1177.25636564</ele>
        <time>2021-02-18T10:46:42Z</time>
      </trkpt>
      <trkpt lat="45.06401" lon="5.49507">
        <ele>1180.25604248</ele>
        <time>2021-02-18T10:46:49Z</time>
      </trkpt>
      <trkpt lat="45.06392" lon="5.49504">
        <ele>1180.25569784</ele>
        <time>2021-02-18T10:46:54Z</time>
      </trkpt>
      <trkpt lat="45.06387" lon="5.49499">
        <ele>1182.25546824</ele>
        <time>2021-02-18T10:46:58Z</time>
      </trkpt>
      <trkpt lat="45.0638" lon="5.49492">
        <ele>1188.25518468</ele>
        <time>2021-02-18T10:47:05Z</time>
      </trkpt>
      <trkpt lat="45.06375" lon="5.49482">
        <ele>1191.2549876</ele>
        <time>2021-02-18T10:47:11Z</time>
      </trkpt>
      <trkpt lat="45.06366" lon="5.49479">
        <ele>1195.25465556</ele>
        <time>2021-02-18T10:47:18Z</time>
      </trkpt>
      <trkpt lat="45.06355" lon="5.49465">
        <ele>1194.25419416</ele>
        <time>2021-02-18T10:47:22Z</time>
      </trkpt>
      <trkpt lat="45.06347" lon="5.49456">
        <ele>1198.25386412</ele>
        <time>2021-02-18T10:47:27Z</time>
      </trkpt>
      <trkpt lat="45.06342" lon="5.49447">
        <ele>1193.25368636</ele>
        <time>2021-02-18T10:47:33Z</time>
      </trkpt>
      <trkpt lat="45.06336" lon="5.49439">
        <ele>1199.2534318</ele>
        <time>2021-02-18T10:47:40Z</time>
      </trkpt>
      <trkpt lat="45.0633" lon="5.49434">
        <ele>1203.25321244</ele>
        <time>2021-02-18T10:47:45Z</time>
      </trkpt>
      <trkpt lat="45.06323" lon="5.49422">
        <ele>1202.25292924</ele>
        <time>2021-02-18T10:47:50Z</time>
      </trkpt>
      <trkpt lat="45.06315" lon="5.49419">
        <ele>1198.25260352</ele>
        <time>2021-02-18T10:47:54Z</time>
      </trkpt>
      <trkpt lat="45.06311" lon="5.4941">
        <ele>1201.252458</ele>
        <time>2021-02-18T10:47:59Z</time>
      </trkpt>
      <trkpt lat="45.06306" lon="5.49401">
        <ele>1200.2522498</ele>
        <time>2021-02-18T10:48:04Z</time>
      </trkpt>
      <trkpt lat="45.06301" lon="5.49391">
        <ele>1206.25202092</ele>
        <time>2021-02-18T10:48:10Z</time>
      </trkpt>
      <trkpt lat="45.06296" lon="5.49383">
        <ele>1206.25183696</ele>
        <time>2021-02-18T10:48:14Z</time>
      </trkpt>
      <trkpt lat="45.06291" lon="5.49375">
        <ele>1207.25162812</ele>
        <time>2021-02-18T10:48:19Z</time>
      </trkpt>
      <trkpt lat="45.06285" lon="5.49366">
        <ele>1209.25138752</ele>
        <time>2021-02-18T10:48:25Z</time>
      </trkpt>
      <trkpt lat="45.06284" lon="5.49355">
        <ele>1210.25134652</ele>
        <time>2021-02-18T10:48:29Z</time>
      </trkpt>
      <trkpt lat="45.06283" lon="5.49343">
        <ele>1209.25131388</ele>
        <time>2021-02-18T10:48:33Z</time>
      </trkpt>
      <trkpt lat="45.06277" lon="5.49333">
        <ele>1218.25108296</ele>
        <time>2021-02-18T10:48:41Z</time>
      </trkpt>
      <trkpt lat="45.06271" lon="5.49327">
        <ele>1224.25084924</ele>
        <time>2021-02-18T10:48:47Z</time>
      </trkpt>
      <trkpt lat="45.06272" lon="5.49314">
        <ele>1224.25089028</ele>
        <time>2021-02-18T10:48:51Z</time>
      </trkpt>
      <trkpt lat="45.06262" lon="5.49309">
        <ele>1221.25046064</ele>
        <time>2021-02-18T10:48:56Z</time>
      </trkpt>
      <trkpt lat="45.06257" lon="5.49302">
        <ele>1218.25027356</ele>
        <time>2021-02-18T10:49:00Z</time>
      </trkpt>
      <trkpt lat="45.0625" lon="5.49295">
        <ele>1220.2499938</ele>
        <time>2021-02-18T10:49:05Z</time>
      </trkpt>
      <trkpt lat="45.06248" lon="5.49284">
        <ele>1220.24991532</ele>
        <time>2021-02-18T10:49:10Z</time>
      </trkpt>
      <trkpt lat="45.06243" lon="5.49276">
        <ele>1217.24970208</ele>
        <time>2021-02-18T10:49:15Z</time>
      </trkpt>
      <trkpt lat="45.06232" lon="5.49262">
        <ele>1220.24925912</ele>
        <time>2021-02-18T10:49:19Z</time>
      </trkpt>
      <trkpt lat="45.06238" lon="5.49249">
        <ele>1218.24953072</ele>
        <time>2021-02-18T10:49:23Z</time>
      </trkpt>
      <trkpt lat="45.06249" lon="5.49245">
        <ele>1214.24996656</ele>
        <time>2021-02-18T10:49:28Z</time>
      </trkpt>
      <trkpt lat="45.06255" lon="5.49242">
        <ele>1213.25018032</ele>
        <time>2021-02-18T10:49:35Z</time>
      </trkpt>
      <trkpt lat="45.06258" lon="5.49232">
        <ele>1212.25032232</ele>
        <time>2021-02-18T10:49:41Z</time>
      </trkpt>
      <trkpt lat="45.06266" lon="5.49208">
        <ele>1210.250627</ele>
        <time>2021-02-18T10:49:45Z</time>
      </trkpt>
      <trkpt lat="45.06268" lon="5.49196">
        <ele>1208.25073672</ele>
        <time>2021-02-18T10:49:50Z</time>
      </trkpt>
      <trkpt lat="45.0627" lon="5.49184">
        <ele>1201.2508078</ele>
        <time>2021-02-18T10:49:56Z</time>
      </trkpt>
      <trkpt lat="45.06273" lon="5.49174">
        <ele>1197.2509266</ele>
        <time>2021-02-18T10:50:01Z</time>
      </trkpt>
      <trkpt lat="45.06275" lon="5.49163">
        <ele>1198.25101204</ele>
        <time>2021-02-18T10:50:07Z</time>
      </trkpt>
      <trkpt lat="45.06272" lon="5.49152">
        <ele>1196.25088696</ele>
        <time>2021-02-18T10:50:11Z</time>
      </trkpt>
      <trkpt lat="45.06274" lon="5.49141">
        <ele>1198.25094504</ele>
        <time>2021-02-18T10:50:17Z</time>
      </trkpt>
      <trkpt lat="45.06276" lon="5.49129">
        <ele>1201.25105472</ele>
        <time>2021-02-18T10:50:22Z</time>
      </trkpt>
      <trkpt lat="45.0628" lon="5.49118">
        <ele>1204.2512094</ele>
        <time>2021-02-18T10:50:27Z</time>
      </trkpt>
      <trkpt lat="45.0628" lon="5.49107">
        <ele>1203.25121108</ele>
        <time>2021-02-18T10:50:32Z</time>
      </trkpt>
      <trkpt lat="45.06283" lon="5.49093">
        <ele>1200.25132336</ele>
        <time>2021-02-18T10:50:37Z</time>
      </trkpt>
      <trkpt lat="45.06285" lon="5.49081">
        <ele>1202.25141168</ele>
        <time>2021-02-18T10:50:43Z</time>
      </trkpt>
      <trkpt lat="45.06287" lon="5.4907">
        <ele>1204.25149028</ele>
        <time>2021-02-18T10:50:48Z</time>
      </trkpt>
      <trkpt lat="45.06287" lon="5.49059">
        <ele>1203.25146672</ele>
        <time>2021-02-18T10:50:53Z</time>
      </trkpt>
      <trkpt lat="45.06288" lon="5.49049">
        <ele>1205.25153744</ele>
        <time>2021-02-18T10:50:58Z</time>
      </trkpt>
      <trkpt lat="45.06294" lon="5.4904">
        <ele>1204.25174552</ele>
        <time>2021-02-18T10:51:04Z</time>
      </trkpt>
      <trkpt lat="45.06299" lon="5.4903">
        <ele>1204.25195</ele>
        <time>2021-02-18T10:51:10Z</time>
      </trkpt>
      <trkpt lat="45.063" lon="5.49018">
        <ele>1208.25201352</ele>
        <time>2021-02-18T10:51:16Z</time>
      </trkpt>
      <trkpt lat="45.06302" lon="5.49007">
        <ele>1212.25206288</ele>
        <time>2021-02-18T10:51:24Z</time>
      </trkpt>
      <trkpt lat="45.06303" lon="5.48997">
        <ele>1213.25213032</ele>
        <time>2021-02-18T10:51:30Z</time>
      </trkpt>
      <trkpt lat="45.06302" lon="5.48985">
        <ele>1211.2520748</ele>
        <time>2021-02-18T10:51:36Z</time>
      </trkpt>
      <trkpt lat="45.06302" lon="5.48973">
        <ele>1208.25208876</ele>
        <time>2021-02-18T10:51:42Z</time>
      </trkpt>
      <trkpt lat="45.06299" lon="5.48962">
        <ele>1213.25197616</ele>
        <time>2021-02-18T10:51:51Z</time>
      </trkpt>
      <trkpt lat="45.06296" lon="5.48951">
        <ele>1215.25184472</ele>
        <time>2021-02-18T10:51:56Z</time>
      </trkpt>
      <trkpt lat="45.06299" lon="5.48939">
        <ele>1212.25194748</ele>
        <time>2021-02-18T10:52:04Z</time>
      </trkpt>
      <trkpt lat="45.06299" lon="5.48928">
        <ele>1215.25196172</ele>
        <time>2021-02-18T10:52:10Z</time>
      </trkpt>
      <trkpt lat="45.06295" lon="5.48919">
        <ele>1220.2518168</ele>
        <time>2021-02-18T10:52:19Z</time>
      </trkpt>
      <trkpt lat="45.06289" lon="5.4891">
        <ele>1225.25156</ele>
        <time>2021-02-18T10:52:25Z</time>
      </trkpt>
      <trkpt lat="45.06286" lon="5.489">
        <ele>1223.2514566</ele>
        <time>2021-02-18T10:52:31Z</time>
      </trkpt>
      <trkpt lat="45.06285" lon="5.48889">
        <ele>1223.25140236</ele>
        <time>2021-02-18T10:52:36Z</time>
      </trkpt>
      <trkpt lat="45.06275" lon="5.48882">
        <ele>1219.25100088</ele>
        <time>2021-02-18T10:52:41Z</time>
      </trkpt>
      <trkpt lat="45.06268" lon="5.48875">
        <ele>1219.25071844</ele>
        <time>2021-02-18T10:52:48Z</time>
      </trkpt>
      <trkpt lat="45.06264" lon="5.48866">
        <ele>1220.25054592</ele>
        <time>2021-02-18T10:52:53Z</time>
      </trkpt>
      <trkpt lat="45.06255" lon="5.48861">
        <ele>1218.25021664</ele>
        <time>2021-02-18T10:52:57Z</time>
      </trkpt>
      <trkpt lat="45.06248" lon="5.48854">
        <ele>1220.24991264</ele>
        <time>2021-02-18T10:53:03Z</time>
      </trkpt>
      <trkpt lat="45.06247" lon="5.48842">
        <ele>1219.249875</ele>
        <time>2021-02-18T10:53:08Z</time>
      </trkpt>
      <trkpt lat="45.06244" lon="5.48831">
        <ele>1224.24974992</ele>
        <time>2021-02-18T10:53:14Z</time>
      </trkpt>
      <trkpt lat="45.06241" lon="5.48824">
        <ele>1225.24962684</ele>
        <time>2021-02-18T10:53:19Z</time>
      </trkpt>
      <trkpt lat="45.06228" lon="5.48823">
        <ele>1223.24913656</ele>
        <time>2021-02-18T10:53:23Z</time>
      </trkpt>
      <trkpt lat="45.06228" lon="5.48808">
        <ele>1220.24913764</ele>
        <time>2021-02-18T10:53:28Z</time>
      </trkpt>
      <trkpt lat="45.06222" lon="5.48802">
        <ele>1219.2488698</ele>
        <time>2021-02-18T10:53:32Z</time>
      </trkpt>
      <trkpt lat="45.06214" lon="5.48797">
        <ele>1218.2485766</ele>
        <time>2021-02-18T10:53:37Z</time>
      </trkpt>
      <trkpt lat="45.06207" lon="5.48791">
        <ele>1216.24828604</ele>
        <time>2021-02-18T10:53:41Z</time>
      </trkpt>
      <trkpt lat="45.06201" lon="5.48784">
        <ele>1214.2480458</ele>
        <time>2021-02-18T10:53:46Z</time>
      </trkpt>
      <trkpt lat="45.06194" lon="5.48777">
        <ele>1210.24776996</ele>
        <time>2021-02-18T10:53:52Z</time>
      </trkpt>
      <trkpt lat="45.06187" lon="5.48773">
        <ele>1208.24748112</ele>
        <time>2021-02-18T10:53:57Z</time>
      </trkpt>
      <trkpt lat="45.06178" lon="5.48773">
        <ele>1209.24712224</ele>
        <time>2021-02-18T10:54:01Z</time>
      </trkpt>
      <trkpt lat="45.06171" lon="5.48762">
        <ele>1210.24685688</ele>
        <time>2021-02-18T10:54:06Z</time>
      </trkpt>
      <trkpt lat="45.06166" lon="5.48751">
        <ele>1212.24662204</ele>
        <time>2021-02-18T10:54:11Z</time>
      </trkpt>
      <trkpt lat="45.06161" lon="5.48742">
        <ele>1213.24644436</ele>
        <time>2021-02-18T10:54:16Z</time>
      </trkpt>
      <trkpt lat="45.06154" lon="5.48737">
        <ele>1213.24616504</ele>
        <time>2021-02-18T10:54:20Z</time>
      </trkpt>
      <trkpt lat="45.06148" lon="5.4873">
        <ele>1216.24592208</ele>
        <time>2021-02-18T10:54:26Z</time>
      </trkpt>
      <trkpt lat="45.06141" lon="5.48724">
        <ele>1216.24565432</ele>
        <time>2021-02-18T10:54:31Z</time>
      </trkpt>
      <trkpt lat="45.06138" lon="5.48716">
        <ele>1215.2455122</ele>
        <time>2021-02-18T10:54:36Z</time>
      </trkpt>
      <trkpt lat="45.06131" lon="5.48711">
        <ele>1215.2452436</ele>
        <time>2021-02-18T10:54:40Z</time>
      </trkpt>
      <trkpt lat="45.06124" lon="5.48703">
        <ele>1214.24497332</ele>
        <time>2021-02-18T10:54:45Z</time>
      </trkpt>
      <trkpt lat="45.06116" lon="5.48703">
        <ele>1218.24462064</ele>
        <time>2021-02-18T10:54:52Z</time>
      </trkpt>
      <trkpt lat="45.06109" lon="5.48698">
        <ele>1219.24434056</ele>
        <time>2021-02-18T10:54:59Z</time>
      </trkpt>
      <trkpt lat="45.06101" lon="5.48693">
        <ele>1221.2440488</ele>
        <time>2021-02-18T10:55:05Z</time>
      </trkpt>
      <trkpt lat="45.06093" lon="5.48679">
        <ele>1221.24373304</ele>
        <time>2021-02-18T10:55:10Z</time>
      </trkpt>
      <trkpt lat="45.0609" lon="5.48672">
        <ele>1226.24358128</ele>
        <time>2021-02-18T10:55:16Z</time>
      </trkpt>
      <trkpt lat="45.06084" lon="5.48664">
        <ele>1228.24334252</ele>
        <time>2021-02-18T10:55:21Z</time>
      </trkpt>
      <trkpt lat="45.06079" lon="5.48655">
        <ele>1231.24314764</ele>
        <time>2021-02-18T10:55:26Z</time>
      </trkpt>
      <trkpt lat="45.06072" lon="5.48648">
        <ele>1235.24288628</ele>
        <time>2021-02-18T10:55:32Z</time>
      </trkpt>
      <trkpt lat="45.0607" lon="5.48637">
        <ele>1240.24279672</ele>
        <time>2021-02-18T10:55:37Z</time>
      </trkpt>
      <trkpt lat="45.06066" lon="5.48626">
        <ele>1243.24263156</ele>
        <time>2021-02-18T10:55:44Z</time>
      </trkpt>
      <trkpt lat="45.06063" lon="5.48613">
        <ele>1244.2425176</ele>
        <time>2021-02-18T10:55:49Z</time>
      </trkpt>
      <trkpt lat="45.06059" lon="5.48603">
        <ele>1245.24235584</ele>
        <time>2021-02-18T10:55:54Z</time>
      </trkpt>
      <trkpt lat="45.06055" lon="5.48594">
        <ele>1248.24220696</ele>
        <time>2021-02-18T10:56:00Z</time>
      </trkpt>
      <trkpt lat="45.06052" lon="5.48583">
        <ele>1246.24206636</ele>
        <time>2021-02-18T10:56:04Z</time>
      </trkpt>
      <trkpt lat="45.06046" lon="5.48572">
        <ele>1244.24185756</ele>
        <time>2021-02-18T10:56:09Z</time>
      </trkpt>
      <trkpt lat="45.0604" lon="5.48563">
        <ele>1241.24160392</ele>
        <time>2021-02-18T10:56:13Z</time>
      </trkpt>
      <trkpt lat="45.06036" lon="5.48553">
        <ele>1242.24142396</ele>
        <time>2021-02-18T10:56:18Z</time>
      </trkpt>
      <trkpt lat="45.06032" lon="5.48543">
        <ele>1242.24127084</ele>
        <time>2021-02-18T10:56:22Z</time>
      </trkpt>
      <trkpt lat="45.06026" lon="5.48533">
        <ele>1240.24104608</ele>
        <time>2021-02-18T10:56:26Z</time>
      </trkpt>
      <trkpt lat="45.06017" lon="5.48526">
        <ele>1242.24067504</ele>
        <time>2021-02-18T10:56:31Z</time>
      </trkpt>
      <trkpt lat="45.06014" lon="5.48514">
        <ele>1241.24056888</ele>
        <time>2021-02-18T10:56:36Z</time>
      </trkpt>
      <trkpt lat="45.06008" lon="5.48505">
        <ele>1242.24033256</ele>
        <time>2021-02-18T10:56:42Z</time>
      </trkpt>
      <trkpt lat="45.06009" lon="5.48494">
        <ele>1250.2403588</ele>
        <time>2021-02-18T10:56:48Z</time>
      </trkpt>
      <trkpt lat="45.06003" lon="5.48486">
        <ele>1253.24011552</ele>
        <time>2021-02-18T10:56:53Z</time>
      </trkpt>
      <trkpt lat="45.05995" lon="5.48478">
        <ele>1254.23981312</ele>
        <time>2021-02-18T10:56:58Z</time>
      </trkpt>
      <trkpt lat="45.05988" lon="5.4847">
        <ele>1254.23953676</ele>
        <time>2021-02-18T10:57:02Z</time>
      </trkpt>
      <trkpt lat="45.05984" lon="5.48461">
        <ele>1257.23934168</ele>
        <time>2021-02-18T10:57:07Z</time>
      </trkpt>
      <trkpt lat="45.05977" lon="5.48453">
        <ele>1259.23909152</ele>
        <time>2021-02-18T10:57:12Z</time>
      </trkpt>
      <trkpt lat="45.05973" lon="5.48445">
        <ele>1259.23891916</ele>
        <time>2021-02-18T10:57:18Z</time>
      </trkpt>
      <trkpt lat="45.05968" lon="5.48436">
        <ele>1259.2387198</ele>
        <time>2021-02-18T10:57:22Z</time>
      </trkpt>
      <trkpt lat="45.05963" lon="5.48424">
        <ele>1254.23851456</ele>
        <time>2021-02-18T10:57:26Z</time>
      </trkpt>
      <trkpt lat="45.05957" lon="5.48416">
        <ele>1254.23826216</ele>
        <time>2021-02-18T10:57:31Z</time>
      </trkpt>
      <trkpt lat="45.05951" lon="5.48408">
        <ele>1257.23805032</ele>
        <time>2021-02-18T10:57:35Z</time>
      </trkpt>
      <trkpt lat="45.05945" lon="5.484">
        <ele>1257.23781756</ele>
        <time>2021-02-18T10:57:40Z</time>
      </trkpt>
      <trkpt lat="45.05942" lon="5.4839">
        <ele>1260.23767872</ele>
        <time>2021-02-18T10:57:45Z</time>
      </trkpt>
      <trkpt lat="45.05937" lon="5.48379">
        <ele>1259.23748848</ele>
        <time>2021-02-18T10:57:51Z</time>
      </trkpt>
      <trkpt lat="45.0593" lon="5.48374">
        <ele>1260.23719676</ele>
        <time>2021-02-18T10:57:55Z</time>
      </trkpt>
      <trkpt lat="45.05924" lon="5.48366">
        <ele>1261.23695616</ele>
        <time>2021-02-18T10:58:00Z</time>
      </trkpt>
      <trkpt lat="45.05918" lon="5.48358">
        <ele>1258.23671328</ele>
        <time>2021-02-18T10:58:05Z</time>
      </trkpt>
      <trkpt lat="45.05913" lon="5.48348">
        <ele>1257.23651836</ele>
        <time>2021-02-18T10:58:10Z</time>
      </trkpt>
      <trkpt lat="45.0591" lon="5.48337">
        <ele>1261.23639656</ele>
        <time>2021-02-18T10:58:16Z</time>
      </trkpt>
      <trkpt lat="45.05904" lon="5.48329">
        <ele>1263.23613844</ele>
        <time>2021-02-18T10:58:23Z</time>
      </trkpt>
      <trkpt lat="45.059" lon="5.4832">
        <ele>1263.23597896</ele>
        <time>2021-02-18T10:58:27Z</time>
      </trkpt>
      <trkpt lat="45.05894" lon="5.48311">
        <ele>1263.23576692</ele>
        <time>2021-02-18T10:58:32Z</time>
      </trkpt>
      <trkpt lat="45.0589" lon="5.48302">
        <ele>1260.23560076</ele>
        <time>2021-02-18T10:58:36Z</time>
      </trkpt>
      <trkpt lat="45.05883" lon="5.48297">
        <ele>1258.23532244</ele>
        <time>2021-02-18T10:58:41Z</time>
      </trkpt>
      <trkpt lat="45.05877" lon="5.48288">
        <ele>1259.23509364</ele>
        <time>2021-02-18T10:58:45Z</time>
      </trkpt>
      <trkpt lat="45.05872" lon="5.4828">
        <ele>1261.23486212</ele>
        <time>2021-02-18T10:58:51Z</time>
      </trkpt>
      <trkpt lat="45.05866" lon="5.48273">
        <ele>1261.23463144</ele>
        <time>2021-02-18T10:58:56Z</time>
      </trkpt>
      <trkpt lat="45.0586" lon="5.48265">
        <ele>1260.23439444</ele>
        <time>2021-02-18T10:59:00Z</time>
      </trkpt>
      <trkpt lat="45.05854" lon="5.48256">
        <ele>1262.23416656</ele>
        <time>2021-02-18T10:59:07Z</time>
      </trkpt>
      <trkpt lat="45.05844" lon="5.48248">
        <ele>1258.23377196</ele>
        <time>2021-02-18T10:59:12Z</time>
      </trkpt>
      <trkpt lat="45.05842" lon="5.48238">
        <ele>1260.23366132</ele>
        <time>2021-02-18T10:59:16Z</time>
      </trkpt>
      <trkpt lat="45.05839" lon="5.48228">
        <ele>1261.23354336</ele>
        <time>2021-02-18T10:59:20Z</time>
      </trkpt>
      <trkpt lat="45.05832" lon="5.48221">
        <ele>1262.23327316</ele>
        <time>2021-02-18T10:59:25Z</time>
      </trkpt>
      <trkpt lat="45.05826" lon="5.48213">
        <ele>1262.2330198</ele>
        <time>2021-02-18T10:59:31Z</time>
      </trkpt>
      <trkpt lat="45.05822" lon="5.48202">
        <ele>1264.2328642</ele>
        <time>2021-02-18T10:59:36Z</time>
      </trkpt>
      <trkpt lat="45.05818" lon="5.48193">
        <ele>1262.2327162</ele>
        <time>2021-02-18T10:59:40Z</time>
      </trkpt>
      <trkpt lat="45.05812" lon="5.48182">
        <ele>1254.23248404</ele>
        <time>2021-02-18T10:59:44Z</time>
      </trkpt>
      <trkpt lat="45.05811" lon="5.48172">
        <ele>1256.23244036</ele>
        <time>2021-02-18T10:59:50Z</time>
      </trkpt>
      <trkpt lat="45.05806" lon="5.48162">
        <ele>1256.23225064</ele>
        <time>2021-02-18T10:59:57Z</time>
      </trkpt>
      <trkpt lat="45.05806" lon="5.48152">
        <ele>1258.23223088</ele>
        <time>2021-02-18T11:00:01Z</time>
      </trkpt>
      <trkpt lat="45.05804" lon="5.48142">
        <ele>1262.23217116</ele>
        <time>2021-02-18T11:00:05Z</time>
      </trkpt>
      <trkpt lat="45.058" lon="5.48131">
        <ele>1265.2319932</ele>
        <time>2021-02-18T11:00:10Z</time>
      </trkpt>
      <trkpt lat="45.05794" lon="5.48121">
        <ele>1263.23177244</ele>
        <time>2021-02-18T11:00:15Z</time>
      </trkpt>
      <trkpt lat="45.0579" lon="5.48111">
        <ele>1263.2316012</ele>
        <time>2021-02-18T11:00:20Z</time>
      </trkpt>
      <trkpt lat="45.05786" lon="5.48101">
        <ele>1262.23143592</ele>
        <time>2021-02-18T11:00:25Z</time>
      </trkpt>
      <trkpt lat="45.05783" lon="5.4809">
        <ele>1262.23133228</ele>
        <time>2021-02-18T11:00:34Z</time>
      </trkpt>
      <trkpt lat="45.05779" lon="5.48079">
        <ele>1258.231164</ele>
        <time>2021-02-18T11:00:40Z</time>
      </trkpt>
      <trkpt lat="45.05775" lon="5.48069">
        <ele>1259.23101664</ele>
        <time>2021-02-18T11:00:48Z</time>
      </trkpt>
      <trkpt lat="45.05772" lon="5.48062">
        <ele>1260.23089156</ele>
        <time>2021-02-18T11:00:54Z</time>
      </trkpt>
      <trkpt lat="45.05768" lon="5.4805">
        <ele>1260.23070644</ele>
        <time>2021-02-18T11:00:58Z</time>
      </trkpt>
      <trkpt lat="45.05762" lon="5.48041">
        <ele>1259.23047952</ele>
        <time>2021-02-18T11:01:04Z</time>
      </trkpt>
      <trkpt lat="45.05761" lon="5.48029">
        <ele>1261.23043004</ele>
        <time>2021-02-18T11:01:10Z</time>
      </trkpt>
      <trkpt lat="45.05759" lon="5.48018">
        <ele>1261.2303502</ele>
        <time>2021-02-18T11:01:15Z</time>
      </trkpt>
      <trkpt lat="45.05755" lon="5.48009">
        <ele>1257.23019012</ele>
        <time>2021-02-18T11:01:20Z</time>
      </trkpt>
      <trkpt lat="45.05751" lon="5.47997">
        <ele>1254.23003168</ele>
        <time>2021-02-18T11:01:26Z</time>
      </trkpt>
      <trkpt lat="45.05748" lon="5.47986">
        <ele>1255.22990704</ele>
        <time>2021-02-18T11:01:31Z</time>
      </trkpt>
      <trkpt lat="45.05746" lon="5.47974">
        <ele>1251.2298326</ele>
        <time>2021-02-18T11:01:35Z</time>
      </trkpt>
      <trkpt lat="45.05743" lon="5.47964">
        <ele>1247.22971652</ele>
        <time>2021-02-18T11:01:40Z</time>
      </trkpt>
      <trkpt lat="45.0574" lon="5.47952">
        <ele>1246.22960912</ele>
        <time>2021-02-18T11:01:45Z</time>
      </trkpt>
      <trkpt lat="45.05736" lon="5.47943">
        <ele>1243.22944824</ele>
        <time>2021-02-18T11:01:50Z</time>
      </trkpt>
      <trkpt lat="45.05733" lon="5.47933">
        <ele>1243.22930176</ele>
        <time>2021-02-18T11:01:56Z</time>
      </trkpt>
      <trkpt lat="45.05729" lon="5.47921">
        <ele>1240.22913912</ele>
        <time>2021-02-18T11:02:03Z</time>
      </trkpt>
      <trkpt lat="45.05726" lon="5.47909">
        <ele>1242.22902252</ele>
        <time>2021-02-18T11:02:08Z</time>
      </trkpt>
      <trkpt lat="45.05722" lon="5.47898">
        <ele>1247.22889016</ele>
        <time>2021-02-18T11:02:14Z</time>
      </trkpt>
      <trkpt lat="45.05717" lon="5.47888">
        <ele>1245.22869768</ele>
        <time>2021-02-18T11:02:20Z</time>
      </trkpt>
      <trkpt lat="45.05714" lon="5.47876">
        <ele>1238.22855876</ele>
        <time>2021-02-18T11:02:28Z</time>
      </trkpt>
      <trkpt lat="45.05709" lon="5.47867">
        <ele>1239.22835892</ele>
        <time>2021-02-18T11:06:47Z</time>
      </trkpt>
      <trkpt lat="45.05702" lon="5.47859">
        <ele>1246.22809788</ele>
        <time>2021-02-18T11:06:56Z</time>
      </trkpt>
      <trkpt lat="45.05698" lon="5.47848">
        <ele>1245.2279152</ele>
        <time>2021-02-18T11:07:01Z</time>
      </trkpt>
      <trkpt lat="45.05694" lon="5.47838">
        <ele>1245.2277704</ele>
        <time>2021-02-18T11:07:08Z</time>
      </trkpt>
      <trkpt lat="45.05688" lon="5.47831">
        <ele>1245.22753752</ele>
        <time>2021-02-18T11:07:14Z</time>
      </trkpt>
      <trkpt lat="45.05684" lon="5.47818">
        <ele>1244.22735548</ele>
        <time>2021-02-18T11:07:19Z</time>
      </trkpt>
      <trkpt lat="45.05677" lon="5.4781">
        <ele>1243.22709432</ele>
        <time>2021-02-18T11:07:24Z</time>
      </trkpt>
      <trkpt lat="45.05671" lon="5.47804">
        <ele>1246.22682208</ele>
        <time>2021-02-18T11:07:31Z</time>
      </trkpt>
      <trkpt lat="45.05666" lon="5.47793">
        <ele>1248.22663768</ele>
        <time>2021-02-18T11:07:35Z</time>
      </trkpt>
      <trkpt lat="45.05658" lon="5.47788">
        <ele>1249.22632384</ele>
        <time>2021-02-18T11:07:40Z</time>
      </trkpt>
      <trkpt lat="45.0565" lon="5.47782">
        <ele>1247.22600212</ele>
        <time>2021-02-18T11:07:45Z</time>
      </trkpt>
      <trkpt lat="45.05644" lon="5.47773">
        <ele>1246.2257696</ele>
        <time>2021-02-18T11:07:50Z</time>
      </trkpt>
      <trkpt lat="45.05637" lon="5.47765">
        <ele>1246.225477</ele>
        <time>2021-02-18T11:07:55Z</time>
      </trkpt>
      <trkpt lat="45.05632" lon="5.47756">
        <ele>1249.22526404</ele>
        <time>2021-02-18T11:08:01Z</time>
      </trkpt>
      <trkpt lat="45.05626" lon="5.47748">
        <ele>1246.2250482</ele>
        <time>2021-02-18T11:08:07Z</time>
      </trkpt>
      <trkpt lat="45.05622" lon="5.4774">
        <ele>1244.22487588</ele>
        <time>2021-02-18T11:08:12Z</time>
      </trkpt>
      <trkpt lat="45.05614" lon="5.47736">
        <ele>1242.2245672</ele>
        <time>2021-02-18T11:08:16Z</time>
      </trkpt>
      <trkpt lat="45.05606" lon="5.47732">
        <ele>1240.22421844</ele>
        <time>2021-02-18T11:08:21Z</time>
      </trkpt>
      <trkpt lat="45.05599" lon="5.47725">
        <ele>1245.2239578</ele>
        <time>2021-02-18T11:08:27Z</time>
      </trkpt>
      <trkpt lat="45.05592" lon="5.47718">
        <ele>1249.223675</ele>
        <time>2021-02-18T11:08:33Z</time>
      </trkpt>
      <trkpt lat="45.05585" lon="5.4771">
        <ele>1253.2234058</ele>
        <time>2021-02-18T11:08:39Z</time>
      </trkpt>
      <trkpt lat="45.0558" lon="5.477">
        <ele>1253.22320028</ele>
        <time>2021-02-18T11:08:47Z</time>
      </trkpt>
      <trkpt lat="45.05573" lon="5.47693">
        <ele>1252.22291068</ele>
        <time>2021-02-18T11:08:53Z</time>
      </trkpt>
      <trkpt lat="45.05566" lon="5.47685">
        <ele>1250.2226312</ele>
        <time>2021-02-18T11:08:59Z</time>
      </trkpt>
      <trkpt lat="45.0556" lon="5.47678">
        <ele>1256.2223854</ele>
        <time>2021-02-18T11:09:04Z</time>
      </trkpt>
      <trkpt lat="45.05556" lon="5.47668">
        <ele>1253.22223884</ele>
        <time>2021-02-18T11:09:09Z</time>
      </trkpt>
      <trkpt lat="45.05552" lon="5.47658">
        <ele>1255.22207384</ele>
        <time>2021-02-18T11:09:44Z</time>
      </trkpt>
      <trkpt lat="45.05545" lon="5.47653">
        <ele>1255.22181536</ele>
        <time>2021-02-18T11:09:50Z</time>
      </trkpt>
      <trkpt lat="45.05537" lon="5.4765">
        <ele>1250.2214776</ele>
        <time>2021-02-18T11:09:57Z</time>
      </trkpt>
      <trkpt lat="45.05531" lon="5.4765">
        <ele>1248.22123856</ele>
        <time>2021-02-18T11:10:01Z</time>
      </trkpt>
      <trkpt lat="45.05522" lon="5.47648">
        <ele>1246.22089</ele>
        <time>2021-02-18T11:10:05Z</time>
      </trkpt>
      <trkpt lat="45.05515" lon="5.47641">
        <ele>1247.22061652</ele>
        <time>2021-02-18T11:10:13Z</time>
      </trkpt>
      <trkpt lat="45.05508" lon="5.47641">
        <ele>1248.220309</ele>
        <time>2021-02-18T11:10:19Z</time>
      </trkpt>
      <trkpt lat="45.05499" lon="5.4764">
        <ele>1248.21996108</ele>
        <time>2021-02-18T11:10:24Z</time>
      </trkpt>
      <trkpt lat="45.05492" lon="5.47634">
        <ele>1250.21966568</ele>
        <time>2021-02-18T11:10:30Z</time>
      </trkpt>
      <trkpt lat="45.05483" lon="5.47634">
        <ele>1253.21932776</ele>
        <time>2021-02-18T11:10:36Z</time>
      </trkpt>
      <trkpt lat="45.05475" lon="5.47631">
        <ele>1255.21901084</ele>
        <time>2021-02-18T11:10:42Z</time>
      </trkpt>
      <trkpt lat="45.05467" lon="5.47633">
        <ele>1267.21866676</ele>
        <time>2021-02-18T11:10:54Z</time>
      </trkpt>
      <trkpt lat="45.0546" lon="5.47634">
        <ele>1275.21838992</ele>
        <time>2021-02-18T11:10:59Z</time>
      </trkpt>
      <trkpt lat="45.05452" lon="5.47635">
        <ele>1281.21806672</ele>
        <time>2021-02-18T11:11:04Z</time>
      </trkpt>
      <trkpt lat="45.05444" lon="5.47635">
        <ele>1282.21774784</ele>
        <time>2021-02-18T11:11:09Z</time>
      </trkpt>
      <trkpt lat="45.05437" lon="5.4763">
        <ele>1285.21746884</ele>
        <time>2021-02-18T11:11:17Z</time>
      </trkpt>
      <trkpt lat="45.05428" lon="5.47627">
        <ele>1281.21711736</ele>
        <time>2021-02-18T11:11:21Z</time>
      </trkpt>
      <trkpt lat="45.05421" lon="5.47623">
        <ele>1281.21683252</ele>
        <time>2021-02-18T11:11:26Z</time>
      </trkpt>
      <trkpt lat="45.05414" lon="5.47619">
        <ele>1283.21653896</ele>
        <time>2021-02-18T11:11:31Z</time>
      </trkpt>
      <trkpt lat="45.05406" lon="5.47615">
        <ele>1286.21622812</ele>
        <time>2021-02-18T11:11:38Z</time>
      </trkpt>
      <trkpt lat="45.05398" lon="5.47615">
        <ele>1280.21593336</ele>
        <time>2021-02-18T11:11:44Z</time>
      </trkpt>
      <trkpt lat="45.05391" lon="5.47609">
        <ele>1282.21565072</ele>
        <time>2021-02-18T11:11:50Z</time>
      </trkpt>
      <trkpt lat="45.05383" lon="5.47606">
        <ele>1284.215303</ele>
        <time>2021-02-18T11:11:56Z</time>
      </trkpt>
      <trkpt lat="45.05375" lon="5.47604">
        <ele>1287.2149942</ele>
        <time>2021-02-18T11:12:05Z</time>
      </trkpt>
      <trkpt lat="45.05366" lon="5.47603">
        <ele>1288.2146484</ele>
        <time>2021-02-18T11:12:12Z</time>
      </trkpt>
      <trkpt lat="45.05359" lon="5.47596">
        <ele>1287.2143544</ele>
        <time>2021-02-18T11:12:19Z</time>
      </trkpt>
      <trkpt lat="45.05352" lon="5.47588">
        <ele>1286.21409464</ele>
        <time>2021-02-18T11:12:27Z</time>
      </trkpt>
      <trkpt lat="45.05344" lon="5.47586">
        <ele>1285.2137746</ele>
        <time>2021-02-18T11:12:32Z</time>
      </trkpt>
      <trkpt lat="45.05337" lon="5.4758">
        <ele>1286.2134954</ele>
        <time>2021-02-18T11:12:39Z</time>
      </trkpt>
      <trkpt lat="45.0533" lon="5.47575">
        <ele>1287.21319192</ele>
        <time>2021-02-18T11:12:46Z</time>
      </trkpt>
      <trkpt lat="45.05324" lon="5.47567">
        <ele>1288.21295512</ele>
        <time>2021-02-18T11:12:53Z</time>
      </trkpt>
      <trkpt lat="45.05317" lon="5.47562">
        <ele>1288.21267628</ele>
        <time>2021-02-18T11:12:58Z</time>
      </trkpt>
      <trkpt lat="45.0531" lon="5.47557">
        <ele>1291.2124034</ele>
        <time>2021-02-18T11:13:02Z</time>
      </trkpt>
      <trkpt lat="45.05303" lon="5.4755">
        <ele>1293.21213048</ele>
        <time>2021-02-18T11:13:09Z</time>
      </trkpt>
      <trkpt lat="45.05295" lon="5.47551">
        <ele>1301.21179752</ele>
        <time>2021-02-18T11:13:21Z</time>
      </trkpt>
      <trkpt lat="45.05287" lon="5.47547">
        <ele>1301.2114664</ele>
        <time>2021-02-18T11:13:27Z</time>
      </trkpt>
      <trkpt lat="45.05279" lon="5.47542">
        <ele>1305.2111602</ele>
        <time>2021-02-18T11:13:36Z</time>
      </trkpt>
      <trkpt lat="45.05272" lon="5.47538">
        <ele>1310.2108752</ele>
        <time>2021-02-18T11:13:47Z</time>
      </trkpt>
      <trkpt lat="45.05265" lon="5.47535">
        <ele>1311.2105884</ele>
        <time>2021-02-18T11:13:52Z</time>
      </trkpt>
      <trkpt lat="45.05257" lon="5.47533">
        <ele>1314.210293</ele>
        <time>2021-02-18T11:13:59Z</time>
      </trkpt>
      <trkpt lat="45.05249" lon="5.47534">
        <ele>1322.20996268</ele>
        <time>2021-02-18T11:14:07Z</time>
      </trkpt>
      <trkpt lat="45.05241" lon="5.47529">
        <ele>1321.20963896</ele>
        <time>2021-02-18T11:14:13Z</time>
      </trkpt>
      <trkpt lat="45.05233" lon="5.47526">
        <ele>1320.2093138</ele>
        <time>2021-02-18T11:14:21Z</time>
      </trkpt>
      <trkpt lat="45.05225" lon="5.47523">
        <ele>1315.2090068</ele>
        <time>2021-02-18T11:14:26Z</time>
      </trkpt>
      <trkpt lat="45.05218" lon="5.47517">
        <ele>1313.2086992</ele>
        <time>2021-02-18T11:14:30Z</time>
      </trkpt>
      <trkpt lat="45.05209" lon="5.47513">
        <ele>1311.20836496</ele>
        <time>2021-02-18T11:14:37Z</time>
      </trkpt>
      <trkpt lat="45.05201" lon="5.47505">
        <ele>1306.20804624</ele>
        <time>2021-02-18T11:14:42Z</time>
      </trkpt>
      <trkpt lat="45.05194" lon="5.475">
        <ele>1305.20775172</ele>
        <time>2021-02-18T11:14:47Z</time>
      </trkpt>
      <trkpt lat="45.05187" lon="5.47494">
        <ele>1304.20746756</ele>
        <time>2021-02-18T11:14:52Z</time>
      </trkpt>
      <trkpt lat="45.0518" lon="5.47487">
        <ele>1306.20720548</ele>
        <time>2021-02-18T11:14:58Z</time>
      </trkpt>
      <trkpt lat="45.05173" lon="5.47484">
        <ele>1303.20691872</ele>
        <time>2021-02-18T11:15:04Z</time>
      </trkpt>
      <trkpt lat="45.05166" lon="5.47479">
        <ele>1302.2066362</ele>
        <time>2021-02-18T11:15:11Z</time>
      </trkpt>
      <trkpt lat="45.05158" lon="5.47474">
        <ele>1308.20631792</ele>
        <time>2021-02-18T11:15:19Z</time>
      </trkpt>
      <trkpt lat="45.05151" lon="5.47468">
        <ele>1307.20602068</ele>
        <time>2021-02-18T11:16:04Z</time>
      </trkpt>
      <trkpt lat="45.05145" lon="5.47458">
        <ele>1307.20580116</ele>
        <time>2021-02-18T11:17:02Z</time>
      </trkpt>
      <trkpt lat="45.0514" lon="5.47449">
        <ele>1308.20561584</ele>
        <time>2021-02-18T11:17:10Z</time>
      </trkpt>
      <trkpt lat="45.05134" lon="5.47442">
        <ele>1307.20536024</ele>
        <time>2021-02-18T11:17:17Z</time>
      </trkpt>
      <trkpt lat="45.05128" lon="5.47433">
        <ele>1304.20512428</ele>
        <time>2021-02-18T11:17:23Z</time>
      </trkpt>
      <trkpt lat="45.0512" lon="5.47432">
        <ele>1306.20478884</ele>
        <time>2021-02-18T11:17:31Z</time>
      </trkpt>
      <trkpt lat="45.05111" lon="5.47432">
        <ele>1308.20445624</ele>
        <time>2021-02-18T11:17:40Z</time>
      </trkpt>
      <trkpt lat="45.05104" lon="5.47432">
        <ele>1309.20414684</ele>
        <time>2021-02-18T11:17:45Z</time>
      </trkpt>
      <trkpt lat="45.05096" lon="5.47437">
        <ele>1312.2038354</ele>
        <time>2021-02-18T11:17:50Z</time>
      </trkpt>
      <trkpt lat="45.05089" lon="5.47439">
        <ele>1313.20357636</ele>
        <time>2021-02-18T11:17:57Z</time>
      </trkpt>
      <trkpt lat="45.05082" lon="5.47437">
        <ele>1313.20325956</ele>
        <time>2021-02-18T11:18:02Z</time>
      </trkpt>
      <trkpt lat="45.05073" lon="5.4744">
        <ele>1314.20292904</ele>
        <time>2021-02-18T11:18:10Z</time>
      </trkpt>
      <trkpt lat="45.05066" lon="5.47439">
        <ele>1318.20262168</ele>
        <time>2021-02-18T11:18:14Z</time>
      </trkpt>
      <trkpt lat="45.05058" lon="5.47437">
        <ele>1317.20230748</ele>
        <time>2021-02-18T11:18:19Z</time>
      </trkpt>
      <trkpt lat="45.05051" lon="5.47446">
        <ele>1323.20205584</ele>
        <time>2021-02-18T11:18:27Z</time>
      </trkpt>
      <trkpt lat="45.05043" lon="5.47446">
        <ele>1325.2017144</ele>
        <time>2021-02-18T11:18:32Z</time>
      </trkpt>
      <trkpt lat="45.05035" lon="5.47444">
        <ele>1325.20139808</ele>
        <time>2021-02-18T11:18:38Z</time>
      </trkpt>
      <trkpt lat="45.05027" lon="5.47444">
        <ele>1328.20108628</ele>
        <time>2021-02-18T11:18:47Z</time>
      </trkpt>
      <trkpt lat="45.05019" lon="5.47443">
        <ele>1330.20073852</ele>
        <time>2021-02-18T11:18:53Z</time>
      </trkpt>
      <trkpt lat="45.0501" lon="5.47442">
        <ele>1333.20039684</ele>
        <time>2021-02-18T11:19:02Z</time>
      </trkpt>
      <trkpt lat="45.05001" lon="5.4744">
        <ele>1333.20004692</ele>
        <time>2021-02-18T11:19:09Z</time>
      </trkpt>
      <trkpt lat="45.04992" lon="5.47439">
        <ele>1332.19969432</ele>
        <time>2021-02-18T11:19:15Z</time>
      </trkpt>
      <trkpt lat="45.04985" lon="5.47436">
        <ele>1334.1993912</ele>
        <time>2021-02-18T11:19:21Z</time>
      </trkpt>
      <trkpt lat="45.04977" lon="5.47432">
        <ele>1332.19906372</ele>
        <time>2021-02-18T11:19:27Z</time>
      </trkpt>
      <trkpt lat="45.04969" lon="5.47432">
        <ele>1335.19874532</ele>
        <time>2021-02-18T11:19:34Z</time>
      </trkpt>
      <trkpt lat="45.0496" lon="5.47431">
        <ele>1336.19838992</ele>
        <time>2021-02-18T11:19:43Z</time>
      </trkpt>
      <trkpt lat="45.04951" lon="5.4743">
        <ele>1340.19803288</ele>
        <time>2021-02-18T11:19:50Z</time>
      </trkpt>
      <trkpt lat="45.04944" lon="5.47427">
        <ele>1337.19774784</ele>
        <time>2021-02-18T11:19:55Z</time>
      </trkpt>
      <trkpt lat="45.04936" lon="5.47426">
        <ele>1337.19744652</ele>
        <time>2021-02-18T11:20:00Z</time>
      </trkpt>
      <trkpt lat="45.04928" lon="5.47422">
        <ele>1339.19713788</ele>
        <time>2021-02-18T11:20:08Z</time>
      </trkpt>
      <trkpt lat="45.0492" lon="5.47421">
        <ele>1341.19681084</ele>
        <time>2021-02-18T11:20:19Z</time>
      </trkpt>
      <trkpt lat="45.04913" lon="5.47419">
        <ele>1343.1965026</ele>
        <time>2021-02-18T11:20:27Z</time>
      </trkpt>
      <trkpt lat="45.04904" lon="5.47421">
        <ele>1346.19617732</ele>
        <time>2021-02-18T11:20:35Z</time>
      </trkpt>
      <trkpt lat="45.04897" lon="5.47422">
        <ele>1349.19585972</ele>
        <time>2021-02-18T11:20:45Z</time>
      </trkpt>
      <trkpt lat="45.04889" lon="5.47425">
        <ele>1349.19554848</ele>
        <time>2021-02-18T11:20:50Z</time>
      </trkpt>
      <trkpt lat="45.04881" lon="5.47428">
        <ele>1352.19522784</ele>
        <time>2021-02-18T11:20:57Z</time>
      </trkpt>
      <trkpt lat="45.04872" lon="5.47428">
        <ele>1352.19486924</ele>
        <time>2021-02-18T11:21:03Z</time>
      </trkpt>
      <trkpt lat="45.04864" lon="5.47427">
        <ele>1348.1945758</ele>
        <time>2021-02-18T11:22:07Z</time>
      </trkpt>
      <trkpt lat="45.04858" lon="5.47436">
        <ele>1356.19432896</ele>
        <time>2021-02-18T11:22:12Z</time>
      </trkpt>
      <trkpt lat="45.04851" lon="5.47442">
        <ele>1360.1940366</ele>
        <time>2021-02-18T11:22:20Z</time>
      </trkpt>
      <trkpt lat="45.04842" lon="5.47439">
        <ele>1362.19369028</ele>
        <time>2021-02-18T11:22:28Z</time>
      </trkpt>
      <trkpt lat="45.04835" lon="5.47443">
        <ele>1362.19338436</ele>
        <time>2021-02-18T11:22:33Z</time>
      </trkpt>
      <trkpt lat="45.04827" lon="5.47448">
        <ele>1358.19307524</ele>
        <time>2021-02-18T11:22:41Z</time>
      </trkpt>
      <trkpt lat="45.04819" lon="5.47452">
        <ele>1359.19274952</ele>
        <time>2021-02-18T11:22:49Z</time>
      </trkpt>
      <trkpt lat="45.04811" lon="5.47456">
        <ele>1360.19242236</ele>
        <time>2021-02-18T11:22:57Z</time>
      </trkpt>
      <trkpt lat="45.04802" lon="5.4746">
        <ele>1364.19209552</ele>
        <time>2021-02-18T11:23:04Z</time>
      </trkpt>
      <trkpt lat="45.04796" lon="5.4746">
        <ele>1365.1918184</ele>
        <time>2021-02-18T11:23:12Z</time>
      </trkpt>
      <trkpt lat="45.04787" lon="5.47464">
        <ele>1368.19147676</ele>
        <time>2021-02-18T11:23:23Z</time>
      </trkpt>
      <trkpt lat="45.04779" lon="5.47468">
        <ele>1367.19113944</ele>
        <time>2021-02-18T11:23:28Z</time>
      </trkpt>
      <trkpt lat="45.04769" lon="5.47476">
        <ele>1370.1907576</ele>
        <time>2021-02-18T11:23:33Z</time>
      </trkpt>
      <trkpt lat="45.0476" lon="5.47478">
        <ele>1370.19040324</ele>
        <time>2021-02-18T11:23:38Z</time>
      </trkpt>
      <trkpt lat="45.04752" lon="5.47474">
        <ele>1373.19009432</ele>
        <time>2021-02-18T11:23:44Z</time>
      </trkpt>
      <trkpt lat="45.04745" lon="5.47478">
        <ele>1373.18977808</ele>
        <time>2021-02-18T11:23:51Z</time>
      </trkpt>
      <trkpt lat="45.04737" lon="5.47485">
        <ele>1373.1894778</ele>
        <time>2021-02-18T11:23:57Z</time>
      </trkpt>
      <trkpt lat="45.0473" lon="5.47492">
        <ele>1374.1891972</ele>
        <time>2021-02-18T11:24:06Z</time>
      </trkpt>
      <trkpt lat="45.04723" lon="5.475">
        <ele>1373.18892584</ele>
        <time>2021-02-18T11:24:16Z</time>
      </trkpt>
      <trkpt lat="45.04717" lon="5.47501">
        <ele>1374.18868412</ele>
        <time>2021-02-18T11:24:21Z</time>
      </trkpt>
      <trkpt lat="45.04709" lon="5.47503">
        <ele>1373.1883742</ele>
        <time>2021-02-18T11:24:26Z</time>
      </trkpt>
      <trkpt lat="45.04703" lon="5.4751">
        <ele>1369.18810444</ele>
        <time>2021-02-18T11:24:40Z</time>
      </trkpt>
      <trkpt lat="45.04696" lon="5.47514">
        <ele>1370.1878212</ele>
        <time>2021-02-18T11:24:47Z</time>
      </trkpt>
      <trkpt lat="45.04687" lon="5.47517">
        <ele>1371.18747648</ele>
        <time>2021-02-18T11:24:53Z</time>
      </trkpt>
      <trkpt lat="45.04681" lon="5.47519">
        <ele>1372.18722452</ele>
        <time>2021-02-18T11:24:58Z</time>
      </trkpt>
      <trkpt lat="45.04673" lon="5.47526">
        <ele>1374.18691956</ele>
        <time>2021-02-18T11:25:03Z</time>
      </trkpt>
      <trkpt lat="45.04665" lon="5.4753">
        <ele>1377.18659952</ele>
        <time>2021-02-18T11:25:13Z</time>
      </trkpt>
      <trkpt lat="45.04658" lon="5.47533">
        <ele>1378.1862998</ele>
        <time>2021-02-18T11:25:20Z</time>
      </trkpt>
      <trkpt lat="45.04649" lon="5.47537">
        <ele>1374.18597424</ele>
        <time>2021-02-18T11:25:26Z</time>
      </trkpt>
      <trkpt lat="45.04642" lon="5.47543">
        <ele>1379.18566316</ele>
        <time>2021-02-18T11:25:31Z</time>
      </trkpt>
      <trkpt lat="45.04634" lon="5.47544">
        <ele>1380.18534588</ele>
        <time>2021-02-18T11:25:38Z</time>
      </trkpt>
      <trkpt lat="45.04625" lon="5.47545">
        <ele>1382.18499908</ele>
        <time>2021-02-18T11:25:43Z</time>
      </trkpt>
      <trkpt lat="45.04618" lon="5.47547">
        <ele>1382.18471552</ele>
        <time>2021-02-18T11:25:48Z</time>
      </trkpt>
      <trkpt lat="45.0461" lon="5.4755">
        <ele>1379.1843816</ele>
        <time>2021-02-18T11:25:54Z</time>
      </trkpt>
      <trkpt lat="45.04602" lon="5.47551">
        <ele>1380.18406076</ele>
        <time>2021-02-18T11:26:02Z</time>
      </trkpt>
      <trkpt lat="45.04594" lon="5.4755">
        <ele>1382.18377128</ele>
        <time>2021-02-18T11:26:09Z</time>
      </trkpt>
      <trkpt lat="45.04586" lon="5.47553">
        <ele>1382.1834448</ele>
        <time>2021-02-18T11:26:17Z</time>
      </trkpt>
      <trkpt lat="45.04578" lon="5.47556">
        <ele>1382.18310564</ele>
        <time>2021-02-18T11:26:23Z</time>
      </trkpt>
      <trkpt lat="45.04571" lon="5.47556">
        <ele>1382.18282704</ele>
        <time>2021-02-18T11:26:30Z</time>
      </trkpt>
      <trkpt lat="45.04562" lon="5.47559">
        <ele>1384.18248256</ele>
        <time>2021-02-18T11:26:38Z</time>
      </trkpt>
      <trkpt lat="45.04554" lon="5.47562">
        <ele>1382.18216984</ele>
        <time>2021-02-18T11:26:44Z</time>
      </trkpt>
      <trkpt lat="45.04547" lon="5.47565">
        <ele>1381.18186728</ele>
        <time>2021-02-18T11:26:49Z</time>
      </trkpt>
      <trkpt lat="45.04538" lon="5.47566">
        <ele>1384.1815204</ele>
        <time>2021-02-18T11:27:15Z</time>
      </trkpt>
      <trkpt lat="45.0453" lon="5.47569">
        <ele>1383.18119992</ele>
        <time>2021-02-18T11:27:52Z</time>
      </trkpt>
      <trkpt lat="45.04524" lon="5.47576">
        <ele>1380.18094756</ele>
        <time>2021-02-18T11:27:59Z</time>
      </trkpt>
      <trkpt lat="45.04517" lon="5.47577">
        <ele>1377.18067132</ele>
        <time>2021-02-18T11:28:06Z</time>
      </trkpt>
      <trkpt lat="45.04508" lon="5.47579">
        <ele>1376.18031572</ele>
        <time>2021-02-18T11:28:13Z</time>
      </trkpt>
      <trkpt lat="45.045" lon="5.47579">
        <ele>1375.18000164</ele>
        <time>2021-02-18T11:28:18Z</time>
      </trkpt>
      <trkpt lat="45.04492" lon="5.47581">
        <ele>1377.1796798</ele>
        <time>2021-02-18T11:28:24Z</time>
      </trkpt>
      <trkpt lat="45.04484" lon="5.47585">
        <ele>1377.17935008</ele>
        <time>2021-02-18T11:28:31Z</time>
      </trkpt>
      <trkpt lat="45.04476" lon="5.47587">
        <ele>1380.17902156</ele>
        <time>2021-02-18T11:28:37Z</time>
      </trkpt>
      <trkpt lat="45.04467" lon="5.47584">
        <ele>1378.17869392</ele>
        <time>2021-02-18T11:28:43Z</time>
      </trkpt>
      <trkpt lat="45.04458" lon="5.47586">
        <ele>1382.17832972</ele>
        <time>2021-02-18T11:28:47Z</time>
      </trkpt>
      <trkpt lat="45.04449" lon="5.47585">
        <ele>1379.177971</ele>
        <time>2021-02-18T11:28:52Z</time>
      </trkpt>
      <trkpt lat="45.04439" lon="5.47586">
        <ele>1380.17755944</ele>
        <time>2021-02-18T11:28:57Z</time>
      </trkpt>
      <trkpt lat="45.04431" lon="5.47587">
        <ele>1378.17722336</ele>
        <time>2021-02-18T11:29:03Z</time>
      </trkpt>
      <trkpt lat="45.04424" lon="5.47591">
        <ele>1378.17694576</ele>
        <time>2021-02-18T11:29:07Z</time>
      </trkpt>
      <trkpt lat="45.04415" lon="5.47591">
        <ele>1379.17658688</ele>
        <time>2021-02-18T11:29:12Z</time>
      </trkpt>
      <trkpt lat="45.04408" lon="5.47592">
        <ele>1374.1763072</ele>
        <time>2021-02-18T11:29:17Z</time>
      </trkpt>
      <trkpt lat="45.044" lon="5.47592">
        <ele>1374.1760026</ele>
        <time>2021-02-18T11:29:21Z</time>
      </trkpt>
      <trkpt lat="45.04392" lon="5.47594">
        <ele>1373.17567648</ele>
        <time>2021-02-18T11:29:29Z</time>
      </trkpt>
      <trkpt lat="45.04383" lon="5.47598">
        <ele>1373.1753252</ele>
        <time>2021-02-18T11:29:34Z</time>
      </trkpt>
      <trkpt lat="45.04375" lon="5.47597">
        <ele>1371.17498732</ele>
        <time>2021-02-18T11:29:40Z</time>
      </trkpt>
      <trkpt lat="45.04366" lon="5.47596">
        <ele>1370.1746346</ele>
        <time>2021-02-18T11:29:46Z</time>
      </trkpt>
      <trkpt lat="45.04358" lon="5.47594">
        <ele>1373.17430188</ele>
        <time>2021-02-18T11:29:55Z</time>
      </trkpt>
      <trkpt lat="45.04349" lon="5.47596">
        <ele>1375.17396972</ele>
        <time>2021-02-18T11:32:30Z</time>
      </trkpt>
      <trkpt lat="45.04341" lon="5.476">
        <ele>1373.17363968</ele>
        <time>2021-02-18T11:32:35Z</time>
      </trkpt>
      <trkpt lat="45.04334" lon="5.47605">
        <ele>1372.17334292</ele>
        <time>2021-02-18T11:32:40Z</time>
      </trkpt>
      <trkpt lat="45.04325" lon="5.47609">
        <ele>1373.17301396</ele>
        <time>2021-02-18T11:32:44Z</time>
      </trkpt>
      <trkpt lat="45.04314" lon="5.47612">
        <ele>1372.1725422</ele>
        <time>2021-02-18T11:32:49Z</time>
      </trkpt>
      <trkpt lat="45.04305" lon="5.47613">
        <ele>1369.1721896</ele>
        <time>2021-02-18T11:32:53Z</time>
      </trkpt>
      <trkpt lat="45.04292" lon="5.4762">
        <ele>1369.1716622</ele>
        <time>2021-02-18T11:32:58Z</time>
      </trkpt>
      <trkpt lat="45.04282" lon="5.47624">
        <ele>1368.17126168</ele>
        <time>2021-02-18T11:33:02Z</time>
      </trkpt>
      <trkpt lat="45.04267" lon="5.47627">
        <ele>1363.17068204</ele>
        <time>2021-02-18T11:33:07Z</time>
      </trkpt>
      <trkpt lat="45.04257" lon="5.47633">
        <ele>1365.1702806</ele>
        <time>2021-02-18T11:33:11Z</time>
      </trkpt>
      <trkpt lat="45.04248" lon="5.4764">
        <ele>1365.16993716</ele>
        <time>2021-02-18T11:33:15Z</time>
      </trkpt>
      <trkpt lat="45.04238" lon="5.47648">
        <ele>1364.16951184</ele>
        <time>2021-02-18T11:33:19Z</time>
      </trkpt>
      <trkpt lat="45.04229" lon="5.47658">
        <ele>1363.16914684</ele>
        <time>2021-02-18T11:33:24Z</time>
      </trkpt>
      <trkpt lat="45.0422" lon="5.47662">
        <ele>1363.1687998</ele>
        <time>2021-02-18T11:33:28Z</time>
      </trkpt>
      <trkpt lat="45.04212" lon="5.47665">
        <ele>1365.1684606</ele>
        <time>2021-02-18T11:33:34Z</time>
      </trkpt>
      <trkpt lat="45.04203" lon="5.47667">
        <ele>1368.16811504</ele>
        <time>2021-02-18T11:33:40Z</time>
      </trkpt>
      <trkpt lat="45.04191" lon="5.47666">
        <ele>1365.16764124</ele>
        <time>2021-02-18T11:33:45Z</time>
      </trkpt>
      <trkpt lat="45.04181" lon="5.47669">
        <ele>1366.16722328</ele>
        <time>2021-02-18T11:33:49Z</time>
      </trkpt>
      <trkpt lat="45.0417" lon="5.47674">
        <ele>1367.16679364</ele>
        <time>2021-02-18T11:33:53Z</time>
      </trkpt>
      <trkpt lat="45.04161" lon="5.47674">
        <ele>1367.16643664</ele>
        <time>2021-02-18T11:33:57Z</time>
      </trkpt>
      <trkpt lat="45.0415" lon="5.47674">
        <ele>1366.16598236</ele>
        <time>2021-02-18T11:34:01Z</time>
      </trkpt>
      <trkpt lat="45.04139" lon="5.47675">
        <ele>1369.16556256</ele>
        <time>2021-02-18T11:34:05Z</time>
      </trkpt>
      <trkpt lat="45.04129" lon="5.4768">
        <ele>1372.16517212</ele>
        <time>2021-02-18T11:34:09Z</time>
      </trkpt>
      <trkpt lat="45.04116" lon="5.47686">
        <ele>1370.16463524</ele>
        <time>2021-02-18T11:34:14Z</time>
      </trkpt>
      <trkpt lat="45.04104" lon="5.47692">
        <ele>1372.16415664</ele>
        <time>2021-02-18T11:34:18Z</time>
      </trkpt>
      <trkpt lat="45.04091" lon="5.47695">
        <ele>1366.16365028</ele>
        <time>2021-02-18T11:34:22Z</time>
      </trkpt>
      <trkpt lat="45.04076" lon="5.47697">
        <ele>1364.16305016</ele>
        <time>2021-02-18T11:34:27Z</time>
      </trkpt>
      <trkpt lat="45.04066" lon="5.477">
        <ele>1362.1626478</ele>
        <time>2021-02-18T11:34:31Z</time>
      </trkpt>
      <trkpt lat="45.04056" lon="5.47708">
        <ele>1361.16224116</ele>
        <time>2021-02-18T11:34:35Z</time>
      </trkpt>
      <trkpt lat="45.04046" lon="5.47717">
        <ele>1361.161842</ele>
        <time>2021-02-18T11:34:39Z</time>
      </trkpt>
      <trkpt lat="45.04041" lon="5.47727">
        <ele>1363.16164052</ele>
        <time>2021-02-18T11:34:43Z</time>
      </trkpt>
      <trkpt lat="45.04029" lon="5.47734">
        <ele>1361.16116244</ele>
        <time>2021-02-18T11:34:47Z</time>
      </trkpt>
      <trkpt lat="45.04011" lon="5.47735">
        <ele>1357.1604332</ele>
        <time>2021-02-18T11:34:51Z</time>
      </trkpt>
      <trkpt lat="45.03995" lon="5.47743">
        <ele>1355.15980928</ele>
        <time>2021-02-18T11:34:56Z</time>
      </trkpt>
      <trkpt lat="45.03982" lon="5.47747">
        <ele>1358.15929732</ele>
        <time>2021-02-18T11:35:00Z</time>
      </trkpt>
      <trkpt lat="45.03969" lon="5.47752">
        <ele>1354.15875092</ele>
        <time>2021-02-18T11:35:05Z</time>
      </trkpt>
      <trkpt lat="45.03955" lon="5.47755">
        <ele>1348.15820572</ele>
        <time>2021-02-18T11:35:09Z</time>
      </trkpt>
      <trkpt lat="45.0394" lon="5.47766">
        <ele>1349.15759896</ele>
        <time>2021-02-18T11:35:14Z</time>
      </trkpt>
      <trkpt lat="45.03921" lon="5.47772">
        <ele>1343.15683844</ele>
        <time>2021-02-18T11:35:18Z</time>
      </trkpt>
      <trkpt lat="45.03908" lon="5.47776">
        <ele>1340.15632928</ele>
        <time>2021-02-18T11:35:22Z</time>
      </trkpt>
      <trkpt lat="45.03891" lon="5.47779">
        <ele>1338.15562448</ele>
        <time>2021-02-18T11:35:27Z</time>
      </trkpt>
      <trkpt lat="45.03877" lon="5.47781">
        <ele>1335.15507892</ele>
        <time>2021-02-18T11:35:31Z</time>
      </trkpt>
      <trkpt lat="45.03867" lon="5.47786">
        <ele>1338.154675</ele>
        <time>2021-02-18T11:35:35Z</time>
      </trkpt>
      <trkpt lat="45.03857" lon="5.47789">
        <ele>1337.15427296</ele>
        <time>2021-02-18T11:35:39Z</time>
      </trkpt>
      <trkpt lat="45.03846" lon="5.47793">
        <ele>1335.15383088</ele>
        <time>2021-02-18T11:35:44Z</time>
      </trkpt>
      <trkpt lat="45.03839" lon="5.47798">
        <ele>1336.15357396</ele>
        <time>2021-02-18T11:35:48Z</time>
      </trkpt>
      <trkpt lat="45.03827" lon="5.47803">
        <ele>1337.15307472</ele>
        <time>2021-02-18T11:35:53Z</time>
      </trkpt>
      <trkpt lat="45.03818" lon="5.47807">
        <ele>1335.15273616</ele>
        <time>2021-02-18T11:35:57Z</time>
      </trkpt>
      <trkpt lat="45.03809" lon="5.4781">
        <ele>1335.15234848</ele>
        <time>2021-02-18T11:36:02Z</time>
      </trkpt>
      <trkpt lat="45.03801" lon="5.47814">
        <ele>1337.15204932</ele>
        <time>2021-02-18T11:36:07Z</time>
      </trkpt>
      <trkpt lat="45.03794" lon="5.47818">
        <ele>1332.15176316</ele>
        <time>2021-02-18T11:36:11Z</time>
      </trkpt>
      <trkpt lat="45.03782" lon="5.47827">
        <ele>1333.15128944</ele>
        <time>2021-02-18T11:36:16Z</time>
      </trkpt>
      <trkpt lat="45.03775" lon="5.47833">
        <ele>1332.15098036</ele>
        <time>2021-02-18T11:36:22Z</time>
      </trkpt>
      <trkpt lat="45.03767" lon="5.47839">
        <ele>1330.15068452</ele>
        <time>2021-02-18T11:36:27Z</time>
      </trkpt>
      <trkpt lat="45.03759" lon="5.47846">
        <ele>1330.15034168</ele>
        <time>2021-02-18T11:36:32Z</time>
      </trkpt>
      <trkpt lat="45.03751" lon="5.47853">
        <ele>1334.15002264</ele>
        <time>2021-02-18T11:36:36Z</time>
      </trkpt>
      <trkpt lat="45.03744" lon="5.4786">
        <ele>1331.14975744</ele>
        <time>2021-02-18T11:36:41Z</time>
      </trkpt>
      <trkpt lat="45.03737" lon="5.47865">
        <ele>1331.1494966</ele>
        <time>2021-02-18T11:36:45Z</time>
      </trkpt>
      <trkpt lat="45.0373" lon="5.47872">
        <ele>1329.14920628</ele>
        <time>2021-02-18T11:36:50Z</time>
      </trkpt>
      <trkpt lat="45.03724" lon="5.47878">
        <ele>1329.14894508</ele>
        <time>2021-02-18T11:36:55Z</time>
      </trkpt>
      <trkpt lat="45.03713" lon="5.47886">
        <ele>1326.14853608</ele>
        <time>2021-02-18T11:37:00Z</time>
      </trkpt>
      <trkpt lat="45.03707" lon="5.47891">
        <ele>1325.14826824</ele>
        <time>2021-02-18T11:37:04Z</time>
      </trkpt>
      <trkpt lat="45.03702" lon="5.47902">
        <ele>1323.14807808</ele>
        <time>2021-02-18T11:37:09Z</time>
      </trkpt>
      <trkpt lat="45.03695" lon="5.47909">
        <ele>1321.14778276</ele>
        <time>2021-02-18T11:37:14Z</time>
      </trkpt>
      <trkpt lat="45.03688" lon="5.47917">
        <ele>1319.14752912</ele>
        <time>2021-02-18T11:37:19Z</time>
      </trkpt>
      <trkpt lat="45.03682" lon="5.47922">
        <ele>1319.14729072</ele>
        <time>2021-02-18T11:37:23Z</time>
      </trkpt>
      <trkpt lat="45.03676" lon="5.47931">
        <ele>1320.1470504</ele>
        <time>2021-02-18T11:37:28Z</time>
      </trkpt>
      <trkpt lat="45.0367" lon="5.47939">
        <ele>1320.14680668</ele>
        <time>2021-02-18T11:37:32Z</time>
      </trkpt>
      <trkpt lat="45.03663" lon="5.47947">
        <ele>1319.14652632</ele>
        <time>2021-02-18T11:37:37Z</time>
      </trkpt>
      <trkpt lat="45.03656" lon="5.47953">
        <ele>1319.14622396</ele>
        <time>2021-02-18T11:37:43Z</time>
      </trkpt>
      <trkpt lat="45.03649" lon="5.47961">
        <ele>1318.14597232</ele>
        <time>2021-02-18T11:37:59Z</time>
      </trkpt>
      <trkpt lat="45.03643" lon="5.47965">
        <ele>1319.14570432</ele>
        <time>2021-02-18T11:38:03Z</time>
      </trkpt>
      <trkpt lat="45.0363" lon="5.47969">
        <ele>1318.14518712</ele>
        <time>2021-02-18T11:38:08Z</time>
      </trkpt>
      <trkpt lat="45.03616" lon="5.47971">
        <ele>1317.14462852</ele>
        <time>2021-02-18T11:38:13Z</time>
      </trkpt>
      <trkpt lat="45.03603" lon="5.47972">
        <ele>1315.144119</ele>
        <time>2021-02-18T11:38:17Z</time>
      </trkpt>
      <trkpt lat="45.03586" lon="5.47976">
        <ele>1314.1434548</ele>
        <time>2021-02-18T11:38:22Z</time>
      </trkpt>
      <trkpt lat="45.03577" lon="5.47976">
        <ele>1315.14309252</ele>
        <time>2021-02-18T11:38:26Z</time>
      </trkpt>
      <trkpt lat="45.03566" lon="5.47974">
        <ele>1313.1426522</ele>
        <time>2021-02-18T11:38:30Z</time>
      </trkpt>
      <trkpt lat="45.03554" lon="5.47974">
        <ele>1313.14214828</ele>
        <time>2021-02-18T11:38:34Z</time>
      </trkpt>
      <trkpt lat="45.0354" lon="5.47978">
        <ele>1313.14161684</ele>
        <time>2021-02-18T11:38:39Z</time>
      </trkpt>
      <trkpt lat="45.03526" lon="5.47982">
        <ele>1312.14104888</ele>
        <time>2021-02-18T11:38:44Z</time>
      </trkpt>
      <trkpt lat="45.03516" lon="5.47983">
        <ele>1311.140658</ele>
        <time>2021-02-18T11:38:48Z</time>
      </trkpt>
      <trkpt lat="45.03506" lon="5.47985">
        <ele>1311.14022584</ele>
        <time>2021-02-18T11:38:52Z</time>
      </trkpt>
      <trkpt lat="45.03492" lon="5.47984">
        <ele>1310.13966724</ele>
        <time>2021-02-18T11:38:57Z</time>
      </trkpt>
      <trkpt lat="45.0348" lon="5.47986">
        <ele>1312.1392152</ele>
        <time>2021-02-18T11:39:01Z</time>
      </trkpt>
      <trkpt lat="45.03465" lon="5.47989">
        <ele>1313.1386102</ele>
        <time>2021-02-18T11:39:06Z</time>
      </trkpt>
      <trkpt lat="45.03456" lon="5.47987">
        <ele>1312.13822604</ele>
        <time>2021-02-18T11:39:10Z</time>
      </trkpt>
      <trkpt lat="45.03442" lon="5.47988">
        <ele>1311.13768824</ele>
        <time>2021-02-18T11:39:15Z</time>
      </trkpt>
      <trkpt lat="45.03432" lon="5.47989">
        <ele>1312.13726132</ele>
        <time>2021-02-18T11:39:19Z</time>
      </trkpt>
      <trkpt lat="45.03419" lon="5.47993">
        <ele>1313.13676268</ele>
        <time>2021-02-18T11:39:23Z</time>
      </trkpt>
      <trkpt lat="45.03408" lon="5.47989">
        <ele>1313.13633052</ele>
        <time>2021-02-18T11:39:27Z</time>
      </trkpt>
      <trkpt lat="45.03394" lon="5.47977">
        <ele>1311.13573996</ele>
        <time>2021-02-18T11:39:32Z</time>
      </trkpt>
      <trkpt lat="45.03382" lon="5.47967">
        <ele>1313.13526676</ele>
        <time>2021-02-18T11:39:36Z</time>
      </trkpt>
      <trkpt lat="45.03371" lon="5.47958">
        <ele>1315.13482284</ele>
        <time>2021-02-18T11:39:40Z</time>
      </trkpt>
      <trkpt lat="45.03359" lon="5.47944">
        <ele>1311.134374</ele>
        <time>2021-02-18T11:39:45Z</time>
      </trkpt>
      <trkpt lat="45.0335" lon="5.47926">
        <ele>1305.13400424</ele>
        <time>2021-02-18T11:39:50Z</time>
      </trkpt>
      <trkpt lat="45.03343" lon="5.47916">
        <ele>1305.13371976</ele>
        <time>2021-02-18T11:39:54Z</time>
      </trkpt>
      <trkpt lat="45.03336" lon="5.47904">
        <ele>1303.13343268</ele>
        <time>2021-02-18T11:39:58Z</time>
      </trkpt>
      <trkpt lat="45.03329" lon="5.4789">
        <ele>1298.13315208</ele>
        <time>2021-02-18T11:40:03Z</time>
      </trkpt>
      <trkpt lat="45.03323" lon="5.47881">
        <ele>1296.13290888</ele>
        <time>2021-02-18T11:40:07Z</time>
      </trkpt>
      <trkpt lat="45.03317" lon="5.47872">
        <ele>1294.13266564</ele>
        <time>2021-02-18T11:40:11Z</time>
      </trkpt>
      <trkpt lat="45.03311" lon="5.47863">
        <ele>1291.1324308</ele>
        <time>2021-02-18T11:40:15Z</time>
      </trkpt>
      <trkpt lat="45.03306" lon="5.47853">
        <ele>1290.13224744</ele>
        <time>2021-02-18T11:40:19Z</time>
      </trkpt>
      <trkpt lat="45.033" lon="5.47841">
        <ele>1289.13199884</ele>
        <time>2021-02-18T11:40:23Z</time>
      </trkpt>
      <trkpt lat="45.03295" lon="5.47831">
        <ele>1287.1318162</ele>
        <time>2021-02-18T11:40:27Z</time>
      </trkpt>
      <trkpt lat="45.0329" lon="5.47823">
        <ele>1286.13161396</ele>
        <time>2021-02-18T11:40:31Z</time>
      </trkpt>
      <trkpt lat="45.03282" lon="5.47812">
        <ele>1286.13129596</ele>
        <time>2021-02-18T11:40:36Z</time>
      </trkpt>
      <trkpt lat="45.03275" lon="5.47802">
        <ele>1284.13101168</ele>
        <time>2021-02-18T11:40:40Z</time>
      </trkpt>
      <trkpt lat="45.03269" lon="5.47793">
        <ele>1281.13075604</ele>
        <time>2021-02-18T11:40:44Z</time>
      </trkpt>
      <trkpt lat="45.03261" lon="5.4779">
        <ele>1279.13045716</ele>
        <time>2021-02-18T11:40:48Z</time>
      </trkpt>
      <trkpt lat="45.03251" lon="5.47787">
        <ele>1279.13002924</ele>
        <time>2021-02-18T11:40:53Z</time>
      </trkpt>
      <trkpt lat="45.03243" lon="5.47784">
        <ele>1276.12970204</ele>
        <time>2021-02-18T11:40:58Z</time>
      </trkpt>
      <trkpt lat="45.03235" lon="5.47782">
        <ele>1275.12941556</ele>
        <time>2021-02-18T11:41:02Z</time>
      </trkpt>
      <trkpt lat="45.03227" lon="5.47779">
        <ele>1278.12908432</ele>
        <time>2021-02-18T11:41:07Z</time>
      </trkpt>
      <trkpt lat="45.03217" lon="5.4778">
        <ele>1278.128698</ele>
        <time>2021-02-18T11:41:12Z</time>
      </trkpt>
      <trkpt lat="45.03209" lon="5.47781">
        <ele>1278.12834112</ele>
        <time>2021-02-18T11:41:16Z</time>
      </trkpt>
      <trkpt lat="45.03201" lon="5.47781">
        <ele>1278.128022</ele>
        <time>2021-02-18T11:41:21Z</time>
      </trkpt>
      <trkpt lat="45.03193" lon="5.4778">
        <ele>1278.1277122</ele>
        <time>2021-02-18T11:41:25Z</time>
      </trkpt>
      <trkpt lat="45.03186" lon="5.47781">
        <ele>1278.12742148</ele>
        <time>2021-02-18T11:41:29Z</time>
      </trkpt>
      <trkpt lat="45.03177" lon="5.47779">
        <ele>1277.12706096</ele>
        <time>2021-02-18T11:41:33Z</time>
      </trkpt>
      <trkpt lat="45.03168" lon="5.47779">
        <ele>1277.12673228</ele>
        <time>2021-02-18T11:41:38Z</time>
      </trkpt>
      <trkpt lat="45.0316" lon="5.4778">
        <ele>1276.12637836</ele>
        <time>2021-02-18T11:41:43Z</time>
      </trkpt>
      <trkpt lat="45.03151" lon="5.47777">
        <ele>1277.12605236</ele>
        <time>2021-02-18T11:41:48Z</time>
      </trkpt>
      <trkpt lat="45.03143" lon="5.47776">
        <ele>1278.12569956</ele>
        <time>2021-02-18T11:41:53Z</time>
      </trkpt>
      <trkpt lat="45.03135" lon="5.47773">
        <ele>1278.12540076</ele>
        <time>2021-02-18T11:41:58Z</time>
      </trkpt>
      <trkpt lat="45.03127" lon="5.4777">
        <ele>1278.12505836</ele>
        <time>2021-02-18T11:42:04Z</time>
      </trkpt>
      <trkpt lat="45.03118" lon="5.47765">
        <ele>1279.12472716</ele>
        <time>2021-02-18T11:42:12Z</time>
      </trkpt>
      <trkpt lat="45.03111" lon="5.47762">
        <ele>1279.12442044</ele>
        <time>2021-02-18T11:42:19Z</time>
      </trkpt>
      <trkpt lat="45.03103" lon="5.4776">
        <ele>1282.1240996</ele>
        <time>2021-02-18T11:42:26Z</time>
      </trkpt>
      <trkpt lat="45.03094" lon="5.47757">
        <ele>1282.12376908</ele>
        <time>2021-02-18T11:42:31Z</time>
      </trkpt>
      <trkpt lat="45.03088" lon="5.4775">
        <ele>1281.12349872</ele>
        <time>2021-02-18T11:42:37Z</time>
      </trkpt>
      <trkpt lat="45.0308" lon="5.47746">
        <ele>1278.1231814</ele>
        <time>2021-02-18T11:42:43Z</time>
      </trkpt>
      <trkpt lat="45.03071" lon="5.47742">
        <ele>1277.12284516</ele>
        <time>2021-02-18T11:42:48Z</time>
      </trkpt>
      <trkpt lat="45.03064" lon="5.47742">
        <ele>1277.12254028</ele>
        <time>2021-02-18T11:42:52Z</time>
      </trkpt>
      <trkpt lat="45.03056" lon="5.4774">
        <ele>1278.12223292</ele>
        <time>2021-02-18T11:42:56Z</time>
      </trkpt>
      <trkpt lat="45.03047" lon="5.47745">
        <ele>1280.1218594</ele>
        <time>2021-02-18T11:43:01Z</time>
      </trkpt>
      <trkpt lat="45.03038" lon="5.47742">
        <ele>1277.12153252</ele>
        <time>2021-02-18T11:43:05Z</time>
      </trkpt>
      <trkpt lat="45.0303" lon="5.47742">
        <ele>1275.12118176</ele>
        <time>2021-02-18T11:43:09Z</time>
      </trkpt>
      <trkpt lat="45.03021" lon="5.47743">
        <ele>1276.12084948</ele>
        <time>2021-02-18T11:43:14Z</time>
      </trkpt>
      <trkpt lat="45.03013" lon="5.47747">
        <ele>1274.12052416</ele>
        <time>2021-02-18T11:43:18Z</time>
      </trkpt>
      <trkpt lat="45.03004" lon="5.47749">
        <ele>1272.12016928</ele>
        <time>2021-02-18T11:43:22Z</time>
      </trkpt>
      <trkpt lat="45.02994" lon="5.47749">
        <ele>1272.1197718</ele>
        <time>2021-02-18T11:43:27Z</time>
      </trkpt>
      <trkpt lat="45.02987" lon="5.47752">
        <ele>1274.119462</ele>
        <time>2021-02-18T11:43:31Z</time>
      </trkpt>
      <trkpt lat="45.02978" lon="5.47755">
        <ele>1277.1191184</ele>
        <time>2021-02-18T11:43:35Z</time>
      </trkpt>
      <trkpt lat="45.02971" lon="5.47757">
        <ele>1278.11882476</ele>
        <time>2021-02-18T11:43:39Z</time>
      </trkpt>
      <trkpt lat="45.02962" lon="5.47757">
        <ele>1283.11848068</ele>
        <time>2021-02-18T11:43:46Z</time>
      </trkpt>
      <trkpt lat="45.02953" lon="5.47758">
        <ele>1281.118126</ele>
        <time>2021-02-18T11:43:51Z</time>
      </trkpt>
      <trkpt lat="45.02945" lon="5.4776">
        <ele>1282.11781308</ele>
        <time>2021-02-18T11:43:55Z</time>
      </trkpt>
      <trkpt lat="45.02937" lon="5.47761">
        <ele>1286.11747188</ele>
        <time>2021-02-18T11:44:00Z</time>
      </trkpt>
      <trkpt lat="45.0293" lon="5.47761">
        <ele>1287.11718872</ele>
        <time>2021-02-18T11:44:04Z</time>
      </trkpt>
      <trkpt lat="45.02921" lon="5.47759">
        <ele>1284.1168474</ele>
        <time>2021-02-18T11:44:09Z</time>
      </trkpt>
      <trkpt lat="45.02912" lon="5.47758">
        <ele>1285.11649792</ele>
        <time>2021-02-18T11:44:14Z</time>
      </trkpt>
      <trkpt lat="45.02904" lon="5.47756">
        <ele>1284.11617512</ele>
        <time>2021-02-18T11:44:18Z</time>
      </trkpt>
      <trkpt lat="45.02894" lon="5.47756">
        <ele>1284.1157682</ele>
        <time>2021-02-18T11:44:23Z</time>
      </trkpt>
      <trkpt lat="45.02886" lon="5.47756">
        <ele>1284.115435</ele>
        <time>2021-02-18T11:44:27Z</time>
      </trkpt>
      <trkpt lat="45.02877" lon="5.47756">
        <ele>1282.11509632</ele>
        <time>2021-02-18T11:44:31Z</time>
      </trkpt>
      <trkpt lat="45.02869" lon="5.47753">
        <ele>1280.114749</ele>
        <time>2021-02-18T11:44:36Z</time>
      </trkpt>
      <trkpt lat="45.0286" lon="5.47755">
        <ele>1280.11440884</ele>
        <time>2021-02-18T11:44:40Z</time>
      </trkpt>
      <trkpt lat="45.02849" lon="5.47756">
        <ele>1279.1139504</ele>
        <time>2021-02-18T11:44:45Z</time>
      </trkpt>
      <trkpt lat="45.02839" lon="5.47757">
        <ele>1279.11354284</ele>
        <time>2021-02-18T11:44:49Z</time>
      </trkpt>
      <trkpt lat="45.02828" lon="5.47757">
        <ele>1280.11311108</ele>
        <time>2021-02-18T11:44:53Z</time>
      </trkpt>
      <trkpt lat="45.02817" lon="5.47758">
        <ele>1281.11269056</ele>
        <time>2021-02-18T11:44:57Z</time>
      </trkpt>
      <trkpt lat="45.02803" lon="5.47761">
        <ele>1281.11211036</ele>
        <time>2021-02-18T11:45:02Z</time>
      </trkpt>
      <trkpt lat="45.02788" lon="5.4776">
        <ele>1281.11152608</ele>
        <time>2021-02-18T11:45:07Z</time>
      </trkpt>
      <trkpt lat="45.0278" lon="5.47759">
        <ele>1276.11121288</ele>
        <time>2021-02-18T11:45:11Z</time>
      </trkpt>
      <trkpt lat="45.02769" lon="5.4776">
        <ele>1276.11076728</ele>
        <time>2021-02-18T11:45:16Z</time>
      </trkpt>
      <trkpt lat="45.02762" lon="5.47758">
        <ele>1276.11047</ele>
        <time>2021-02-18T11:45:20Z</time>
      </trkpt>
      <trkpt lat="45.02753" lon="5.47755">
        <ele>1273.11010508</ele>
        <time>2021-02-18T11:45:24Z</time>
      </trkpt>
      <trkpt lat="45.02742" lon="5.47754">
        <ele>1276.1096826</ele>
        <time>2021-02-18T11:45:29Z</time>
      </trkpt>
      <trkpt lat="45.02735" lon="5.47752">
        <ele>1278.10940928</ele>
        <time>2021-02-18T11:45:33Z</time>
      </trkpt>
      <trkpt lat="45.02728" lon="5.47752">
        <ele>1280.10910148</ele>
        <time>2021-02-18T11:45:37Z</time>
      </trkpt>
      <trkpt lat="45.02718" lon="5.47753">
        <ele>1282.1087132</ele>
        <time>2021-02-18T11:45:41Z</time>
      </trkpt>
      <trkpt lat="45.02709" lon="5.4775">
        <ele>1280.10835112</ele>
        <time>2021-02-18T11:45:45Z</time>
      </trkpt>
      <trkpt lat="45.02697" lon="5.47749">
        <ele>1279.10786244</ele>
        <time>2021-02-18T11:45:50Z</time>
      </trkpt>
      <trkpt lat="45.02684" lon="5.47749">
        <ele>1277.10736708</ele>
        <time>2021-02-18T11:45:55Z</time>
      </trkpt>
      <trkpt lat="45.02674" lon="5.47749">
        <ele>1275.10695008</ele>
        <time>2021-02-18T11:45:59Z</time>
      </trkpt>
      <trkpt lat="45.02664" lon="5.47743">
        <ele>1273.10655072</ele>
        <time>2021-02-18T11:46:04Z</time>
      </trkpt>
      <trkpt lat="45.02655" lon="5.4774">
        <ele>1275.10618972</ele>
        <time>2021-02-18T11:46:08Z</time>
      </trkpt>
      <trkpt lat="45.02646" lon="5.47735">
        <ele>1273.1058228</ele>
        <time>2021-02-18T11:46:12Z</time>
      </trkpt>
      <trkpt lat="45.02632" lon="5.47729">
        <ele>1272.10526128</ele>
        <time>2021-02-18T11:46:17Z</time>
      </trkpt>
      <trkpt lat="45.0262" lon="5.47724">
        <ele>1273.10481736</ele>
        <time>2021-02-18T11:46:21Z</time>
      </trkpt>
      <trkpt lat="45.02611" lon="5.47719">
        <ele>1271.10444568</ele>
        <time>2021-02-18T11:46:25Z</time>
      </trkpt>
      <trkpt lat="45.026" lon="5.47716">
        <ele>1269.10400676</ele>
        <time>2021-02-18T11:46:30Z</time>
      </trkpt>
      <trkpt lat="45.02593" lon="5.4771">
        <ele>1268.10373684</ele>
        <time>2021-02-18T11:46:34Z</time>
      </trkpt>
      <trkpt lat="45.02586" lon="5.47708">
        <ele>1267.10343116</ele>
        <time>2021-02-18T11:46:38Z</time>
      </trkpt>
      <trkpt lat="45.02579" lon="5.47703">
        <ele>1267.10314668</ele>
        <time>2021-02-18T11:46:42Z</time>
      </trkpt>
      <trkpt lat="45.02571" lon="5.47698">
        <ele>1269.10284564</ele>
        <time>2021-02-18T11:46:47Z</time>
      </trkpt>
      <trkpt lat="45.02565" lon="5.47691">
        <ele>1264.10259776</ele>
        <time>2021-02-18T11:46:58Z</time>
      </trkpt>
      <trkpt lat="45.02557" lon="5.47685">
        <ele>1265.1022758</ele>
        <time>2021-02-18T11:47:09Z</time>
      </trkpt>
      <trkpt lat="45.02549" lon="5.47686">
        <ele>1273.10196316</ele>
        <time>2021-02-18T11:48:44Z</time>
      </trkpt>
      <trkpt lat="45.02541" lon="5.47684">
        <ele>1271.10164368</ele>
        <time>2021-02-18T11:48:49Z</time>
      </trkpt>
      <trkpt lat="45.02533" lon="5.4768">
        <ele>1269.10131492</ele>
        <time>2021-02-18T11:48:56Z</time>
      </trkpt>
      <trkpt lat="45.02526" lon="5.47672">
        <ele>1273.10105604</ele>
        <time>2021-02-18T11:49:04Z</time>
      </trkpt>
      <trkpt lat="45.0252" lon="5.47669">
        <ele>1271.10079068</ele>
        <time>2021-02-18T11:49:09Z</time>
      </trkpt>
      <trkpt lat="45.02511" lon="5.47669">
        <ele>1273.10045368</ele>
        <time>2021-02-18T11:49:15Z</time>
      </trkpt>
      <trkpt lat="45.02504" lon="5.47669">
        <ele>1275.10014416</ele>
        <time>2021-02-18T11:49:21Z</time>
      </trkpt>
      <trkpt lat="45.02496" lon="5.4767">
        <ele>1277.099824</ele>
        <time>2021-02-18T11:49:25Z</time>
      </trkpt>
      <trkpt lat="45.02488" lon="5.47669">
        <ele>1276.09952156</ele>
        <time>2021-02-18T11:49:30Z</time>
      </trkpt>
      <trkpt lat="45.0248" lon="5.4767">
        <ele>1276.0992066</ele>
        <time>2021-02-18T11:49:35Z</time>
      </trkpt>
      <trkpt lat="45.02474" lon="5.47669">
        <ele>1277.09894376</ele>
        <time>2021-02-18T11:49:39Z</time>
      </trkpt>
      <trkpt lat="45.02466" lon="5.47666">
        <ele>1277.098646</ele>
        <time>2021-02-18T11:49:43Z</time>
      </trkpt>
      <trkpt lat="45.02458" lon="5.47664">
        <ele>1278.098302</ele>
        <time>2021-02-18T11:49:49Z</time>
      </trkpt>
      <trkpt lat="45.02449" lon="5.47663">
        <ele>1280.0979584</ele>
        <time>2021-02-18T11:49:55Z</time>
      </trkpt>
      <trkpt lat="45.02441" lon="5.47661">
        <ele>1279.09762148</ele>
        <time>2021-02-18T11:50:01Z</time>
      </trkpt>
      <trkpt lat="45.02433" lon="5.47663">
        <ele>1282.0973002</ele>
        <time>2021-02-18T11:50:07Z</time>
      </trkpt>
      <trkpt lat="45.02427" lon="5.47656">
        <ele>1279.09706208</ele>
        <time>2021-02-18T11:50:12Z</time>
      </trkpt>
      <trkpt lat="45.02418" lon="5.47657">
        <ele>1281.09672004</ele>
        <time>2021-02-18T11:50:20Z</time>
      </trkpt>
      <trkpt lat="45.0241" lon="5.47655">
        <ele>1284.09638692</ele>
        <time>2021-02-18T11:51:40Z</time>
      </trkpt>
      <trkpt lat="45.02401" lon="5.47655">
        <ele>1283.09603856</ele>
        <time>2021-02-18T11:51:46Z</time>
      </trkpt>
      <trkpt lat="45.02392" lon="5.47653">
        <ele>1284.0956808</ele>
        <time>2021-02-18T11:51:51Z</time>
      </trkpt>
      <trkpt lat="45.02384" lon="5.4765">
        <ele>1288.09535036</ele>
        <time>2021-02-18T11:51:56Z</time>
      </trkpt>
      <trkpt lat="45.02376" lon="5.47649">
        <ele>1286.095044</ele>
        <time>2021-02-18T11:52:00Z</time>
      </trkpt>
      <trkpt lat="45.02369" lon="5.47647">
        <ele>1286.0947636</ele>
        <time>2021-02-18T11:52:05Z</time>
      </trkpt>
      <trkpt lat="45.02361" lon="5.47647">
        <ele>1283.09442988</ele>
        <time>2021-02-18T11:52:09Z</time>
      </trkpt>
      <trkpt lat="45.02353" lon="5.47647">
        <ele>1285.09412612</ele>
        <time>2021-02-18T11:52:14Z</time>
      </trkpt>
      <trkpt lat="45.02346" lon="5.47648">
        <ele>1292.09382516</ele>
        <time>2021-02-18T11:52:19Z</time>
      </trkpt>
      <trkpt lat="45.02339" lon="5.47648">
        <ele>1295.09354148</ele>
        <time>2021-02-18T11:52:24Z</time>
      </trkpt>
      <trkpt lat="45.0233" lon="5.4765">
        <ele>1296.09320216</ele>
        <time>2021-02-18T11:52:30Z</time>
      </trkpt>
      <trkpt lat="45.02321" lon="5.47649">
        <ele>1303.092848</ele>
        <time>2021-02-18T11:52:50Z</time>
      </trkpt>
      <trkpt lat="45.02313" lon="5.47647">
        <ele>1304.09251512</ele>
        <time>2021-02-18T11:53:05Z</time>
      </trkpt>
      <trkpt lat="45.02314" lon="5.47636">
        <ele>1296.09255068</ele>
        <time>2021-02-18T11:53:15Z</time>
      </trkpt>
      <trkpt lat="45.02314" lon="5.47624">
        <ele>1288.09256452</ele>
        <time>2021-02-18T11:53:21Z</time>
      </trkpt>
      <trkpt lat="45.02309" lon="5.47634">
        <ele>1291.09236508</ele>
        <time>2021-02-18T11:55:11Z</time>
      </trkpt>
      <trkpt lat="45.02301" lon="5.4763">
        <ele>1287.09204028</ele>
        <time>2021-02-18T11:56:03Z</time>
      </trkpt>
      <trkpt lat="45.02294" lon="5.47625">
        <ele>1286.09176708</ele>
        <time>2021-02-18T11:56:09Z</time>
      </trkpt>
      <trkpt lat="45.02286" lon="5.47623">
        <ele>1283.09144268</ele>
        <time>2021-02-18T11:56:14Z</time>
      </trkpt>
      <trkpt lat="45.02279" lon="5.47616">
        <ele>1282.09117448</ele>
        <time>2021-02-18T11:56:21Z</time>
      </trkpt>
      <trkpt lat="45.0227" lon="5.47617">
        <ele>1284.09081792</ele>
        <time>2021-02-18T11:56:27Z</time>
      </trkpt>
      <trkpt lat="45.02264" lon="5.47615">
        <ele>1288.09054444</ele>
        <time>2021-02-18T11:56:31Z</time>
      </trkpt>
      <trkpt lat="45.02255" lon="5.47615">
        <ele>1295.0902026</ele>
        <time>2021-02-18T11:56:35Z</time>
      </trkpt>
      <trkpt lat="45.02247" lon="5.47613">
        <ele>1296.08988756</ele>
        <time>2021-02-18T11:56:39Z</time>
      </trkpt>
      <trkpt lat="45.02239" lon="5.47612">
        <ele>1294.08955888</ele>
        <time>2021-02-18T11:56:44Z</time>
      </trkpt>
      <trkpt lat="45.02231" lon="5.47616">
        <ele>1301.0892222</ele>
        <time>2021-02-18T11:56:50Z</time>
      </trkpt>
      <trkpt lat="45.02224" lon="5.47618">
        <ele>1304.08895728</ele>
        <time>2021-02-18T11:56:55Z</time>
      </trkpt>
      <trkpt lat="45.02216" lon="5.4762">
        <ele>1304.08864908</ele>
        <time>2021-02-18T11:57:00Z</time>
      </trkpt>
      <trkpt lat="45.0221" lon="5.47617">
        <ele>1306.08838984</ele>
        <time>2021-02-18T11:57:06Z</time>
      </trkpt>
      <trkpt lat="45.02202" lon="5.47617">
        <ele>1303.08807176</ele>
        <time>2021-02-18T11:57:10Z</time>
      </trkpt>
      <trkpt lat="45.02195" lon="5.47613">
        <ele>1302.08781696</ele>
        <time>2021-02-18T11:57:14Z</time>
      </trkpt>
      <trkpt lat="45.02188" lon="5.47606">
        <ele>1298.08752556</ele>
        <time>2021-02-18T11:57:20Z</time>
      </trkpt>
      <trkpt lat="45.02182" lon="5.47603">
        <ele>1299.08726244</ele>
        <time>2021-02-18T11:57:37Z</time>
      </trkpt>
      <trkpt lat="45.02172" lon="5.47602">
        <ele>1299.08688056</ele>
        <time>2021-02-18T11:57:42Z</time>
      </trkpt>
      <trkpt lat="45.02164" lon="5.47602">
        <ele>1301.08654592</ele>
        <time>2021-02-18T11:57:48Z</time>
      </trkpt>
      <trkpt lat="45.02155" lon="5.47599">
        <ele>1300.08621336</ele>
        <time>2021-02-18T11:57:54Z</time>
      </trkpt>
      <trkpt lat="45.02149" lon="5.47598">
        <ele>1299.08595176</ele>
        <time>2021-02-18T11:57:59Z</time>
      </trkpt>
      <trkpt lat="45.02141" lon="5.47598">
        <ele>1301.08562804</ele>
        <time>2021-02-18T11:58:04Z</time>
      </trkpt>
      <trkpt lat="45.02132" lon="5.47595">
        <ele>1302.08528596</ele>
        <time>2021-02-18T11:58:10Z</time>
      </trkpt>
      <trkpt lat="45.02124" lon="5.4759">
        <ele>1306.08495756</ele>
        <time>2021-02-18T11:58:17Z</time>
      </trkpt>
      <trkpt lat="45.02116" lon="5.47589">
        <ele>1310.08464268</ele>
        <time>2021-02-18T11:58:21Z</time>
      </trkpt>
      <trkpt lat="45.02108" lon="5.47583">
        <ele>1309.08432612</ele>
        <time>2021-02-18T11:58:27Z</time>
      </trkpt>
      <trkpt lat="45.02102" lon="5.47577">
        <ele>1309.08408532</ele>
        <time>2021-02-18T11:58:33Z</time>
      </trkpt>
      <trkpt lat="45.02094" lon="5.47575">
        <ele>1313.08376256</ele>
        <time>2021-02-18T11:58:40Z</time>
      </trkpt>
      <trkpt lat="45.02087" lon="5.47577">
        <ele>1313.08346112</ele>
        <time>2021-02-18T11:58:44Z</time>
      </trkpt>
      <trkpt lat="45.02077" lon="5.4758">
        <ele>1313.08309116</ele>
        <time>2021-02-18T11:58:48Z</time>
      </trkpt>
      <trkpt lat="45.02069" lon="5.4758">
        <ele>1313.08276648</ele>
        <time>2021-02-18T11:58:54Z</time>
      </trkpt>
      <trkpt lat="45.02061" lon="5.47576">
        <ele>1314.08243776</ele>
        <time>2021-02-18T11:58:58Z</time>
      </trkpt>
      <trkpt lat="45.02053" lon="5.47573">
        <ele>1314.08211776</ele>
        <time>2021-02-18T11:59:02Z</time>
      </trkpt>
      <trkpt lat="45.02047" lon="5.47566">
        <ele>1317.0818732</ele>
        <time>2021-02-18T11:59:07Z</time>
      </trkpt>
      <trkpt lat="45.02045" lon="5.47552">
        <ele>1308.0818002</ele>
        <time>2021-02-18T11:59:11Z</time>
      </trkpt>
      <trkpt lat="45.02043" lon="5.4754">
        <ele>1301.08170696</ele>
        <time>2021-02-18T11:59:16Z</time>
      </trkpt>
      <trkpt lat="45.02042" lon="5.47528">
        <ele>1298.08168208</ele>
        <time>2021-02-18T11:59:21Z</time>
      </trkpt>
      <trkpt lat="45.02039" lon="5.4752">
        <ele>1300.08156036</ele>
        <time>2021-02-18T11:59:26Z</time>
      </trkpt>
      <trkpt lat="45.02034" lon="5.47511">
        <ele>1296.0813538</ele>
        <time>2021-02-18T11:59:31Z</time>
      </trkpt>
      <trkpt lat="45.02027" lon="5.47502">
        <ele>1300.0810864</ele>
        <time>2021-02-18T11:59:36Z</time>
      </trkpt>
      <trkpt lat="45.0203" lon="5.47492">
        <ele>1295.0811804</ele>
        <time>2021-02-18T11:59:40Z</time>
      </trkpt>
      <trkpt lat="45.02034" lon="5.47483">
        <ele>1296.0813388</ele>
        <time>2021-02-18T11:59:44Z</time>
      </trkpt>
      <trkpt lat="45.02033" lon="5.47471">
        <ele>1299.0812994</ele>
        <time>2021-02-18T11:59:50Z</time>
      </trkpt>
      <trkpt lat="45.02031" lon="5.4746">
        <ele>1298.0812314</ele>
        <time>2021-02-18T11:59:55Z</time>
      </trkpt>
      <trkpt lat="45.02026" lon="5.47452">
        <ele>1298.08104752</ele>
        <time>2021-02-18T12:00:01Z</time>
      </trkpt>
      <trkpt lat="45.0202" lon="5.47444">
        <ele>1296.08081564</ele>
        <time>2021-02-18T12:00:06Z</time>
      </trkpt>
      <trkpt lat="45.02014" lon="5.47439">
        <ele>1297.0805584</ele>
        <time>2021-02-18T12:00:10Z</time>
      </trkpt>
      <trkpt lat="45.02009" lon="5.47429">
        <ele>1296.08036316</ele>
        <time>2021-02-18T12:00:17Z</time>
      </trkpt>
      <trkpt lat="45.02004" lon="5.47419">
        <ele>1294.0801744</ele>
        <time>2021-02-18T12:00:23Z</time>
      </trkpt>
      <trkpt lat="45.02001" lon="5.47408">
        <ele>1299.08001872</ele>
        <time>2021-02-18T12:00:30Z</time>
      </trkpt>
      <trkpt lat="45.01995" lon="5.47399">
        <ele>1303.07981076</ele>
        <time>2021-02-18T12:00:36Z</time>
      </trkpt>
      <trkpt lat="45.01992" lon="5.47388">
        <ele>1306.07966384</ele>
        <time>2021-02-18T12:00:42Z</time>
      </trkpt>
      <trkpt lat="45.01989" lon="5.47377">
        <ele>1309.07955484</ele>
        <time>2021-02-18T12:00:49Z</time>
      </trkpt>
      <trkpt lat="45.01987" lon="5.47367">
        <ele>1312.0794748</ele>
        <time>2021-02-18T12:00:55Z</time>
      </trkpt>
      <trkpt lat="45.01983" lon="5.47356">
        <ele>1316.07931252</ele>
        <time>2021-02-18T12:01:02Z</time>
      </trkpt>
      <trkpt lat="45.01977" lon="5.47346">
        <ele>1315.07909348</ele>
        <time>2021-02-18T12:01:29Z</time>
      </trkpt>
      <trkpt lat="45.01969" lon="5.47351">
        <ele>1314.07876728</ele>
        <time>2021-02-18T12:01:40Z</time>
      </trkpt>
      <trkpt lat="45.01967" lon="5.47339">
        <ele>1305.07869408</ele>
        <time>2021-02-18T12:04:13Z</time>
      </trkpt>
      <trkpt lat="45.01964" lon="5.4733">
        <ele>1301.07856128</ele>
        <time>2021-02-18T12:04:25Z</time>
      </trkpt>
      <trkpt lat="45.01959" lon="5.47321">
        <ele>1300.07836116</ele>
        <time>2021-02-18T12:04:31Z</time>
      </trkpt>
      <trkpt lat="45.01954" lon="5.47312">
        <ele>1301.07814768</ele>
        <time>2021-02-18T12:04:37Z</time>
      </trkpt>
      <trkpt lat="45.01947" lon="5.47305">
        <ele>1300.0778592</ele>
        <time>2021-02-18T12:04:42Z</time>
      </trkpt>
      <trkpt lat="45.01942" lon="5.47296">
        <ele>1300.07767172</ele>
        <time>2021-02-18T12:04:48Z</time>
      </trkpt>
      <trkpt lat="45.01935" lon="5.47291">
        <ele>1298.07739484</ele>
        <time>2021-02-18T12:05:02Z</time>
      </trkpt>
      <trkpt lat="45.01927" lon="5.4729">
        <ele>1296.07707592</ele>
        <time>2021-02-18T12:05:07Z</time>
      </trkpt>
      <trkpt lat="45.01918" lon="5.47293">
        <ele>1303.07672972</ele>
        <time>2021-02-18T12:05:16Z</time>
      </trkpt>
      <trkpt lat="45.0191" lon="5.47297">
        <ele>1305.07641192</ele>
        <time>2021-02-18T12:05:31Z</time>
      </trkpt>
      <trkpt lat="45.01902" lon="5.47298">
        <ele>1307.07607616</ele>
        <time>2021-02-18T12:05:37Z</time>
      </trkpt>
      <trkpt lat="45.01894" lon="5.47297">
        <ele>1307.07575044</ele>
        <time>2021-02-18T12:05:43Z</time>
      </trkpt>
      <trkpt lat="45.01887" lon="5.47291">
        <ele>1306.075497</ele>
        <time>2021-02-18T12:05:48Z</time>
      </trkpt>
      <trkpt lat="45.0188" lon="5.47287">
        <ele>1305.07518236</ele>
        <time>2021-02-18T12:05:53Z</time>
      </trkpt>
      <trkpt lat="45.01873" lon="5.47281">
        <ele>1307.0749174</ele>
        <time>2021-02-18T12:05:58Z</time>
      </trkpt>
      <trkpt lat="45.01865" lon="5.47275">
        <ele>1308.07459128</ele>
        <time>2021-02-18T12:06:04Z</time>
      </trkpt>
      <trkpt lat="45.01858" lon="5.47271">
        <ele>1307.07431612</ele>
        <time>2021-02-18T12:06:09Z</time>
      </trkpt>
      <trkpt lat="45.01851" lon="5.47266">
        <ele>1309.07405176</ele>
        <time>2021-02-18T12:06:13Z</time>
      </trkpt>
      <trkpt lat="45.01844" lon="5.47261">
        <ele>1308.07375496</ele>
        <time>2021-02-18T12:06:18Z</time>
      </trkpt>
      <trkpt lat="45.0184" lon="5.47249">
        <ele>1307.07360252</ele>
        <time>2021-02-18T12:06:23Z</time>
      </trkpt>
      <trkpt lat="45.01832" lon="5.47248">
        <ele>1308.07329164</ele>
        <time>2021-02-18T12:06:28Z</time>
      </trkpt>
      <trkpt lat="45.01823" lon="5.47248">
        <ele>1310.07290732</ele>
        <time>2021-02-18T12:06:33Z</time>
      </trkpt>
      <trkpt lat="45.01815" lon="5.4725">
        <ele>1313.07259164</ele>
        <time>2021-02-18T12:06:38Z</time>
      </trkpt>
      <trkpt lat="45.01806" lon="5.47248">
        <ele>1315.07225708</ele>
        <time>2021-02-18T12:06:45Z</time>
      </trkpt>
      <trkpt lat="45.01798" lon="5.47249">
        <ele>1313.07192176</ele>
        <time>2021-02-18T12:06:52Z</time>
      </trkpt>
      <trkpt lat="45.01791" lon="5.47248">
        <ele>1310.07162972</ele>
        <time>2021-02-18T12:08:36Z</time>
      </trkpt>
      <trkpt lat="45.01785" lon="5.47234">
        <ele>1302.07139956</ele>
        <time>2021-02-18T12:08:40Z</time>
      </trkpt>
      <trkpt lat="45.01785" lon="5.47247">
        <ele>1311.07140696</ele>
        <time>2021-02-18T12:31:21Z</time>
      </trkpt>
      <trkpt lat="45.01777" lon="5.47252">
        <ele>1309.07108104</ele>
        <time>2021-02-18T12:33:06Z</time>
      </trkpt>
      <trkpt lat="45.01769" lon="5.47249">
        <ele>1310.07074376</ele>
        <time>2021-02-18T12:33:11Z</time>
      </trkpt>
      <trkpt lat="45.01761" lon="5.4725">
        <ele>1311.070455</ele>
        <time>2021-02-18T12:33:15Z</time>
      </trkpt>
      <trkpt lat="45.01752" lon="5.4725">
        <ele>1310.07008212</ele>
        <time>2021-02-18T12:33:20Z</time>
      </trkpt>
      <trkpt lat="45.01744" lon="5.47247">
        <ele>1309.0697436</ele>
        <time>2021-02-18T12:33:26Z</time>
      </trkpt>
      <trkpt lat="45.01735" lon="5.47245">
        <ele>1312.06940288</ele>
        <time>2021-02-18T12:33:36Z</time>
      </trkpt>
      <trkpt lat="45.01738" lon="5.47233">
        <ele>1307.06951916</ele>
        <time>2021-02-18T12:34:06Z</time>
      </trkpt>
      <trkpt lat="45.01747" lon="5.47236">
        <ele>1312.06986576</ele>
        <time>2021-02-18T12:34:18Z</time>
      </trkpt>
      <trkpt lat="45.01754" lon="5.4723">
        <ele>1316.07017496</ele>
        <time>2021-02-18T12:34:25Z</time>
      </trkpt>
      <trkpt lat="45.01761" lon="5.47236">
        <ele>1317.07042664</ele>
        <time>2021-02-18T12:34:30Z</time>
      </trkpt>
      <trkpt lat="45.01769" lon="5.47236">
        <ele>1315.07076576</ele>
        <time>2021-02-18T12:34:36Z</time>
      </trkpt>
      <trkpt lat="45.01776" lon="5.47235">
        <ele>1318.0710546</ele>
        <time>2021-02-18T12:34:41Z</time>
      </trkpt>
      <trkpt lat="45.01783" lon="5.47234">
        <ele>1318.071336</ele>
        <time>2021-02-18T12:34:45Z</time>
      </trkpt>
      <trkpt lat="45.01792" lon="5.47235">
        <ele>1315.07167224</ele>
        <time>2021-02-18T12:34:49Z</time>
      </trkpt>
      <trkpt lat="45.01802" lon="5.4724">
        <ele>1311.07206308</ele>
        <time>2021-02-18T12:34:53Z</time>
      </trkpt>
      <trkpt lat="45.01811" lon="5.47241">
        <ele>1310.0724204</ele>
        <time>2021-02-18T12:34:57Z</time>
      </trkpt>
      <trkpt lat="45.01818" lon="5.47247">
        <ele>1309.0727142</ele>
        <time>2021-02-18T12:35:01Z</time>
      </trkpt>
      <trkpt lat="45.01825" lon="5.4725">
        <ele>1308.0730016</ele>
        <time>2021-02-18T12:35:05Z</time>
      </trkpt>
      <trkpt lat="45.01836" lon="5.47252">
        <ele>1307.07342736</ele>
        <time>2021-02-18T12:35:09Z</time>
      </trkpt>
      <trkpt lat="45.01847" lon="5.47259">
        <ele>1305.07386448</ele>
        <time>2021-02-18T12:35:14Z</time>
      </trkpt>
      <trkpt lat="45.01857" lon="5.4727">
        <ele>1302.07427004</ele>
        <time>2021-02-18T12:35:19Z</time>
      </trkpt>
      <trkpt lat="45.01865" lon="5.47279">
        <ele>1303.07460656</ele>
        <time>2021-02-18T12:35:23Z</time>
      </trkpt>
      <trkpt lat="45.01874" lon="5.47287">
        <ele>1304.07494716</ele>
        <time>2021-02-18T12:35:27Z</time>
      </trkpt>
      <trkpt lat="45.01881" lon="5.47293">
        <ele>1304.07523192</ele>
        <time>2021-02-18T12:35:31Z</time>
      </trkpt>
      <trkpt lat="45.01891" lon="5.47298">
        <ele>1303.07563592</ele>
        <time>2021-02-18T12:35:36Z</time>
      </trkpt>
      <trkpt lat="45.019" lon="5.473">
        <ele>1303.07601348</ele>
        <time>2021-02-18T12:35:40Z</time>
      </trkpt>
      <trkpt lat="45.0191" lon="5.47303">
        <ele>1303.076398</ele>
        <time>2021-02-18T12:35:44Z</time>
      </trkpt>
      <trkpt lat="45.01919" lon="5.47305">
        <ele>1306.07675264</ele>
        <time>2021-02-18T12:35:48Z</time>
      </trkpt>
      <trkpt lat="45.01927" lon="5.47305">
        <ele>1309.07707848</ele>
        <time>2021-02-18T12:35:53Z</time>
      </trkpt>
      <trkpt lat="45.0194" lon="5.47309">
        <ele>1309.07757844</ele>
        <time>2021-02-18T12:35:58Z</time>
      </trkpt>
      <trkpt lat="45.01952" lon="5.4732">
        <ele>1302.07808724</ele>
        <time>2021-02-18T12:36:02Z</time>
      </trkpt>
      <trkpt lat="45.01962" lon="5.47327">
        <ele>1298.07849548</ele>
        <time>2021-02-18T12:36:07Z</time>
      </trkpt>
      <trkpt lat="45.01974" lon="5.47328">
        <ele>1296.0789384</ele>
        <time>2021-02-18T12:36:12Z</time>
      </trkpt>
      <trkpt lat="45.01981" lon="5.47325">
        <ele>1297.07924544</ele>
        <time>2021-02-18T12:36:19Z</time>
      </trkpt>
      <trkpt lat="45.01992" lon="5.47324">
        <ele>1299.07967988</ele>
        <time>2021-02-18T12:36:24Z</time>
      </trkpt>
      <trkpt lat="45.02" lon="5.47323">
        <ele>1299.0800122</ele>
        <time>2021-02-18T12:36:28Z</time>
      </trkpt>
      <trkpt lat="45.02007" lon="5.47317">
        <ele>1298.08028608</ele>
        <time>2021-02-18T12:36:32Z</time>
      </trkpt>
      <trkpt lat="45.02017" lon="5.47313">
        <ele>1297.08066836</ele>
        <time>2021-02-18T12:36:36Z</time>
      </trkpt>
      <trkpt lat="45.02024" lon="5.47303">
        <ele>1299.08094528</ele>
        <time>2021-02-18T12:36:41Z</time>
      </trkpt>
      <trkpt lat="45.02029" lon="5.47291">
        <ele>1302.08116996</ele>
        <time>2021-02-18T12:36:45Z</time>
      </trkpt>
      <trkpt lat="45.02036" lon="5.47285">
        <ele>1301.08144932</ele>
        <time>2021-02-18T12:36:49Z</time>
      </trkpt>
      <trkpt lat="45.02041" lon="5.47277">
        <ele>1303.08165404</ele>
        <time>2021-02-18T12:36:53Z</time>
      </trkpt>
      <trkpt lat="45.02045" lon="5.47268">
        <ele>1304.08179068</ele>
        <time>2021-02-18T12:36:58Z</time>
      </trkpt>
      <trkpt lat="45.02053" lon="5.47257">
        <ele>1302.08213524</ele>
        <time>2021-02-18T12:37:02Z</time>
      </trkpt>
      <trkpt lat="45.0206" lon="5.47243">
        <ele>1300.08241424</ele>
        <time>2021-02-18T12:37:06Z</time>
      </trkpt>
      <trkpt lat="45.02069" lon="5.47232">
        <ele>1301.08274872</ele>
        <time>2021-02-18T12:37:10Z</time>
      </trkpt>
      <trkpt lat="45.02078" lon="5.47222">
        <ele>1305.08312336</ele>
        <time>2021-02-18T12:37:15Z</time>
      </trkpt>
      <trkpt lat="45.0209" lon="5.47221">
        <ele>1305.08361096</ele>
        <time>2021-02-18T12:37:20Z</time>
      </trkpt>
      <trkpt lat="45.02102" lon="5.47215">
        <ele>1305.0840714</ele>
        <time>2021-02-18T12:37:25Z</time>
      </trkpt>
      <trkpt lat="45.0211" lon="5.47218">
        <ele>1308.08440156</ele>
        <time>2021-02-18T12:37:29Z</time>
      </trkpt>
      <trkpt lat="45.02117" lon="5.47214">
        <ele>1306.08469024</ele>
        <time>2021-02-18T12:37:33Z</time>
      </trkpt>
      <trkpt lat="45.02126" lon="5.4721">
        <ele>1309.08502728</ele>
        <time>2021-02-18T12:37:38Z</time>
      </trkpt>
      <trkpt lat="45.02136" lon="5.47211">
        <ele>1307.08544384</ele>
        <time>2021-02-18T12:37:42Z</time>
      </trkpt>
      <trkpt lat="45.02145" lon="5.47206">
        <ele>1307.0857836</ele>
        <time>2021-02-18T12:37:47Z</time>
      </trkpt>
      <trkpt lat="45.02154" lon="5.47198">
        <ele>1302.086154</ele>
        <time>2021-02-18T12:37:51Z</time>
      </trkpt>
      <trkpt lat="45.02165" lon="5.47195">
        <ele>1300.0865784</ele>
        <time>2021-02-18T12:37:56Z</time>
      </trkpt>
      <trkpt lat="45.02171" lon="5.47192">
        <ele>1301.0868464</ele>
        <time>2021-02-18T12:38:00Z</time>
      </trkpt>
      <trkpt lat="45.0218" lon="5.47192">
        <ele>1300.08718664</ele>
        <time>2021-02-18T12:38:04Z</time>
      </trkpt>
      <trkpt lat="45.0219" lon="5.47185">
        <ele>1300.08759768</ele>
        <time>2021-02-18T12:38:09Z</time>
      </trkpt>
      <trkpt lat="45.02198" lon="5.47182">
        <ele>1301.0879208</ele>
        <time>2021-02-18T12:38:14Z</time>
      </trkpt>
      <trkpt lat="45.02206" lon="5.47178">
        <ele>1301.08823032</ele>
        <time>2021-02-18T12:38:18Z</time>
      </trkpt>
      <trkpt lat="45.02212" lon="5.47172">
        <ele>1302.08849216</ele>
        <time>2021-02-18T12:38:22Z</time>
      </trkpt>
      <trkpt lat="45.02222" lon="5.47165">
        <ele>1298.08886576</ele>
        <time>2021-02-18T12:38:27Z</time>
      </trkpt>
      <trkpt lat="45.02231" lon="5.47164">
        <ele>1303.08922268</ele>
        <time>2021-02-18T12:38:32Z</time>
      </trkpt>
      <trkpt lat="45.0224" lon="5.47166">
        <ele>1306.08958192</ele>
        <time>2021-02-18T12:38:37Z</time>
      </trkpt>
      <trkpt lat="45.02247" lon="5.47163">
        <ele>1307.08986176</ele>
        <time>2021-02-18T12:38:41Z</time>
      </trkpt>
      <trkpt lat="45.02256" lon="5.47165">
        <ele>1306.09023968</ele>
        <time>2021-02-18T12:38:45Z</time>
      </trkpt>
      <trkpt lat="45.02264" lon="5.47166">
        <ele>1307.090551</ele>
        <time>2021-02-18T12:38:51Z</time>
      </trkpt>
      <trkpt lat="45.02272" lon="5.47169">
        <ele>1305.09087064</ele>
        <time>2021-02-18T12:38:55Z</time>
      </trkpt>
      <trkpt lat="45.0228" lon="5.47171">
        <ele>1305.09118132</ele>
        <time>2021-02-18T12:39:00Z</time>
      </trkpt>
      <trkpt lat="45.02288" lon="5.47175">
        <ele>1303.09151996</ele>
        <time>2021-02-18T12:39:05Z</time>
      </trkpt>
      <trkpt lat="45.02295" lon="5.47182">
        <ele>1301.09180912</ele>
        <time>2021-02-18T12:39:10Z</time>
      </trkpt>
      <trkpt lat="45.02303" lon="5.47185">
        <ele>1303.09210828</ele>
        <time>2021-02-18T12:39:16Z</time>
      </trkpt>
      <trkpt lat="45.0231" lon="5.47188">
        <ele>1304.09240344</ele>
        <time>2021-02-18T12:39:20Z</time>
      </trkpt>
      <trkpt lat="45.02318" lon="5.47187">
        <ele>1303.09271448</ele>
        <time>2021-02-18T12:39:24Z</time>
      </trkpt>
      <trkpt lat="45.02327" lon="5.47185">
        <ele>1302.09307428</ele>
        <time>2021-02-18T12:39:29Z</time>
      </trkpt>
      <trkpt lat="45.02335" lon="5.47184">
        <ele>1303.0934026</ele>
        <time>2021-02-18T12:39:33Z</time>
      </trkpt>
      <trkpt lat="45.02345" lon="5.47185">
        <ele>1306.09379692</ele>
        <time>2021-02-18T12:39:38Z</time>
      </trkpt>
      <trkpt lat="45.02353" lon="5.47186">
        <ele>1308.09410424</ele>
        <time>2021-02-18T12:39:43Z</time>
      </trkpt>
      <trkpt lat="45.02361" lon="5.47189">
        <ele>1309.09444996</ele>
        <time>2021-02-18T12:39:48Z</time>
      </trkpt>
      <trkpt lat="45.02372" lon="5.47189">
        <ele>1303.09487424</ele>
        <time>2021-02-18T12:39:52Z</time>
      </trkpt>
      <trkpt lat="45.02379" lon="5.47189">
        <ele>1307.09516388</ele>
        <time>2021-02-18T12:39:57Z</time>
      </trkpt>
      <trkpt lat="45.02388" lon="5.47188">
        <ele>1306.095501</ele>
        <time>2021-02-18T12:40:01Z</time>
      </trkpt>
      <trkpt lat="45.02396" lon="5.47187">
        <ele>1308.09582028</ele>
        <time>2021-02-18T12:40:06Z</time>
      </trkpt>
      <trkpt lat="45.02404" lon="5.47189">
        <ele>1310.09617196</ele>
        <time>2021-02-18T12:40:12Z</time>
      </trkpt>
      <trkpt lat="45.02411" lon="5.47185">
        <ele>1314.09644532</ele>
        <time>2021-02-18T12:40:18Z</time>
      </trkpt>
      <trkpt lat="45.0242" lon="5.47184">
        <ele>1317.09679888</ele>
        <time>2021-02-18T12:40:23Z</time>
      </trkpt>
      <trkpt lat="45.02429" lon="5.47186">
        <ele>1318.09714644</ele>
        <time>2021-02-18T12:40:28Z</time>
      </trkpt>
      <trkpt lat="45.02436" lon="5.47185">
        <ele>1317.09745528</ele>
        <time>2021-02-18T12:40:32Z</time>
      </trkpt>
      <trkpt lat="45.02446" lon="5.47189">
        <ele>1312.09782468</ele>
        <time>2021-02-18T12:40:36Z</time>
      </trkpt>
      <trkpt lat="45.02454" lon="5.47189">
        <ele>1311.09816876</ele>
        <time>2021-02-18T12:40:40Z</time>
      </trkpt>
      <trkpt lat="45.02463" lon="5.47187">
        <ele>1312.09850156</ele>
        <time>2021-02-18T12:40:45Z</time>
      </trkpt>
      <trkpt lat="45.02472" lon="5.47188">
        <ele>1309.09888268</ele>
        <time>2021-02-18T12:40:49Z</time>
      </trkpt>
      <trkpt lat="45.02482" lon="5.47188">
        <ele>1305.09929108</ele>
        <time>2021-02-18T12:40:53Z</time>
      </trkpt>
      <trkpt lat="45.0249" lon="5.47191">
        <ele>1310.09959056</ele>
        <time>2021-02-18T12:40:59Z</time>
      </trkpt>
      <trkpt lat="45.02497" lon="5.47189">
        <ele>1311.09989568</ele>
        <time>2021-02-18T12:41:04Z</time>
      </trkpt>
      <trkpt lat="45.02503" lon="5.47189">
        <ele>1313.10013564</ele>
        <time>2021-02-18T12:41:08Z</time>
      </trkpt>
      <trkpt lat="45.02512" lon="5.47192">
        <ele>1311.10047144</ele>
        <time>2021-02-18T12:41:12Z</time>
      </trkpt>
      <trkpt lat="45.02521" lon="5.47193">
        <ele>1308.10081848</ele>
        <time>2021-02-18T12:41:16Z</time>
      </trkpt>
      <trkpt lat="45.02529" lon="5.47194">
        <ele>1307.10115744</ele>
        <time>2021-02-18T12:41:20Z</time>
      </trkpt>
      <trkpt lat="45.02538" lon="5.47195">
        <ele>1310.10150656</ele>
        <time>2021-02-18T12:41:27Z</time>
      </trkpt>
      <trkpt lat="45.02549" lon="5.47199">
        <ele>1306.10194648</ele>
        <time>2021-02-18T12:41:31Z</time>
      </trkpt>
      <trkpt lat="45.02556" lon="5.47202">
        <ele>1306.10224888</ele>
        <time>2021-02-18T12:41:36Z</time>
      </trkpt>
      <trkpt lat="45.02564" lon="5.47204">
        <ele>1308.10257788</ele>
        <time>2021-02-18T12:41:42Z</time>
      </trkpt>
      <trkpt lat="45.02572" lon="5.47207">
        <ele>1310.10286076</ele>
        <time>2021-02-18T12:41:47Z</time>
      </trkpt>
      <trkpt lat="45.02579" lon="5.47206">
        <ele>1312.10317564</ele>
        <time>2021-02-18T12:41:52Z</time>
      </trkpt>
      <trkpt lat="45.02591" lon="5.47209">
        <ele>1314.1036196</ele>
        <time>2021-02-18T12:41:56Z</time>
      </trkpt>
      <trkpt lat="45.02599" lon="5.47211">
        <ele>1315.10397532</ele>
        <time>2021-02-18T12:42:01Z</time>
      </trkpt>
      <trkpt lat="45.02609" lon="5.47218">
        <ele>1313.10437188</ele>
        <time>2021-02-18T12:42:05Z</time>
      </trkpt>
      <trkpt lat="45.0262" lon="5.47223">
        <ele>1314.1048006</ele>
        <time>2021-02-18T12:42:10Z</time>
      </trkpt>
      <trkpt lat="45.02628" lon="5.47222">
        <ele>1315.10512256</ele>
        <time>2021-02-18T12:42:14Z</time>
      </trkpt>
      <trkpt lat="45.02634" lon="5.47227">
        <ele>1316.1053432</ele>
        <time>2021-02-18T12:42:18Z</time>
      </trkpt>
      <trkpt lat="45.02644" lon="5.47232">
        <ele>1315.10577416</ele>
        <time>2021-02-18T12:42:23Z</time>
      </trkpt>
      <trkpt lat="45.02653" lon="5.47235">
        <ele>1323.1061002</ele>
        <time>2021-02-18T12:42:30Z</time>
      </trkpt>
      <trkpt lat="45.0266" lon="5.47235">
        <ele>1326.10640464</ele>
        <time>2021-02-18T12:42:37Z</time>
      </trkpt>
      <trkpt lat="45.02669" lon="5.47238">
        <ele>1324.10677744</ele>
        <time>2021-02-18T12:42:41Z</time>
      </trkpt>
      <trkpt lat="45.02675" lon="5.47242">
        <ele>1321.1070138</ele>
        <time>2021-02-18T12:42:46Z</time>
      </trkpt>
      <trkpt lat="45.02684" lon="5.47243">
        <ele>1322.10734492</ele>
        <time>2021-02-18T12:42:53Z</time>
      </trkpt>
      <trkpt lat="45.02692" lon="5.47243">
        <ele>1322.10769004</ele>
        <time>2021-02-18T12:42:59Z</time>
      </trkpt>
      <trkpt lat="45.02701" lon="5.47242">
        <ele>1317.10802704</ele>
        <time>2021-02-18T12:43:03Z</time>
      </trkpt>
      <trkpt lat="45.02707" lon="5.47245">
        <ele>1317.1082934</ele>
        <time>2021-02-18T12:43:08Z</time>
      </trkpt>
      <trkpt lat="45.02714" lon="5.47246">
        <ele>1315.10856912</ele>
        <time>2021-02-18T12:43:12Z</time>
      </trkpt>
      <trkpt lat="45.02723" lon="5.47246">
        <ele>1316.10890608</ele>
        <time>2021-02-18T12:43:19Z</time>
      </trkpt>
      <trkpt lat="45.02731" lon="5.47249">
        <ele>1319.10923932</ele>
        <time>2021-02-18T12:43:25Z</time>
      </trkpt>
      <trkpt lat="45.02739" lon="5.4725">
        <ele>1317.1095524</ele>
        <time>2021-02-18T12:43:29Z</time>
      </trkpt>
      <trkpt lat="45.02746" lon="5.47246">
        <ele>1317.10984152</ele>
        <time>2021-02-18T12:43:34Z</time>
      </trkpt>
      <trkpt lat="45.02755" lon="5.47243">
        <ele>1317.11017904</ele>
        <time>2021-02-18T12:43:39Z</time>
      </trkpt>
      <trkpt lat="45.02762" lon="5.47248">
        <ele>1316.11049412</ele>
        <time>2021-02-18T12:43:44Z</time>
      </trkpt>
      <trkpt lat="45.02769" lon="5.47243">
        <ele>1316.11075988</ele>
        <time>2021-02-18T12:43:49Z</time>
      </trkpt>
      <trkpt lat="45.02777" lon="5.47239">
        <ele>1319.1110886</ele>
        <time>2021-02-18T12:43:56Z</time>
      </trkpt>
      <trkpt lat="45.02785" lon="5.47234">
        <ele>1319.111414</ele>
        <time>2021-02-18T12:44:02Z</time>
      </trkpt>
      <trkpt lat="45.02794" lon="5.47231">
        <ele>1319.11177564</ele>
        <time>2021-02-18T12:44:07Z</time>
      </trkpt>
      <trkpt lat="45.02802" lon="5.47226">
        <ele>1322.11208952</ele>
        <time>2021-02-18T12:44:14Z</time>
      </trkpt>
      <trkpt lat="45.02811" lon="5.47224">
        <ele>1325.11243816</ele>
        <time>2021-02-18T12:44:21Z</time>
      </trkpt>
      <trkpt lat="45.0282" lon="5.47224">
        <ele>1324.11279704</ele>
        <time>2021-02-18T12:44:27Z</time>
      </trkpt>
      <trkpt lat="45.02827" lon="5.47229">
        <ele>1323.11308912</ele>
        <time>2021-02-18T12:44:32Z</time>
      </trkpt>
      <trkpt lat="45.02836" lon="5.47232">
        <ele>1320.11341828</ele>
        <time>2021-02-18T12:44:36Z</time>
      </trkpt>
      <trkpt lat="45.02847" lon="5.47234">
        <ele>1317.1138638</ele>
        <time>2021-02-18T12:44:40Z</time>
      </trkpt>
      <trkpt lat="45.02855" lon="5.47236">
        <ele>1318.11419444</ele>
        <time>2021-02-18T12:44:47Z</time>
      </trkpt>
      <trkpt lat="45.02864" lon="5.47244">
        <ele>1315.11456476</ele>
        <time>2021-02-18T12:44:51Z</time>
      </trkpt>
      <trkpt lat="45.02873" lon="5.47242">
        <ele>1316.11490812</ele>
        <time>2021-02-18T12:44:58Z</time>
      </trkpt>
      <trkpt lat="45.02881" lon="5.47246">
        <ele>1319.11522944</ele>
        <time>2021-02-18T12:45:05Z</time>
      </trkpt>
      <trkpt lat="45.02889" lon="5.47251">
        <ele>1314.11556816</ele>
        <time>2021-02-18T12:45:10Z</time>
      </trkpt>
      <trkpt lat="45.02896" lon="5.47257">
        <ele>1318.1158422</ele>
        <time>2021-02-18T12:45:17Z</time>
      </trkpt>
      <trkpt lat="45.02904" lon="5.47262">
        <ele>1326.1161718</ele>
        <time>2021-02-18T12:47:27Z</time>
      </trkpt>
      <trkpt lat="45.02912" lon="5.47264">
        <ele>1324.11648792</ele>
        <time>2021-02-18T12:47:50Z</time>
      </trkpt>
      <trkpt lat="45.02921" lon="5.47266">
        <ele>1325.11682212</ele>
        <time>2021-02-18T12:47:55Z</time>
      </trkpt>
      <trkpt lat="45.02927" lon="5.47262">
        <ele>1324.117094</ele>
        <time>2021-02-18T12:47:59Z</time>
      </trkpt>
      <trkpt lat="45.02936" lon="5.4726">
        <ele>1322.1174444</ele>
        <time>2021-02-18T12:48:04Z</time>
      </trkpt>
      <trkpt lat="45.02943" lon="5.47255">
        <ele>1323.11773772</ele>
        <time>2021-02-18T12:48:10Z</time>
      </trkpt>
      <trkpt lat="45.02952" lon="5.47256">
        <ele>1321.11808816</ele>
        <time>2021-02-18T12:48:15Z</time>
      </trkpt>
      <trkpt lat="45.02961" lon="5.4726">
        <ele>1321.11842352</ele>
        <time>2021-02-18T12:48:20Z</time>
      </trkpt>
      <trkpt lat="45.02969" lon="5.47263">
        <ele>1323.11876192</ele>
        <time>2021-02-18T12:48:28Z</time>
      </trkpt>
      <trkpt lat="45.02977" lon="5.47265">
        <ele>1323.11907232</ele>
        <time>2021-02-18T12:48:33Z</time>
      </trkpt>
      <trkpt lat="45.02986" lon="5.47264">
        <ele>1325.1194266</ele>
        <time>2021-02-18T12:48:41Z</time>
      </trkpt>
      <trkpt lat="45.02994" lon="5.47267">
        <ele>1330.11976216</ele>
        <time>2021-02-18T12:48:48Z</time>
      </trkpt>
      <trkpt lat="45.03003" lon="5.47269">
        <ele>1330.12009904</ele>
        <time>2021-02-18T12:48:55Z</time>
      </trkpt>
      <trkpt lat="45.03014" lon="5.47271">
        <ele>1326.12053956</ele>
        <time>2021-02-18T12:48:59Z</time>
      </trkpt>
      <trkpt lat="45.03022" lon="5.4727">
        <ele>1330.12087344</ele>
        <time>2021-02-18T12:49:05Z</time>
      </trkpt>
      <trkpt lat="45.0303" lon="5.4727">
        <ele>1330.12118104</ele>
        <time>2021-02-18T12:49:10Z</time>
      </trkpt>
      <trkpt lat="45.03037" lon="5.47266">
        <ele>1333.1214908</ele>
        <time>2021-02-18T12:49:17Z</time>
      </trkpt>
      <trkpt lat="45.03045" lon="5.47269">
        <ele>1335.1218022</ele>
        <time>2021-02-18T12:49:24Z</time>
      </trkpt>
      <trkpt lat="45.03054" lon="5.47272">
        <ele>1331.1221462</ele>
        <time>2021-02-18T12:49:29Z</time>
      </trkpt>
      <trkpt lat="45.03061" lon="5.47274">
        <ele>1332.12244588</ele>
        <time>2021-02-18T12:49:35Z</time>
      </trkpt>
      <trkpt lat="45.0307" lon="5.47272">
        <ele>1335.12277976</ele>
        <time>2021-02-18T12:49:41Z</time>
      </trkpt>
      <trkpt lat="45.03078" lon="5.47272">
        <ele>1337.12310852</ele>
        <time>2021-02-18T12:49:48Z</time>
      </trkpt>
      <trkpt lat="45.03085" lon="5.47277">
        <ele>1335.12340472</ele>
        <time>2021-02-18T12:49:52Z</time>
      </trkpt>
      <trkpt lat="45.03093" lon="5.47279">
        <ele>1335.1237332</ele>
        <time>2021-02-18T12:49:59Z</time>
      </trkpt>
      <trkpt lat="45.03101" lon="5.47281">
        <ele>1333.12404192</ele>
        <time>2021-02-18T12:50:03Z</time>
      </trkpt>
      <trkpt lat="45.03109" lon="5.47287">
        <ele>1333.12434332</ele>
        <time>2021-02-18T12:50:08Z</time>
      </trkpt>
      <trkpt lat="45.03117" lon="5.47293">
        <ele>1331.12467732</ele>
        <time>2021-02-18T12:50:13Z</time>
      </trkpt>
      <trkpt lat="45.03125" lon="5.47293">
        <ele>1331.12501376</ele>
        <time>2021-02-18T12:50:18Z</time>
      </trkpt>
      <trkpt lat="45.03133" lon="5.47295">
        <ele>1335.12531324</ele>
        <time>2021-02-18T12:50:23Z</time>
      </trkpt>
      <trkpt lat="45.03139" lon="5.473">
        <ele>1333.12556544</ele>
        <time>2021-02-18T12:50:27Z</time>
      </trkpt>
      <trkpt lat="45.03147" lon="5.47304">
        <ele>1335.12588204</ele>
        <time>2021-02-18T12:50:34Z</time>
      </trkpt>
      <trkpt lat="45.03155" lon="5.4731">
        <ele>1338.12618744</ele>
        <time>2021-02-18T12:50:40Z</time>
      </trkpt>
      <trkpt lat="45.03163" lon="5.47314">
        <ele>1342.12652</ele>
        <time>2021-02-18T12:50:50Z</time>
      </trkpt>
      <trkpt lat="45.03171" lon="5.47316">
        <ele>1345.1268188</ele>
        <time>2021-02-18T12:50:57Z</time>
      </trkpt>
      <trkpt lat="45.03177" lon="5.47319">
        <ele>1349.12708952</ele>
        <time>2021-02-18T12:51:03Z</time>
      </trkpt>
      <trkpt lat="45.03184" lon="5.47327">
        <ele>1348.12734308</ele>
        <time>2021-02-18T12:51:10Z</time>
      </trkpt>
      <trkpt lat="45.03192" lon="5.47328">
        <ele>1347.12767832</ele>
        <time>2021-02-18T12:51:15Z</time>
      </trkpt>
      <trkpt lat="45.03199" lon="5.47329">
        <ele>1351.12797276</ele>
        <time>2021-02-18T12:51:20Z</time>
      </trkpt>
      <trkpt lat="45.03213" lon="5.47333">
        <ele>1347.12851012</ele>
        <time>2021-02-18T12:51:25Z</time>
      </trkpt>
      <trkpt lat="45.03221" lon="5.47337">
        <ele>1347.12884372</ele>
        <time>2021-02-18T12:51:32Z</time>
      </trkpt>
      <trkpt lat="45.03229" lon="5.4734">
        <ele>1345.12917648</ele>
        <time>2021-02-18T12:51:38Z</time>
      </trkpt>
      <trkpt lat="45.03237" lon="5.47342">
        <ele>1344.1294858</ele>
        <time>2021-02-18T12:51:44Z</time>
      </trkpt>
      <trkpt lat="45.03247" lon="5.4735">
        <ele>1341.12987756</ele>
        <time>2021-02-18T12:51:49Z</time>
      </trkpt>
      <trkpt lat="45.03255" lon="5.47354">
        <ele>1341.13019256</ele>
        <time>2021-02-18T12:51:53Z</time>
      </trkpt>
      <trkpt lat="45.03263" lon="5.47357">
        <ele>1341.13050024</ele>
        <time>2021-02-18T12:51:58Z</time>
      </trkpt>
      <trkpt lat="45.03271" lon="5.47359">
        <ele>1339.13082436</ele>
        <time>2021-02-18T12:52:03Z</time>
      </trkpt>
      <trkpt lat="45.03277" lon="5.47368">
        <ele>1338.13107188</ele>
        <time>2021-02-18T12:52:08Z</time>
      </trkpt>
      <trkpt lat="45.03283" lon="5.47376">
        <ele>1332.1313066</ele>
        <time>2021-02-18T12:52:21Z</time>
      </trkpt>
      <trkpt lat="45.0329" lon="5.47382">
        <ele>1330.1316172</ele>
        <time>2021-02-18T12:52:30Z</time>
      </trkpt>
      <trkpt lat="45.03298" lon="5.47387">
        <ele>1334.13190888</ele>
        <time>2021-02-18T12:52:36Z</time>
      </trkpt>
      <trkpt lat="45.033" lon="5.47397">
        <ele>1328.13201232</ele>
        <time>2021-02-18T12:52:43Z</time>
      </trkpt>
      <trkpt lat="45.03308" lon="5.47401">
        <ele>1327.13232852</ele>
        <time>2021-02-18T12:52:49Z</time>
      </trkpt>
      <trkpt lat="45.03314" lon="5.47407">
        <ele>1331.1325746</ele>
        <time>2021-02-18T12:52:54Z</time>
      </trkpt>
      <trkpt lat="45.03324" lon="5.4741">
        <ele>1330.13295796</ele>
        <time>2021-02-18T12:52:59Z</time>
      </trkpt>
      <trkpt lat="45.0333" lon="5.47417">
        <ele>1332.1332094</ele>
        <time>2021-02-18T12:53:05Z</time>
      </trkpt>
      <trkpt lat="45.03333" lon="5.47428">
        <ele>1331.1333234</ele>
        <time>2021-02-18T12:53:11Z</time>
      </trkpt>
      <trkpt lat="45.03338" lon="5.47438">
        <ele>1329.133518</ele>
        <time>2021-02-18T12:53:18Z</time>
      </trkpt>
      <trkpt lat="45.03342" lon="5.47448">
        <ele>1331.13368824</ele>
        <time>2021-02-18T12:53:25Z</time>
      </trkpt>
      <trkpt lat="45.03348" lon="5.47458">
        <ele>1331.13391796</ele>
        <time>2021-02-18T12:53:32Z</time>
      </trkpt>
      <trkpt lat="45.03352" lon="5.47467">
        <ele>1333.13406152</ele>
        <time>2021-02-18T12:53:37Z</time>
      </trkpt>
      <trkpt lat="45.03352" lon="5.47478">
        <ele>1332.13407272</ele>
        <time>2021-02-18T12:53:42Z</time>
      </trkpt>
      <trkpt lat="45.03354" lon="5.47489">
        <ele>1332.13415788</ele>
        <time>2021-02-18T12:53:48Z</time>
      </trkpt>
      <trkpt lat="45.03358" lon="5.47498">
        <ele>1335.13430116</ele>
        <time>2021-02-18T12:53:54Z</time>
      </trkpt>
      <trkpt lat="45.0336" lon="5.4751">
        <ele>1338.1343816</ele>
        <time>2021-02-18T12:54:00Z</time>
      </trkpt>
      <trkpt lat="45.03361" lon="5.47522">
        <ele>1340.13445104</ele>
        <time>2021-02-18T12:54:07Z</time>
      </trkpt>
      <trkpt lat="45.03362" lon="5.47534">
        <ele>1338.13445928</ele>
        <time>2021-02-18T12:54:36Z</time>
      </trkpt>
      <trkpt lat="45.03367" lon="5.47543">
        <ele>1342.1346892</ele>
        <time>2021-02-18T12:54:48Z</time>
      </trkpt>
      <trkpt lat="45.03376" lon="5.47545">
        <ele>1340.13502272</ele>
        <time>2021-02-18T12:54:54Z</time>
      </trkpt>
      <trkpt lat="45.03383" lon="5.47551">
        <ele>1340.1353088</ele>
        <time>2021-02-18T12:55:04Z</time>
      </trkpt>
      <trkpt lat="45.0339" lon="5.47557">
        <ele>1345.13559664</ele>
        <time>2021-02-18T12:55:14Z</time>
      </trkpt>
      <trkpt lat="45.03398" lon="5.4756">
        <ele>1348.13592904</ele>
        <time>2021-02-18T12:55:21Z</time>
      </trkpt>
      <trkpt lat="45.03407" lon="5.47562">
        <ele>1344.13627596</ele>
        <time>2021-02-18T12:55:25Z</time>
      </trkpt>
      <trkpt lat="45.03413" lon="5.47571">
        <ele>1343.13651672</ele>
        <time>2021-02-18T12:55:30Z</time>
      </trkpt>
      <trkpt lat="45.03418" lon="5.4758">
        <ele>1343.13673392</ele>
        <time>2021-02-18T12:55:36Z</time>
      </trkpt>
      <trkpt lat="45.03421" lon="5.47591">
        <ele>1341.13685236</ele>
        <time>2021-02-18T12:55:42Z</time>
      </trkpt>
      <trkpt lat="45.03426" lon="5.47602">
        <ele>1344.1370204</ele>
        <time>2021-02-18T12:55:49Z</time>
      </trkpt>
      <trkpt lat="45.03426" lon="5.47614">
        <ele>1344.137046</ele>
        <time>2021-02-18T12:55:56Z</time>
      </trkpt>
      <trkpt lat="45.0343" lon="5.47625">
        <ele>1341.13720432</ele>
        <time>2021-02-18T12:56:02Z</time>
      </trkpt>
      <trkpt lat="45.03431" lon="5.47638">
        <ele>1341.137257</ele>
        <time>2021-02-18T12:56:11Z</time>
      </trkpt>
      <trkpt lat="45.0343" lon="5.4765">
        <ele>1351.13720272</ele>
        <time>2021-02-18T12:58:01Z</time>
      </trkpt>
      <trkpt lat="45.03432" lon="5.47661">
        <ele>1348.13729636</ele>
        <time>2021-02-18T13:00:34Z</time>
      </trkpt>
      <trkpt lat="45.03436" lon="5.47673">
        <ele>1348.13742672</ele>
        <time>2021-02-18T13:00:41Z</time>
      </trkpt>
      <trkpt lat="45.03439" lon="5.47683">
        <ele>1346.13754008</ele>
        <time>2021-02-18T13:00:47Z</time>
      </trkpt>
      <trkpt lat="45.03442" lon="5.47693">
        <ele>1348.13768448</ele>
        <time>2021-02-18T13:00:54Z</time>
      </trkpt>
      <trkpt lat="45.03449" lon="5.47701">
        <ele>1346.13795956</ele>
        <time>2021-02-18T13:01:00Z</time>
      </trkpt>
      <trkpt lat="45.03456" lon="5.47709">
        <ele>1351.13822452</ele>
        <time>2021-02-18T13:04:59Z</time>
      </trkpt>
      <trkpt lat="45.03467" lon="5.4771">
        <ele>1347.13867824</ele>
        <time>2021-02-18T13:05:04Z</time>
      </trkpt>
      <trkpt lat="45.03475" lon="5.4771">
        <ele>1349.13901516</ele>
        <time>2021-02-18T13:05:11Z</time>
      </trkpt>
      <trkpt lat="45.03484" lon="5.47708">
        <ele>1348.13936792</ele>
        <time>2021-02-18T13:05:17Z</time>
      </trkpt>
      <trkpt lat="45.03491" lon="5.47703">
        <ele>1348.13962712</ele>
        <time>2021-02-18T13:05:25Z</time>
      </trkpt>
      <trkpt lat="45.03498" lon="5.47699">
        <ele>1347.13993268</ele>
        <time>2021-02-18T13:05:30Z</time>
      </trkpt>
      <trkpt lat="45.03505" lon="5.47692">
        <ele>1346.14019788</ele>
        <time>2021-02-18T13:05:35Z</time>
      </trkpt>
      <trkpt lat="45.03512" lon="5.47691">
        <ele>1349.14049788</ele>
        <time>2021-02-18T13:05:40Z</time>
      </trkpt>
      <trkpt lat="45.03521" lon="5.4769">
        <ele>1349.1408358</ele>
        <time>2021-02-18T13:05:45Z</time>
      </trkpt>
      <trkpt lat="45.03527" lon="5.47689">
        <ele>1351.14107256</ele>
        <time>2021-02-18T13:05:50Z</time>
      </trkpt>
      <trkpt lat="45.03536" lon="5.47686">
        <ele>1348.141454</ele>
        <time>2021-02-18T13:05:55Z</time>
      </trkpt>
      <trkpt lat="45.03541" lon="5.4768">
        <ele>1350.14165696</ele>
        <time>2021-02-18T13:06:01Z</time>
      </trkpt>
      <trkpt lat="45.0355" lon="5.47679">
        <ele>1355.14201304</ele>
        <time>2021-02-18T13:06:08Z</time>
      </trkpt>
      <trkpt lat="45.03556" lon="5.47675">
        <ele>1363.14224644</ele>
        <time>2021-02-18T13:06:15Z</time>
      </trkpt>
      <trkpt lat="45.03566" lon="5.47672">
        <ele>1362.14264104</ele>
        <time>2021-02-18T13:06:20Z</time>
      </trkpt>
      <trkpt lat="45.03573" lon="5.4767">
        <ele>1365.14291752</ele>
        <time>2021-02-18T13:06:25Z</time>
      </trkpt>
      <trkpt lat="45.0358" lon="5.47663">
        <ele>1368.143179</ele>
        <time>2021-02-18T13:06:32Z</time>
      </trkpt>
      <trkpt lat="45.03592" lon="5.47663">
        <ele>1366.14366652</ele>
        <time>2021-02-18T13:06:36Z</time>
      </trkpt>
      <trkpt lat="45.03603" lon="5.47664">
        <ele>1365.14412696</ele>
        <time>2021-02-18T13:06:41Z</time>
      </trkpt>
      <trkpt lat="45.0361" lon="5.47662">
        <ele>1365.14441792</ele>
        <time>2021-02-18T13:06:47Z</time>
      </trkpt>
      <trkpt lat="45.03619" lon="5.47662">
        <ele>1366.1447568</ele>
        <time>2021-02-18T13:06:53Z</time>
      </trkpt>
      <trkpt lat="45.03626" lon="5.47659">
        <ele>1366.14501912</ele>
        <time>2021-02-18T13:06:57Z</time>
      </trkpt>
      <trkpt lat="45.03633" lon="5.47655">
        <ele>1366.14531856</ele>
        <time>2021-02-18T13:07:02Z</time>
      </trkpt>
      <trkpt lat="45.0364" lon="5.47651">
        <ele>1368.14561164</ele>
        <time>2021-02-18T13:07:07Z</time>
      </trkpt>
      <trkpt lat="45.03647" lon="5.47645">
        <ele>1370.14587944</ele>
        <time>2021-02-18T13:07:14Z</time>
      </trkpt>
      <trkpt lat="45.03656" lon="5.4764">
        <ele>1369.1462316</ele>
        <time>2021-02-18T13:07:19Z</time>
      </trkpt>
      <trkpt lat="45.03664" lon="5.4764">
        <ele>1368.1465658</ele>
        <time>2021-02-18T13:07:24Z</time>
      </trkpt>
      <trkpt lat="45.03672" lon="5.47639">
        <ele>1371.14689392</ele>
        <time>2021-02-18T13:07:28Z</time>
      </trkpt>
      <trkpt lat="45.03683" lon="5.47646">
        <ele>1369.14733788</ele>
        <time>2021-02-18T13:07:32Z</time>
      </trkpt>
      <trkpt lat="45.03695" lon="5.47647">
        <ele>1364.14779316</ele>
        <time>2021-02-18T13:07:37Z</time>
      </trkpt>
      <trkpt lat="45.03704" lon="5.47647">
        <ele>1361.14817056</ele>
        <time>2021-02-18T13:07:41Z</time>
      </trkpt>
      <trkpt lat="45.03712" lon="5.47645">
        <ele>1360.14848724</ele>
        <time>2021-02-18T13:07:46Z</time>
      </trkpt>
      <trkpt lat="45.03721" lon="5.47645">
        <ele>1364.14882484</ele>
        <time>2021-02-18T13:07:52Z</time>
      </trkpt>
      <trkpt lat="45.03734" lon="5.47649">
        <ele>1354.14934944</ele>
        <time>2021-02-18T13:07:56Z</time>
      </trkpt>
      <trkpt lat="45.03743" lon="5.47644">
        <ele>1352.14972352</ele>
        <time>2021-02-18T13:08:01Z</time>
      </trkpt>
      <trkpt lat="45.0375" lon="5.47641">
        <ele>1351.14999376</ele>
        <time>2021-02-18T13:08:05Z</time>
      </trkpt>
      <trkpt lat="45.03757" lon="5.47634">
        <ele>1354.1502794</ele>
        <time>2021-02-18T13:08:13Z</time>
      </trkpt>
      <trkpt lat="45.03765" lon="5.47633">
        <ele>1352.15061596</ele>
        <time>2021-02-18T13:08:19Z</time>
      </trkpt>
      <trkpt lat="45.03774" lon="5.47631">
        <ele>1351.15094688</ele>
        <time>2021-02-18T13:08:24Z</time>
      </trkpt>
      <trkpt lat="45.03782" lon="5.47626">
        <ele>1352.15127024</ele>
        <time>2021-02-18T13:08:28Z</time>
      </trkpt>
      <trkpt lat="45.03793" lon="5.47623">
        <ele>1357.15170096</ele>
        <time>2021-02-18T13:08:33Z</time>
      </trkpt>
      <trkpt lat="45.03799" lon="5.47616">
        <ele>1360.15194448</ele>
        <time>2021-02-18T13:08:40Z</time>
      </trkpt>
      <trkpt lat="45.03803" lon="5.47612">
        <ele>1362.15213184</ele>
        <time>2021-02-18T13:08:45Z</time>
      </trkpt>
      <trkpt lat="45.03817" lon="5.47612">
        <ele>1359.15266752</ele>
        <time>2021-02-18T13:08:49Z</time>
      </trkpt>
      <trkpt lat="45.03824" lon="5.47609">
        <ele>1362.15297164</ele>
        <time>2021-02-18T13:08:54Z</time>
      </trkpt>
      <trkpt lat="45.03832" lon="5.47606">
        <ele>1364.15326012</ele>
        <time>2021-02-18T13:08:59Z</time>
      </trkpt>
      <trkpt lat="45.03842" lon="5.47609">
        <ele>1366.15366208</ele>
        <time>2021-02-18T13:09:03Z</time>
      </trkpt>
      <trkpt lat="45.03854" lon="5.47614">
        <ele>1361.15416788</ele>
        <time>2021-02-18T13:09:07Z</time>
      </trkpt>
      <trkpt lat="45.03864" lon="5.47613">
        <ele>1356.15457424</ele>
        <time>2021-02-18T13:09:12Z</time>
      </trkpt>
      <trkpt lat="45.03872" lon="5.47617">
        <ele>1360.15489744</ele>
        <time>2021-02-18T13:09:18Z</time>
      </trkpt>
      <trkpt lat="45.03882" lon="5.47614">
        <ele>1357.15528368</ele>
        <time>2021-02-18T13:09:22Z</time>
      </trkpt>
      <trkpt lat="45.03891" lon="5.47614">
        <ele>1361.15563156</ele>
        <time>2021-02-18T13:09:30Z</time>
      </trkpt>
      <trkpt lat="45.03899" lon="5.47616">
        <ele>1363.1559388</ele>
        <time>2021-02-18T13:09:35Z</time>
      </trkpt>
      <trkpt lat="45.03907" lon="5.47619">
        <ele>1361.15628612</ele>
        <time>2021-02-18T13:09:42Z</time>
      </trkpt>
      <trkpt lat="45.03916" lon="5.4762">
        <ele>1362.15664632</ele>
        <time>2021-02-18T13:09:46Z</time>
      </trkpt>
      <trkpt lat="45.03924" lon="5.47619">
        <ele>1366.15697528</ele>
        <time>2021-02-18T13:09:51Z</time>
      </trkpt>
      <trkpt lat="45.03933" lon="5.47623">
        <ele>1363.15733316</ele>
        <time>2021-02-18T13:09:55Z</time>
      </trkpt>
      <trkpt lat="45.03943" lon="5.47628">
        <ele>1359.15773672</ele>
        <time>2021-02-18T13:09:59Z</time>
      </trkpt>
      <trkpt lat="45.03951" lon="5.47628">
        <ele>1359.15804284</ele>
        <time>2021-02-18T13:10:05Z</time>
      </trkpt>
      <trkpt lat="45.03958" lon="5.47624">
        <ele>1361.15833764</ele>
        <time>2021-02-18T13:10:09Z</time>
      </trkpt>
      <trkpt lat="45.03966" lon="5.47624">
        <ele>1363.158651</ele>
        <time>2021-02-18T13:10:14Z</time>
      </trkpt>
      <trkpt lat="45.03975" lon="5.47625">
        <ele>1362.15898744</ele>
        <time>2021-02-18T13:10:18Z</time>
      </trkpt>
      <trkpt lat="45.03982" lon="5.4763">
        <ele>1363.15929636</ele>
        <time>2021-02-18T13:10:24Z</time>
      </trkpt>
      <trkpt lat="45.03991" lon="5.47633">
        <ele>1364.15962292</ele>
        <time>2021-02-18T13:10:30Z</time>
      </trkpt>
      <trkpt lat="45.03997" lon="5.47633">
        <ele>1365.15989476</ele>
        <time>2021-02-18T13:10:34Z</time>
      </trkpt>
      <trkpt lat="45.04007" lon="5.47636">
        <ele>1363.16027628</ele>
        <time>2021-02-18T13:10:38Z</time>
      </trkpt>
      <trkpt lat="45.04016" lon="5.47635">
        <ele>1367.16062996</ele>
        <time>2021-02-18T13:10:45Z</time>
      </trkpt>
      <trkpt lat="45.04023" lon="5.47632">
        <ele>1371.16091192</ele>
        <time>2021-02-18T13:10:49Z</time>
      </trkpt>
      <trkpt lat="45.04031" lon="5.47636">
        <ele>1371.16122916</ele>
        <time>2021-02-18T13:10:54Z</time>
      </trkpt>
      <trkpt lat="45.04039" lon="5.47635">
        <ele>1372.1615596</ele>
        <time>2021-02-18T13:10:58Z</time>
      </trkpt>
      <trkpt lat="45.04046" lon="5.47636">
        <ele>1375.1618558</ele>
        <time>2021-02-18T13:11:02Z</time>
      </trkpt>
      <trkpt lat="45.04054" lon="5.47633">
        <ele>1375.16216668</ele>
        <time>2021-02-18T13:11:07Z</time>
      </trkpt>
      <trkpt lat="45.04063" lon="5.47635">
        <ele>1374.16250884</ele>
        <time>2021-02-18T13:11:11Z</time>
      </trkpt>
      <trkpt lat="45.04073" lon="5.47642">
        <ele>1367.16290876</ele>
        <time>2021-02-18T13:11:15Z</time>
      </trkpt>
      <trkpt lat="45.04081" lon="5.47641">
        <ele>1365.16324876</ele>
        <time>2021-02-18T13:11:21Z</time>
      </trkpt>
      <trkpt lat="45.0409" lon="5.47637">
        <ele>1364.16361528</ele>
        <time>2021-02-18T13:11:25Z</time>
      </trkpt>
      <trkpt lat="45.04098" lon="5.47629">
        <ele>1367.1639114</ele>
        <time>2021-02-18T13:11:30Z</time>
      </trkpt>
      <trkpt lat="45.04105" lon="5.47635">
        <ele>1367.16418172</ele>
        <time>2021-02-18T13:11:34Z</time>
      </trkpt>
      <trkpt lat="45.04113" lon="5.47633">
        <ele>1367.16451612</ele>
        <time>2021-02-18T13:11:39Z</time>
      </trkpt>
      <trkpt lat="45.0412" lon="5.4763">
        <ele>1368.16478748</ele>
        <time>2021-02-18T13:11:43Z</time>
      </trkpt>
      <trkpt lat="45.04127" lon="5.47627">
        <ele>1365.1650914</ele>
        <time>2021-02-18T13:11:47Z</time>
      </trkpt>
      <trkpt lat="45.04135" lon="5.47625">
        <ele>1365.16541328</ele>
        <time>2021-02-18T13:11:53Z</time>
      </trkpt>
      <trkpt lat="45.04143" lon="5.47623">
        <ele>1365.1657012</ele>
        <time>2021-02-18T13:12:00Z</time>
      </trkpt>
      <trkpt lat="45.04147" lon="5.47614">
        <ele>1370.16587808</ele>
        <time>2021-02-18T13:12:05Z</time>
      </trkpt>
      <trkpt lat="45.04154" lon="5.47606">
        <ele>1371.16614348</ele>
        <time>2021-02-18T13:12:11Z</time>
      </trkpt>
      <trkpt lat="45.04161" lon="5.47599">
        <ele>1369.16642248</ele>
        <time>2021-02-18T13:12:15Z</time>
      </trkpt>
      <trkpt lat="45.04168" lon="5.47592">
        <ele>1367.16672296</ele>
        <time>2021-02-18T13:12:20Z</time>
      </trkpt>
      <trkpt lat="45.04175" lon="5.47587">
        <ele>1365.166989</ele>
        <time>2021-02-18T13:12:24Z</time>
      </trkpt>
      <trkpt lat="45.0418" lon="5.4758">
        <ele>1365.16721368</ele>
        <time>2021-02-18T13:12:29Z</time>
      </trkpt>
      <trkpt lat="45.04189" lon="5.47576">
        <ele>1363.16754008</ele>
        <time>2021-02-18T13:12:33Z</time>
      </trkpt>
      <trkpt lat="45.04196" lon="5.4757">
        <ele>1364.1678556</ele>
        <time>2021-02-18T13:12:38Z</time>
      </trkpt>
      <trkpt lat="45.04204" lon="5.47566">
        <ele>1363.16817284</ele>
        <time>2021-02-18T13:12:44Z</time>
      </trkpt>
      <trkpt lat="45.04212" lon="5.47565">
        <ele>1363.16849388</ele>
        <time>2021-02-18T13:12:50Z</time>
      </trkpt>
      <trkpt lat="45.0422" lon="5.47559">
        <ele>1367.16879532</ele>
        <time>2021-02-18T13:12:56Z</time>
      </trkpt>
      <trkpt lat="45.04227" lon="5.47555">
        <ele>1372.1690918</ele>
        <time>2021-02-18T13:13:03Z</time>
      </trkpt>
      <trkpt lat="45.04235" lon="5.47558">
        <ele>1370.16938032</ele>
        <time>2021-02-18T13:13:07Z</time>
      </trkpt>
      <trkpt lat="45.04241" lon="5.47563">
        <ele>1366.16965644</ele>
        <time>2021-02-18T13:13:11Z</time>
      </trkpt>
      <trkpt lat="45.0425" lon="5.47563">
        <ele>1368.17001644</ele>
        <time>2021-02-18T13:13:16Z</time>
      </trkpt>
      <trkpt lat="45.04261" lon="5.47566">
        <ele>1370.17043096</ele>
        <time>2021-02-18T13:13:21Z</time>
      </trkpt>
      <trkpt lat="45.04269" lon="5.47565">
        <ele>1372.1707514</ele>
        <time>2021-02-18T13:13:27Z</time>
      </trkpt>
      <trkpt lat="45.04276" lon="5.47564">
        <ele>1373.17102032</ele>
        <time>2021-02-18T13:13:31Z</time>
      </trkpt>
      <trkpt lat="45.04283" lon="5.47565">
        <ele>1374.17133104</ele>
        <time>2021-02-18T13:13:35Z</time>
      </trkpt>
      <trkpt lat="45.0429" lon="5.47568">
        <ele>1374.171595</ele>
        <time>2021-02-18T13:13:39Z</time>
      </trkpt>
      <trkpt lat="45.04299" lon="5.47568">
        <ele>1376.17194492</ele>
        <time>2021-02-18T13:13:44Z</time>
      </trkpt>
      <trkpt lat="45.04309" lon="5.4757">
        <ele>1374.17234396</ele>
        <time>2021-02-18T13:13:48Z</time>
      </trkpt>
      <trkpt lat="45.04316" lon="5.47572">
        <ele>1370.172638</ele>
        <time>2021-02-18T13:13:52Z</time>
      </trkpt>
      <trkpt lat="45.04326" lon="5.47574">
        <ele>1370.17302712</ele>
        <time>2021-02-18T13:13:57Z</time>
      </trkpt>
      <trkpt lat="45.04335" lon="5.47574">
        <ele>1369.17337932</ele>
        <time>2021-02-18T13:14:03Z</time>
      </trkpt>
      <trkpt lat="45.0434" lon="5.47583">
        <ele>1368.17360924</ele>
        <time>2021-02-18T13:14:15Z</time>
      </trkpt>
      <trkpt lat="45.04349" lon="5.47582">
        <ele>1367.17394548</ele>
        <time>2021-02-18T13:14:23Z</time>
      </trkpt>
      <trkpt lat="45.04357" lon="5.47585">
        <ele>1367.17428224</ele>
        <time>2021-02-18T13:14:52Z</time>
      </trkpt>
      <trkpt lat="45.04364" lon="5.47582">
        <ele>1369.17456824</ele>
        <time>2021-02-18T13:14:57Z</time>
      </trkpt>
      <trkpt lat="45.04372" lon="5.4758">
        <ele>1371.17488012</ele>
        <time>2021-02-18T13:15:04Z</time>
      </trkpt>
      <trkpt lat="45.0438" lon="5.47577">
        <ele>1373.17519784</ele>
        <time>2021-02-18T13:15:10Z</time>
      </trkpt>
      <trkpt lat="45.04389" lon="5.47582">
        <ele>1370.17555196</ele>
        <time>2021-02-18T13:15:15Z</time>
      </trkpt>
      <trkpt lat="45.04397" lon="5.47581">
        <ele>1369.17586108</ele>
        <time>2021-02-18T13:15:20Z</time>
      </trkpt>
      <trkpt lat="45.04403" lon="5.47576">
        <ele>1366.17613548</ele>
        <time>2021-02-18T13:15:25Z</time>
      </trkpt>
      <trkpt lat="45.0441" lon="5.47571">
        <ele>1369.17641768</ele>
        <time>2021-02-18T13:15:30Z</time>
      </trkpt>
      <trkpt lat="45.04421" lon="5.47569">
        <ele>1365.1768496</ele>
        <time>2021-02-18T13:15:34Z</time>
      </trkpt>
      <trkpt lat="45.0443" lon="5.47565">
        <ele>1368.17717932</ele>
        <time>2021-02-18T13:15:40Z</time>
      </trkpt>
      <trkpt lat="45.04437" lon="5.47566">
        <ele>1367.17748652</ele>
        <time>2021-02-18T13:15:45Z</time>
      </trkpt>
      <trkpt lat="45.04447" lon="5.47566">
        <ele>1364.1778752</ele>
        <time>2021-02-18T13:15:49Z</time>
      </trkpt>
      <trkpt lat="45.04455" lon="5.47563">
        <ele>1365.178203</ele>
        <time>2021-02-18T13:15:54Z</time>
      </trkpt>
      <trkpt lat="45.04464" lon="5.47564">
        <ele>1364.1785482</ele>
        <time>2021-02-18T13:15:58Z</time>
      </trkpt>
      <trkpt lat="45.04474" lon="5.47564">
        <ele>1361.1789538</ele>
        <time>2021-02-18T13:16:03Z</time>
      </trkpt>
      <trkpt lat="45.04483" lon="5.47564">
        <ele>1363.17931592</ele>
        <time>2021-02-18T13:16:07Z</time>
      </trkpt>
      <trkpt lat="45.04493" lon="5.47562">
        <ele>1363.17971796</ele>
        <time>2021-02-18T13:16:12Z</time>
      </trkpt>
      <trkpt lat="45.045" lon="5.47557">
        <ele>1361.1799936</ele>
        <time>2021-02-18T13:16:23Z</time>
      </trkpt>
      <trkpt lat="45.04516" lon="5.47562">
        <ele>1362.18062904</ele>
        <time>2021-02-18T13:16:28Z</time>
      </trkpt>
      <trkpt lat="45.04523" lon="5.47567">
        <ele>1362.18093136</ele>
        <time>2021-02-18T13:16:34Z</time>
      </trkpt>
      <trkpt lat="45.04531" lon="5.47573">
        <ele>1363.181235</ele>
        <time>2021-02-18T13:16:50Z</time>
      </trkpt>
      <trkpt lat="45.04528" lon="5.47563">
        <ele>1369.18112972</ele>
        <time>2021-02-18T13:17:17Z</time>
      </trkpt>
      <trkpt lat="45.04533" lon="5.47552">
        <ele>1368.18130392</ele>
        <time>2021-02-18T13:17:24Z</time>
      </trkpt>
      <trkpt lat="45.04539" lon="5.47543">
        <ele>1367.18154216</ele>
        <time>2021-02-18T13:17:29Z</time>
      </trkpt>
      <trkpt lat="45.04546" lon="5.47538">
        <ele>1369.18184876</ele>
        <time>2021-02-18T13:17:34Z</time>
      </trkpt>
      <trkpt lat="45.04553" lon="5.47534">
        <ele>1366.182129</ele>
        <time>2021-02-18T13:17:40Z</time>
      </trkpt>
      <trkpt lat="45.04561" lon="5.47536">
        <ele>1367.18241872</ele>
        <time>2021-02-18T13:17:44Z</time>
      </trkpt>
      <trkpt lat="45.04572" lon="5.47529">
        <ele>1366.18286716</ele>
        <time>2021-02-18T13:17:48Z</time>
      </trkpt>
      <trkpt lat="45.04579" lon="5.47527">
        <ele>1364.18314904</ele>
        <time>2021-02-18T13:17:52Z</time>
      </trkpt>
      <trkpt lat="45.04585" lon="5.47521">
        <ele>1366.18340992</ele>
        <time>2021-02-18T13:17:57Z</time>
      </trkpt>
      <trkpt lat="45.04593" lon="5.47516">
        <ele>1365.18373504</ele>
        <time>2021-02-18T13:18:02Z</time>
      </trkpt>
      <trkpt lat="45.04602" lon="5.47512">
        <ele>1365.1840582</ele>
        <time>2021-02-18T13:18:06Z</time>
      </trkpt>
      <trkpt lat="45.04612" lon="5.47511">
        <ele>1363.18448608</ele>
        <time>2021-02-18T13:18:10Z</time>
      </trkpt>
      <trkpt lat="45.04625" lon="5.47508">
        <ele>1361.18500824</ele>
        <time>2021-02-18T13:18:15Z</time>
      </trkpt>
      <trkpt lat="45.04635" lon="5.47505">
        <ele>1361.18537832</ele>
        <time>2021-02-18T13:18:19Z</time>
      </trkpt>
      <trkpt lat="45.04641" lon="5.47499">
        <ele>1359.18564756</ele>
        <time>2021-02-18T13:18:23Z</time>
      </trkpt>
      <trkpt lat="45.04649" lon="5.47496">
        <ele>1357.18595756</ele>
        <time>2021-02-18T13:18:28Z</time>
      </trkpt>
      <trkpt lat="45.04657" lon="5.47492">
        <ele>1357.18626356</ele>
        <time>2021-02-18T13:18:32Z</time>
      </trkpt>
      <trkpt lat="45.04665" lon="5.47486">
        <ele>1355.1865812</ele>
        <time>2021-02-18T13:18:37Z</time>
      </trkpt>
      <trkpt lat="45.04672" lon="5.47479">
        <ele>1355.18686516</ele>
        <time>2021-02-18T13:18:42Z</time>
      </trkpt>
      <trkpt lat="45.0468" lon="5.47478">
        <ele>1357.18721068</ele>
        <time>2021-02-18T13:18:46Z</time>
      </trkpt>
      <trkpt lat="45.04688" lon="5.47475">
        <ele>1353.18751692</ele>
        <time>2021-02-18T13:18:50Z</time>
      </trkpt>
      <trkpt lat="45.04699" lon="5.47472">
        <ele>1353.187951</ele>
        <time>2021-02-18T13:18:54Z</time>
      </trkpt>
      <trkpt lat="45.04713" lon="5.47468">
        <ele>1351.18852152</ele>
        <time>2021-02-18T13:18:58Z</time>
      </trkpt>
      <trkpt lat="45.04726" lon="5.47461">
        <ele>1354.18903308</ele>
        <time>2021-02-18T13:19:03Z</time>
      </trkpt>
      <trkpt lat="45.04737" lon="5.47454">
        <ele>1354.18949584</ele>
        <time>2021-02-18T13:19:07Z</time>
      </trkpt>
      <trkpt lat="45.04752" lon="5.47445">
        <ele>1350.1900748</ele>
        <time>2021-02-18T13:19:11Z</time>
      </trkpt>
      <trkpt lat="45.04771" lon="5.47437">
        <ele>1345.19082716</ele>
        <time>2021-02-18T13:19:16Z</time>
      </trkpt>
      <trkpt lat="45.04778" lon="5.47427">
        <ele>1337.1911298</ele>
        <time>2021-02-18T13:19:20Z</time>
      </trkpt>
      <trkpt lat="45.04787" lon="5.4742">
        <ele>1335.19145864</ele>
        <time>2021-02-18T13:19:24Z</time>
      </trkpt>
      <trkpt lat="45.04804" lon="5.47416">
        <ele>1339.1921502</ele>
        <time>2021-02-18T13:19:29Z</time>
      </trkpt>
      <trkpt lat="45.04818" lon="5.47412">
        <ele>1337.19272364</ele>
        <time>2021-02-18T13:19:33Z</time>
      </trkpt>
      <trkpt lat="45.04834" lon="5.47408">
        <ele>1336.19335756</ele>
        <time>2021-02-18T13:19:37Z</time>
      </trkpt>
      <trkpt lat="45.04847" lon="5.47409">
        <ele>1335.19386616</ele>
        <time>2021-02-18T13:19:41Z</time>
      </trkpt>
      <trkpt lat="45.04858" lon="5.47402">
        <ele>1333.19433104</ele>
        <time>2021-02-18T13:19:45Z</time>
      </trkpt>
      <trkpt lat="45.04872" lon="5.47398">
        <ele>1334.19486692</ele>
        <time>2021-02-18T13:19:49Z</time>
      </trkpt>
      <trkpt lat="45.0489" lon="5.47395">
        <ele>1333.1956044</ele>
        <time>2021-02-18T13:19:54Z</time>
      </trkpt>
      <trkpt lat="45.04905" lon="5.47387">
        <ele>1336.1962012</ele>
        <time>2021-02-18T13:19:58Z</time>
      </trkpt>
      <trkpt lat="45.04923" lon="5.47384">
        <ele>1332.19689944</ele>
        <time>2021-02-18T13:20:03Z</time>
      </trkpt>
      <trkpt lat="45.04942" lon="5.47389">
        <ele>1326.197697</ele>
        <time>2021-02-18T13:20:08Z</time>
      </trkpt>
      <trkpt lat="45.04958" lon="5.47394">
        <ele>1322.19830976</ele>
        <time>2021-02-18T13:20:12Z</time>
      </trkpt>
      <trkpt lat="45.04974" lon="5.47404">
        <ele>1315.19897568</ele>
        <time>2021-02-18T13:20:16Z</time>
      </trkpt>
      <trkpt lat="45.04987" lon="5.47412">
        <ele>1308.19948872</ele>
        <time>2021-02-18T13:20:20Z</time>
      </trkpt>
      <trkpt lat="45.04995" lon="5.47417">
        <ele>1303.199796</ele>
        <time>2021-02-18T13:20:24Z</time>
      </trkpt>
      <trkpt lat="45.05007" lon="5.47421">
        <ele>1307.20029208</ele>
        <time>2021-02-18T13:20:28Z</time>
      </trkpt>
      <trkpt lat="45.05023" lon="5.47421">
        <ele>1309.20092128</ele>
        <time>2021-02-18T13:20:32Z</time>
      </trkpt>
      <trkpt lat="45.05038" lon="5.47417">
        <ele>1308.20153212</ele>
        <time>2021-02-18T13:20:36Z</time>
      </trkpt>
      <trkpt lat="45.05049" lon="5.47412">
        <ele>1308.20194692</ele>
        <time>2021-02-18T13:20:40Z</time>
      </trkpt>
      <trkpt lat="45.05064" lon="5.47408">
        <ele>1309.2025568</ele>
        <time>2021-02-18T13:20:45Z</time>
      </trkpt>
      <trkpt lat="45.05075" lon="5.47408">
        <ele>1312.20300684</ele>
        <time>2021-02-18T13:20:49Z</time>
      </trkpt>
      <trkpt lat="45.05085" lon="5.47407">
        <ele>1305.20340124</ele>
        <time>2021-02-18T13:20:53Z</time>
      </trkpt>
      <trkpt lat="45.05109" lon="5.47416">
        <ele>1303.20437572</ele>
        <time>2021-02-18T13:20:58Z</time>
      </trkpt>
      <trkpt lat="45.05126" lon="5.47426">
        <ele>1298.2050558</ele>
        <time>2021-02-18T13:21:02Z</time>
      </trkpt>
      <trkpt lat="45.05138" lon="5.47436">
        <ele>1298.20552732</ele>
        <time>2021-02-18T13:21:06Z</time>
      </trkpt>
      <trkpt lat="45.05148" lon="5.47445">
        <ele>1296.20591528</ele>
        <time>2021-02-18T13:21:10Z</time>
      </trkpt>
      <trkpt lat="45.05157" lon="5.47453">
        <ele>1295.20626276</ele>
        <time>2021-02-18T13:21:14Z</time>
      </trkpt>
      <trkpt lat="45.05164" lon="5.47462">
        <ele>1296.20655472</ele>
        <time>2021-02-18T13:21:18Z</time>
      </trkpt>
      <trkpt lat="45.05174" lon="5.47469">
        <ele>1294.20696392</ele>
        <time>2021-02-18T13:21:22Z</time>
      </trkpt>
      <trkpt lat="45.05189" lon="5.47477">
        <ele>1291.20756092</ele>
        <time>2021-02-18T13:21:26Z</time>
      </trkpt>
      <trkpt lat="45.05204" lon="5.47486">
        <ele>1290.20816892</ele>
        <time>2021-02-18T13:21:31Z</time>
      </trkpt>
      <trkpt lat="45.05228" lon="5.47497">
        <ele>1288.20910444</ele>
        <time>2021-02-18T13:21:36Z</time>
      </trkpt>
      <trkpt lat="45.05245" lon="5.47508">
        <ele>1286.20978304</ele>
        <time>2021-02-18T13:21:40Z</time>
      </trkpt>
      <trkpt lat="45.05265" lon="5.47513">
        <ele>1288.2105982</ele>
        <time>2021-02-18T13:21:44Z</time>
      </trkpt>
      <trkpt lat="45.05281" lon="5.4752">
        <ele>1285.21123372</ele>
        <time>2021-02-18T13:21:48Z</time>
      </trkpt>
      <trkpt lat="45.05298" lon="5.4753">
        <ele>1280.2119316</ele>
        <time>2021-02-18T13:21:53Z</time>
      </trkpt>
      <trkpt lat="45.05313" lon="5.47537">
        <ele>1280.212512</ele>
        <time>2021-02-18T13:21:57Z</time>
      </trkpt>
      <trkpt lat="45.05325" lon="5.47543">
        <ele>1279.21299132</ele>
        <time>2021-02-18T13:22:01Z</time>
      </trkpt>
      <trkpt lat="45.05342" lon="5.47555">
        <ele>1280.21367176</ele>
        <time>2021-02-18T13:22:06Z</time>
      </trkpt>
      <trkpt lat="45.05349" lon="5.47569">
        <ele>1280.21396584</ele>
        <time>2021-02-18T13:22:10Z</time>
      </trkpt>
      <trkpt lat="45.05366" lon="5.47576">
        <ele>1277.2146496</ele>
        <time>2021-02-18T13:22:14Z</time>
      </trkpt>
      <trkpt lat="45.05374" lon="5.47584">
        <ele>1275.21495588</ele>
        <time>2021-02-18T13:22:19Z</time>
      </trkpt>
      <trkpt lat="45.05382" lon="5.47586">
        <ele>1273.21526912</ele>
        <time>2021-02-18T13:22:24Z</time>
      </trkpt>
      <trkpt lat="45.05392" lon="5.47588">
        <ele>1269.21569124</ele>
        <time>2021-02-18T13:22:28Z</time>
      </trkpt>
      <trkpt lat="45.05406" lon="5.47587">
        <ele>1269.21624148</ele>
        <time>2021-02-18T13:22:32Z</time>
      </trkpt>
      <trkpt lat="45.0542" lon="5.47592">
        <ele>1269.21677812</ele>
        <time>2021-02-18T13:22:36Z</time>
      </trkpt>
      <trkpt lat="45.05438" lon="5.476">
        <ele>1269.21750232</ele>
        <time>2021-02-18T13:22:40Z</time>
      </trkpt>
      <trkpt lat="45.05462" lon="5.47602">
        <ele>1274.218463</ele>
        <time>2021-02-18T13:22:45Z</time>
      </trkpt>
      <trkpt lat="45.05474" lon="5.47605">
        <ele>1275.2189498</ele>
        <time>2021-02-18T13:22:49Z</time>
      </trkpt>
      <trkpt lat="45.05486" lon="5.47619">
        <ele>1262.2194336</ele>
        <time>2021-02-18T13:22:53Z</time>
      </trkpt>
      <trkpt lat="45.05499" lon="5.47622">
        <ele>1253.21996648</ele>
        <time>2021-02-18T13:22:57Z</time>
      </trkpt>
      <trkpt lat="45.05517" lon="5.47626">
        <ele>1249.220675</ele>
        <time>2021-02-18T13:23:02Z</time>
      </trkpt>
      <trkpt lat="45.0553" lon="5.47632">
        <ele>1248.22119116</ele>
        <time>2021-02-18T13:23:06Z</time>
      </trkpt>
      <trkpt lat="45.05539" lon="5.47634">
        <ele>1250.22155624</ele>
        <time>2021-02-18T13:23:10Z</time>
      </trkpt>
      <trkpt lat="45.05547" lon="5.47637">
        <ele>1252.22185944</ele>
        <time>2021-02-18T13:23:14Z</time>
      </trkpt>
      <trkpt lat="45.0555" lon="5.47648">
        <ele>1250.22199596</ele>
        <time>2021-02-18T13:23:40Z</time>
      </trkpt>
      <trkpt lat="45.05556" lon="5.47658">
        <ele>1248.22223428</ele>
        <time>2021-02-18T13:23:46Z</time>
      </trkpt>
      <trkpt lat="45.05562" lon="5.47667">
        <ele>1244.22247888</ele>
        <time>2021-02-18T13:23:50Z</time>
      </trkpt>
      <trkpt lat="45.05566" lon="5.47681">
        <ele>1241.22264856</ele>
        <time>2021-02-18T13:23:54Z</time>
      </trkpt>
      <trkpt lat="45.05575" lon="5.47693">
        <ele>1242.22300932</ele>
        <time>2021-02-18T13:23:58Z</time>
      </trkpt>
      <trkpt lat="45.05587" lon="5.47701">
        <ele>1241.22348</ele>
        <time>2021-02-18T13:24:03Z</time>
      </trkpt>
      <trkpt lat="45.05595" lon="5.47706">
        <ele>1240.22379996</ele>
        <time>2021-02-18T13:24:08Z</time>
      </trkpt>
      <trkpt lat="45.05606" lon="5.47712">
        <ele>1239.22423844</ele>
        <time>2021-02-18T13:24:13Z</time>
      </trkpt>
      <trkpt lat="45.05617" lon="5.4772">
        <ele>1235.22467292</ele>
        <time>2021-02-18T13:24:17Z</time>
      </trkpt>
      <trkpt lat="45.05627" lon="5.47734">
        <ele>1235.22507388</ele>
        <time>2021-02-18T13:24:22Z</time>
      </trkpt>
      <trkpt lat="45.05635" lon="5.47749">
        <ele>1236.22540232</ele>
        <time>2021-02-18T13:24:27Z</time>
      </trkpt>
      <trkpt lat="45.05646" lon="5.47757">
        <ele>1236.22585188</ele>
        <time>2021-02-18T13:24:32Z</time>
      </trkpt>
      <trkpt lat="45.05657" lon="5.4777">
        <ele>1236.22629552</ele>
        <time>2021-02-18T13:24:37Z</time>
      </trkpt>
      <trkpt lat="45.05665" lon="5.47781">
        <ele>1235.22660844</ele>
        <time>2021-02-18T13:24:41Z</time>
      </trkpt>
      <trkpt lat="45.05673" lon="5.47789">
        <ele>1235.22691876</ele>
        <time>2021-02-18T13:24:45Z</time>
      </trkpt>
      <trkpt lat="45.05681" lon="5.47799">
        <ele>1239.22724648</ele>
        <time>2021-02-18T13:24:49Z</time>
      </trkpt>
      <trkpt lat="45.05686" lon="5.4781">
        <ele>1239.22744932</ele>
        <time>2021-02-18T13:24:54Z</time>
      </trkpt>
      <trkpt lat="45.05692" lon="5.47819">
        <ele>1240.22767932</ele>
        <time>2021-02-18T13:24:58Z</time>
      </trkpt>
      <trkpt lat="45.05699" lon="5.47831">
        <ele>1239.22797448</ele>
        <time>2021-02-18T13:25:02Z</time>
      </trkpt>
      <trkpt lat="45.05706" lon="5.47844">
        <ele>1237.22821912</ele>
        <time>2021-02-18T13:25:07Z</time>
      </trkpt>
      <trkpt lat="45.05712" lon="5.47853">
        <ele>1237.22849652</ele>
        <time>2021-02-18T13:25:11Z</time>
      </trkpt>
      <trkpt lat="45.05716" lon="5.47863">
        <ele>1233.22862488</ele>
        <time>2021-02-18T13:25:15Z</time>
      </trkpt>
      <trkpt lat="45.05718" lon="5.47874">
        <ele>1228.22872184</ele>
        <time>2021-02-18T13:25:21Z</time>
      </trkpt>
      <trkpt lat="45.05722" lon="5.47887">
        <ele>1228.22888452</ele>
        <time>2021-02-18T13:25:26Z</time>
      </trkpt>
      <trkpt lat="45.05726" lon="5.47899">
        <ele>1227.22905668</ele>
        <time>2021-02-18T13:25:30Z</time>
      </trkpt>
      <trkpt lat="45.05729" lon="5.47911">
        <ele>1231.22913828</ele>
        <time>2021-02-18T13:25:34Z</time>
      </trkpt>
      <trkpt lat="45.05735" lon="5.47918">
        <ele>1228.22938632</ele>
        <time>2021-02-18T13:25:38Z</time>
      </trkpt>
      <trkpt lat="45.05741" lon="5.47929">
        <ele>1229.2296522</ele>
        <time>2021-02-18T13:25:42Z</time>
      </trkpt>
      <trkpt lat="45.05746" lon="5.4794">
        <ele>1232.22985376</ele>
        <time>2021-02-18T13:25:46Z</time>
      </trkpt>
      <trkpt lat="45.05749" lon="5.47954">
        <ele>1230.22995668</ele>
        <time>2021-02-18T13:25:50Z</time>
      </trkpt>
      <trkpt lat="45.05752" lon="5.47966">
        <ele>1233.23006696</ele>
        <time>2021-02-18T13:25:54Z</time>
      </trkpt>
      <trkpt lat="45.05756" lon="5.4799">
        <ele>1232.23022264</ele>
        <time>2021-02-18T13:25:59Z</time>
      </trkpt>
      <trkpt lat="45.05761" lon="5.48002">
        <ele>1233.23044344</ele>
        <time>2021-02-18T13:26:03Z</time>
      </trkpt>
      <trkpt lat="45.05765" lon="5.48015">
        <ele>1236.230598</ele>
        <time>2021-02-18T13:26:07Z</time>
      </trkpt>
      <trkpt lat="45.0577" lon="5.4803">
        <ele>1236.2308074</ele>
        <time>2021-02-18T13:26:11Z</time>
      </trkpt>
      <trkpt lat="45.05776" lon="5.4805">
        <ele>1235.23105124</ele>
        <time>2021-02-18T13:26:16Z</time>
      </trkpt>
      <trkpt lat="45.05781" lon="5.48063">
        <ele>1232.2312556</ele>
        <time>2021-02-18T13:26:20Z</time>
      </trkpt>
      <trkpt lat="45.05786" lon="5.48078">
        <ele>1233.23142952</ele>
        <time>2021-02-18T13:26:24Z</time>
      </trkpt>
      <trkpt lat="45.05793" lon="5.48092">
        <ele>1234.23170216</ele>
        <time>2021-02-18T13:26:28Z</time>
      </trkpt>
      <trkpt lat="45.05795" lon="5.48113">
        <ele>1238.23178896</ele>
        <time>2021-02-18T13:26:33Z</time>
      </trkpt>
      <trkpt lat="45.058" lon="5.48131">
        <ele>1236.23200552</ele>
        <time>2021-02-18T13:26:37Z</time>
      </trkpt>
      <trkpt lat="45.05809" lon="5.48145">
        <ele>1235.23235292</ele>
        <time>2021-02-18T13:26:41Z</time>
      </trkpt>
      <trkpt lat="45.05814" lon="5.48155">
        <ele>1237.23255088</ele>
        <time>2021-02-18T13:26:45Z</time>
      </trkpt>
      <trkpt lat="45.05822" lon="5.48166">
        <ele>1237.23287976</ele>
        <time>2021-02-18T13:26:49Z</time>
      </trkpt>
      <trkpt lat="45.05827" lon="5.48178">
        <ele>1233.23308668</ele>
        <time>2021-02-18T13:26:53Z</time>
      </trkpt>
      <trkpt lat="45.0583" lon="5.48196">
        <ele>1234.23321232</ele>
        <time>2021-02-18T13:26:58Z</time>
      </trkpt>
      <trkpt lat="45.05837" lon="5.48204">
        <ele>1231.23349024</ele>
        <time>2021-02-18T13:27:02Z</time>
      </trkpt>
      <trkpt lat="45.05846" lon="5.48217">
        <ele>1230.23385064</ele>
        <time>2021-02-18T13:27:07Z</time>
      </trkpt>
      <trkpt lat="45.05851" lon="5.48227">
        <ele>1227.23403692</ele>
        <time>2021-02-18T13:27:11Z</time>
      </trkpt>
      <trkpt lat="45.05865" lon="5.48234">
        <ele>1227.23461516</ele>
        <time>2021-02-18T13:27:16Z</time>
      </trkpt>
      <trkpt lat="45.05872" lon="5.48248">
        <ele>1228.23488788</ele>
        <time>2021-02-18T13:27:21Z</time>
      </trkpt>
      <trkpt lat="45.05878" lon="5.48257">
        <ele>1226.23510936</ele>
        <time>2021-02-18T13:27:26Z</time>
      </trkpt>
      <trkpt lat="45.05883" lon="5.48268">
        <ele>1225.23533112</ele>
        <time>2021-02-18T13:27:31Z</time>
      </trkpt>
      <trkpt lat="45.05887" lon="5.48282">
        <ele>1228.23549684</ele>
        <time>2021-02-18T13:27:35Z</time>
      </trkpt>
      <trkpt lat="45.05892" lon="5.48298">
        <ele>1224.23568804</ele>
        <time>2021-02-18T13:27:40Z</time>
      </trkpt>
      <trkpt lat="45.05899" lon="5.4831">
        <ele>1220.23596992</ele>
        <time>2021-02-18T13:27:44Z</time>
      </trkpt>
      <trkpt lat="45.05909" lon="5.48327">
        <ele>1220.2363418</ele>
        <time>2021-02-18T13:27:49Z</time>
      </trkpt>
      <trkpt lat="45.05918" lon="5.48342">
        <ele>1219.23671072</ele>
        <time>2021-02-18T13:27:54Z</time>
      </trkpt>
      <trkpt lat="45.05925" lon="5.48355">
        <ele>1218.23700844</ele>
        <time>2021-02-18T13:27:58Z</time>
      </trkpt>
      <trkpt lat="45.05934" lon="5.48364">
        <ele>1218.23734264</ele>
        <time>2021-02-18T13:28:02Z</time>
      </trkpt>
      <trkpt lat="45.05941" lon="5.48377">
        <ele>1220.23762212</ele>
        <time>2021-02-18T13:28:06Z</time>
      </trkpt>
      <trkpt lat="45.0595" lon="5.48395">
        <ele>1220.23801496</ele>
        <time>2021-02-18T13:28:11Z</time>
      </trkpt>
      <trkpt lat="45.05956" lon="5.48407">
        <ele>1221.23821824</ele>
        <time>2021-02-18T13:28:15Z</time>
      </trkpt>
      <trkpt lat="45.05961" lon="5.48418">
        <ele>1218.2384462</ele>
        <time>2021-02-18T13:28:19Z</time>
      </trkpt>
      <trkpt lat="45.05967" lon="5.48435">
        <ele>1219.23868784</ele>
        <time>2021-02-18T13:28:23Z</time>
      </trkpt>
      <trkpt lat="45.05974" lon="5.4845">
        <ele>1218.2389428</ele>
        <time>2021-02-18T13:28:28Z</time>
      </trkpt>
      <trkpt lat="45.05978" lon="5.48461">
        <ele>1214.23911944</ele>
        <time>2021-02-18T13:28:32Z</time>
      </trkpt>
      <trkpt lat="45.05984" lon="5.48471">
        <ele>1209.2393548</ele>
        <time>2021-02-18T13:28:36Z</time>
      </trkpt>
      <trkpt lat="45.05994" lon="5.48479">
        <ele>1214.23976292</ele>
        <time>2021-02-18T13:28:40Z</time>
      </trkpt>
      <trkpt lat="45.06" lon="5.48487">
        <ele>1215.24000296</ele>
        <time>2021-02-18T13:28:44Z</time>
      </trkpt>
      <trkpt lat="45.06006" lon="5.485">
        <ele>1211.24021948</ele>
        <time>2021-02-18T13:28:49Z</time>
      </trkpt>
      <trkpt lat="45.06009" lon="5.48509">
        <ele>1207.24036592</ele>
        <time>2021-02-18T13:28:53Z</time>
      </trkpt>
      <trkpt lat="45.06015" lon="5.48518">
        <ele>1205.24059096</ele>
        <time>2021-02-18T13:28:57Z</time>
      </trkpt>
      <trkpt lat="45.0602" lon="5.48529">
        <ele>1205.24078172</ele>
        <time>2021-02-18T13:29:02Z</time>
      </trkpt>
      <trkpt lat="45.06025" lon="5.48537">
        <ele>1207.24100484</ele>
        <time>2021-02-18T13:29:06Z</time>
      </trkpt>
      <trkpt lat="45.0603" lon="5.4855">
        <ele>1210.24118788</ele>
        <time>2021-02-18T13:29:10Z</time>
      </trkpt>
      <trkpt lat="45.06034" lon="5.48566">
        <ele>1205.24133912</ele>
        <time>2021-02-18T13:29:15Z</time>
      </trkpt>
      <trkpt lat="45.0604" lon="5.48579">
        <ele>1205.2415916</ele>
        <time>2021-02-18T13:29:19Z</time>
      </trkpt>
      <trkpt lat="45.06048" lon="5.4859">
        <ele>1209.24193152</ele>
        <time>2021-02-18T13:29:23Z</time>
      </trkpt>
      <trkpt lat="45.06054" lon="5.48597">
        <ele>1211.24216204</ele>
        <time>2021-02-18T13:29:27Z</time>
      </trkpt>
      <trkpt lat="45.06059" lon="5.48608">
        <ele>1211.24236076</ele>
        <time>2021-02-18T13:29:31Z</time>
      </trkpt>
      <trkpt lat="45.06065" lon="5.48616">
        <ele>1214.24260532</ele>
        <time>2021-02-18T13:29:35Z</time>
      </trkpt>
      <trkpt lat="45.06071" lon="5.48625">
        <ele>1214.24282792</ele>
        <time>2021-02-18T13:29:39Z</time>
      </trkpt>
      <trkpt lat="45.06074" lon="5.48639">
        <ele>1212.24297216</ele>
        <time>2021-02-18T13:29:43Z</time>
      </trkpt>
      <trkpt lat="45.06082" lon="5.48647">
        <ele>1212.24325868</ele>
        <time>2021-02-18T13:29:47Z</time>
      </trkpt>
      <trkpt lat="45.06088" lon="5.48653">
        <ele>1214.24352496</ele>
        <time>2021-02-18T13:29:52Z</time>
      </trkpt>
      <trkpt lat="45.06096" lon="5.48659">
        <ele>1215.24382836</ele>
        <time>2021-02-18T13:29:56Z</time>
      </trkpt>
      <trkpt lat="45.06103" lon="5.48667">
        <ele>1209.2441024</ele>
        <time>2021-02-18T13:30:00Z</time>
      </trkpt>
      <trkpt lat="45.06109" lon="5.48673">
        <ele>1212.2443754</ele>
        <time>2021-02-18T13:30:05Z</time>
      </trkpt>
      <trkpt lat="45.06119" lon="5.48682">
        <ele>1211.2447548</ele>
        <time>2021-02-18T13:30:10Z</time>
      </trkpt>
      <trkpt lat="45.06127" lon="5.48687">
        <ele>1213.24508692</ele>
        <time>2021-02-18T13:30:14Z</time>
      </trkpt>
      <trkpt lat="45.06138" lon="5.48694">
        <ele>1213.24551424</ele>
        <time>2021-02-18T13:30:19Z</time>
      </trkpt>
      <trkpt lat="45.06146" lon="5.487">
        <ele>1217.245824</ele>
        <time>2021-02-18T13:30:23Z</time>
      </trkpt>
      <trkpt lat="45.06156" lon="5.48703">
        <ele>1221.24621948</ele>
        <time>2021-02-18T13:30:27Z</time>
      </trkpt>
      <trkpt lat="45.0616" lon="5.4871">
        <ele>1219.24641508</ele>
        <time>2021-02-18T13:30:32Z</time>
      </trkpt>
      <trkpt lat="45.06168" lon="5.48715">
        <ele>1221.24673064</ele>
        <time>2021-02-18T13:30:36Z</time>
      </trkpt>
      <trkpt lat="45.06177" lon="5.4873">
        <ele>1218.24707948</ele>
        <time>2021-02-18T13:30:41Z</time>
      </trkpt>
      <trkpt lat="45.06183" lon="5.48739">
        <ele>1213.24733308</ele>
        <time>2021-02-18T13:30:45Z</time>
      </trkpt>
      <trkpt lat="45.06192" lon="5.48738">
        <ele>1212.24768124</ele>
        <time>2021-02-18T13:30:53Z</time>
      </trkpt>
      <trkpt lat="45.06196" lon="5.48748">
        <ele>1211.2478552</ele>
        <time>2021-02-18T13:31:00Z</time>
      </trkpt>
      <trkpt lat="45.06204" lon="5.48756">
        <ele>1209.24817672</ele>
        <time>2021-02-18T13:31:05Z</time>
      </trkpt>
      <trkpt lat="45.06209" lon="5.48763">
        <ele>1207.24835408</ele>
        <time>2021-02-18T13:31:09Z</time>
      </trkpt>
      <trkpt lat="45.06218" lon="5.4877">
        <ele>1206.24870708</ele>
        <time>2021-02-18T13:31:13Z</time>
      </trkpt>
      <trkpt lat="45.06221" lon="5.48779">
        <ele>1203.24885172</ele>
        <time>2021-02-18T13:31:17Z</time>
      </trkpt>
      <trkpt lat="45.06226" lon="5.48786">
        <ele>1197.24903672</ele>
        <time>2021-02-18T13:31:22Z</time>
      </trkpt>
      <trkpt lat="45.06233" lon="5.48796">
        <ele>1197.24932696</ele>
        <time>2021-02-18T13:31:26Z</time>
      </trkpt>
      <trkpt lat="45.06239" lon="5.48805">
        <ele>1194.24954008</ele>
        <time>2021-02-18T13:31:30Z</time>
      </trkpt>
      <trkpt lat="45.06248" lon="5.48812">
        <ele>1197.2499168</ele>
        <time>2021-02-18T13:31:34Z</time>
      </trkpt>
      <trkpt lat="45.06256" lon="5.4882">
        <ele>1198.25022816</ele>
        <time>2021-02-18T13:31:38Z</time>
      </trkpt>
      <trkpt lat="45.06267" lon="5.48835">
        <ele>1204.25066744</ele>
        <time>2021-02-18T13:31:43Z</time>
      </trkpt>
      <trkpt lat="45.06273" lon="5.48848">
        <ele>1204.25092184</ele>
        <time>2021-02-18T13:31:47Z</time>
      </trkpt>
      <trkpt lat="45.06276" lon="5.48864">
        <ele>1203.25103044</ele>
        <time>2021-02-18T13:31:52Z</time>
      </trkpt>
      <trkpt lat="45.0628" lon="5.48877">
        <ele>1200.25118436</ele>
        <time>2021-02-18T13:31:56Z</time>
      </trkpt>
      <trkpt lat="45.06283" lon="5.48891">
        <ele>1199.25130056</ele>
        <time>2021-02-18T13:32:00Z</time>
      </trkpt>
      <trkpt lat="45.06296" lon="5.48905">
        <ele>1197.25182176</ele>
        <time>2021-02-18T13:32:04Z</time>
      </trkpt>
      <trkpt lat="45.063" lon="5.48922">
        <ele>1199.25201776</ele>
        <time>2021-02-18T13:32:08Z</time>
      </trkpt>
      <trkpt lat="45.06305" lon="5.48945">
        <ele>1195.2522074</ele>
        <time>2021-02-18T13:32:13Z</time>
      </trkpt>
      <trkpt lat="45.06308" lon="5.48964">
        <ele>1195.2523048</ele>
        <time>2021-02-18T13:32:17Z</time>
      </trkpt>
      <trkpt lat="45.06313" lon="5.48989">
        <ele>1197.25251908</ele>
        <time>2021-02-18T13:32:22Z</time>
      </trkpt>
      <trkpt lat="45.06313" lon="5.49009">
        <ele>1196.25249932</ele>
        <time>2021-02-18T13:32:26Z</time>
      </trkpt>
      <trkpt lat="45.0631" lon="5.4903">
        <ele>1193.25241748</ele>
        <time>2021-02-18T13:32:30Z</time>
      </trkpt>
      <trkpt lat="45.06306" lon="5.4905">
        <ele>1189.2522438</ele>
        <time>2021-02-18T13:32:35Z</time>
      </trkpt>
      <trkpt lat="45.06299" lon="5.4907">
        <ele>1186.251952</ele>
        <time>2021-02-18T13:32:39Z</time>
      </trkpt>
      <trkpt lat="45.06295" lon="5.49091">
        <ele>1185.2517936</ele>
        <time>2021-02-18T13:32:44Z</time>
      </trkpt>
      <trkpt lat="45.06286" lon="5.49107">
        <ele>1183.2514408</ele>
        <time>2021-02-18T13:32:48Z</time>
      </trkpt>
      <trkpt lat="45.06279" lon="5.49125">
        <ele>1179.25115028</ele>
        <time>2021-02-18T13:32:53Z</time>
      </trkpt>
      <trkpt lat="45.0628" lon="5.49147">
        <ele>1180.25120912</ele>
        <time>2021-02-18T13:32:58Z</time>
      </trkpt>
      <trkpt lat="45.06274" lon="5.49168">
        <ele>1181.2509392</ele>
        <time>2021-02-18T13:33:02Z</time>
      </trkpt>
      <trkpt lat="45.06264" lon="5.49186">
        <ele>1179.2505576</ele>
        <time>2021-02-18T13:33:06Z</time>
      </trkpt>
      <trkpt lat="45.06258" lon="5.49203">
        <ele>1179.25032528</ele>
        <time>2021-02-18T13:33:11Z</time>
      </trkpt>
      <trkpt lat="45.06253" lon="5.49215">
        <ele>1180.25011312</ele>
        <time>2021-02-18T13:33:16Z</time>
      </trkpt>
      <trkpt lat="45.06244" lon="5.49226">
        <ele>1181.2497692</ele>
        <time>2021-02-18T13:33:20Z</time>
      </trkpt>
      <trkpt lat="45.06236" lon="5.49239">
        <ele>1179.24943444</ele>
        <time>2021-02-18T13:33:24Z</time>
      </trkpt>
      <trkpt lat="45.0623" lon="5.49256">
        <ele>1179.24920764</ele>
        <time>2021-02-18T13:33:29Z</time>
      </trkpt>
      <trkpt lat="45.06233" lon="5.49266">
        <ele>1182.24933692</ele>
        <time>2021-02-18T13:33:34Z</time>
      </trkpt>
      <trkpt lat="45.06242" lon="5.49272">
        <ele>1179.2496946</ele>
        <time>2021-02-18T13:33:39Z</time>
      </trkpt>
      <trkpt lat="45.06245" lon="5.49284">
        <ele>1180.2497892</ele>
        <time>2021-02-18T13:33:43Z</time>
      </trkpt>
      <trkpt lat="45.06254" lon="5.49292">
        <ele>1182.250177</ele>
        <time>2021-02-18T13:33:48Z</time>
      </trkpt>
      <trkpt lat="45.06261" lon="5.49301">
        <ele>1182.25042436</ele>
        <time>2021-02-18T13:33:54Z</time>
      </trkpt>
      <trkpt lat="45.0626" lon="5.49313">
        <ele>1179.25041372</ele>
        <time>2021-02-18T13:33:59Z</time>
      </trkpt>
      <trkpt lat="45.06265" lon="5.49324">
        <ele>1175.2506112</ele>
        <time>2021-02-18T13:34:03Z</time>
      </trkpt>
      <trkpt lat="45.06278" lon="5.49336">
        <ele>1174.25110284</ele>
        <time>2021-02-18T13:34:08Z</time>
      </trkpt>
      <trkpt lat="45.06288" lon="5.49347">
        <ele>1179.2514988</ele>
        <time>2021-02-18T13:34:12Z</time>
      </trkpt>
      <trkpt lat="45.06293" lon="5.49355">
        <ele>1179.25172164</ele>
        <time>2021-02-18T13:34:16Z</time>
      </trkpt>
      <trkpt lat="45.06308" lon="5.49371">
        <ele>1178.25232404</ele>
        <time>2021-02-18T13:34:21Z</time>
      </trkpt>
      <trkpt lat="45.06315" lon="5.49385">
        <ele>1176.25260972</ele>
        <time>2021-02-18T13:34:25Z</time>
      </trkpt>
      <trkpt lat="45.06322" lon="5.494">
        <ele>1176.2528722</ele>
        <time>2021-02-18T13:34:29Z</time>
      </trkpt>
      <trkpt lat="45.06332" lon="5.49411">
        <ele>1174.2532928</ele>
        <time>2021-02-18T13:34:33Z</time>
      </trkpt>
      <trkpt lat="45.06343" lon="5.49426">
        <ele>1174.253704</ele>
        <time>2021-02-18T13:34:37Z</time>
      </trkpt>
      <trkpt lat="45.06351" lon="5.49437">
        <ele>1175.25403648</ele>
        <time>2021-02-18T13:34:41Z</time>
      </trkpt>
      <trkpt lat="45.0636" lon="5.49444">
        <ele>1174.25440024</ele>
        <time>2021-02-18T13:34:46Z</time>
      </trkpt>
      <trkpt lat="45.06373" lon="5.49454">
        <ele>1176.25493248</ele>
        <time>2021-02-18T13:34:50Z</time>
      </trkpt>
      <trkpt lat="45.06391" lon="5.49469">
        <ele>1178.25562416</ele>
        <time>2021-02-18T13:34:55Z</time>
      </trkpt>
      <trkpt lat="45.06398" lon="5.49473">
        <ele>1177.25591728</ele>
        <time>2021-02-18T13:35:00Z</time>
      </trkpt>
      <trkpt lat="45.06406" lon="5.49478">
        <ele>1179.25623636</ele>
        <time>2021-02-18T13:35:07Z</time>
      </trkpt>
      <trkpt lat="45.06413" lon="5.49484">
        <ele>1180.25650124</ele>
        <time>2021-02-18T13:35:12Z</time>
      </trkpt>
      <trkpt lat="45.06419" lon="5.49488">
        <ele>1174.25677096</ele>
        <time>2021-02-18T13:35:17Z</time>
      </trkpt>
      <trkpt lat="45.06428" lon="5.49494">
        <ele>1174.25711648</ele>
        <time>2021-02-18T13:35:22Z</time>
      </trkpt>
      <trkpt lat="45.06436" lon="5.495">
        <ele>1172.25742692</ele>
        <time>2021-02-18T13:35:27Z</time>
      </trkpt>
      <trkpt lat="45.06439" lon="5.4951">
        <ele>1173.25755156</ele>
        <time>2021-02-18T13:35:31Z</time>
      </trkpt>
      <trkpt lat="45.06447" lon="5.49518">
        <ele>1173.2578746</ele>
        <time>2021-02-18T13:35:36Z</time>
      </trkpt>
      <trkpt lat="45.06453" lon="5.49526">
        <ele>1173.258137</ele>
        <time>2021-02-18T13:35:43Z</time>
      </trkpt>
      <trkpt lat="45.06456" lon="5.49537">
        <ele>1173.25823728</ele>
        <time>2021-02-18T13:35:50Z</time>
      </trkpt>
      <trkpt lat="45.06459" lon="5.49548">
        <ele>1174.25836312</ele>
        <time>2021-02-18T13:35:57Z</time>
      </trkpt>
      <trkpt lat="45.06465" lon="5.49558">
        <ele>1174.25858776</ele>
        <time>2021-02-18T13:36:03Z</time>
      </trkpt>
      <trkpt lat="45.06469" lon="5.49568">
        <ele>1172.25877304</ele>
        <time>2021-02-18T13:36:09Z</time>
      </trkpt>
      <trkpt lat="45.06475" lon="5.49576">
        <ele>1173.25901232</ele>
        <time>2021-02-18T13:36:14Z</time>
      </trkpt>
      <trkpt lat="45.06479" lon="5.49585">
        <ele>1172.25915976</ele>
        <time>2021-02-18T13:36:19Z</time>
      </trkpt>
      <trkpt lat="45.06487" lon="5.49591">
        <ele>1172.25946648</ele>
        <time>2021-02-18T13:36:24Z</time>
      </trkpt>
      <trkpt lat="45.06492" lon="5.49599">
        <ele>1174.25968776</ele>
        <time>2021-02-18T13:36:31Z</time>
      </trkpt>
      <trkpt lat="45.06497" lon="5.49608">
        <ele>1175.259898</ele>
        <time>2021-02-18T13:36:36Z</time>
      </trkpt>
      <trkpt lat="45.06505" lon="5.49615">
        <ele>1176.26019308</ele>
        <time>2021-02-18T13:36:42Z</time>
      </trkpt>
      <trkpt lat="45.06511" lon="5.49622">
        <ele>1177.26042576</ele>
        <time>2021-02-18T13:36:47Z</time>
      </trkpt>
      <trkpt lat="45.06517" lon="5.49628">
        <ele>1177.26069468</ele>
        <time>2021-02-18T13:36:52Z</time>
      </trkpt>
      <trkpt lat="45.06524" lon="5.49632">
        <ele>1176.26097128</ele>
        <time>2021-02-18T13:36:57Z</time>
      </trkpt>
      <trkpt lat="45.0653" lon="5.49642">
        <ele>1175.26118276</ele>
        <time>2021-02-18T13:37:02Z</time>
      </trkpt>
      <trkpt lat="45.06538" lon="5.49642">
        <ele>1177.2615114</ele>
        <time>2021-02-18T13:37:09Z</time>
      </trkpt>
      <trkpt lat="45.06546" lon="5.49641">
        <ele>1181.26182004</ele>
        <time>2021-02-18T13:37:15Z</time>
      </trkpt>
      <trkpt lat="45.06553" lon="5.49646">
        <ele>1180.26212616</ele>
        <time>2021-02-18T13:37:21Z</time>
      </trkpt>
      <trkpt lat="45.0656" lon="5.49646">
        <ele>1182.26239332</ele>
        <time>2021-02-18T13:37:25Z</time>
      </trkpt>
      <trkpt lat="45.06566" lon="5.49649">
        <ele>1185.26263464</ele>
        <time>2021-02-18T13:37:29Z</time>
      </trkpt>
      <trkpt lat="45.06571" lon="5.49671">
        <ele>1180.26285064</ele>
        <time>2021-02-18T13:37:33Z</time>
      </trkpt>
      <trkpt lat="45.06574" lon="5.4968">
        <ele>1179.26296808</ele>
        <time>2021-02-18T13:37:37Z</time>
      </trkpt>
      <trkpt lat="45.06575" lon="5.49693">
        <ele>1177.26300212</ele>
        <time>2021-02-18T13:37:42Z</time>
      </trkpt>
      <trkpt lat="45.06578" lon="5.49703">
        <ele>1175.26313244</ele>
        <time>2021-02-18T13:37:47Z</time>
      </trkpt>
      <trkpt lat="45.06582" lon="5.49713">
        <ele>1176.26328224</ele>
        <time>2021-02-18T13:37:52Z</time>
      </trkpt>
      <trkpt lat="45.06586" lon="5.49722">
        <ele>1179.26345596</ele>
        <time>2021-02-18T13:37:57Z</time>
      </trkpt>
      <trkpt lat="45.06591" lon="5.49732">
        <ele>1180.26364856</ele>
        <time>2021-02-18T13:38:04Z</time>
      </trkpt>
      <trkpt lat="45.06596" lon="5.49741">
        <ele>1184.26384668</ele>
        <time>2021-02-18T13:38:09Z</time>
      </trkpt>
      <trkpt lat="45.06601" lon="5.49751">
        <ele>1186.26405332</ele>
        <time>2021-02-18T13:38:15Z</time>
      </trkpt>
      <trkpt lat="45.06607" lon="5.49759">
        <ele>1185.26427992</ele>
        <time>2021-02-18T13:38:19Z</time>
      </trkpt>
      <trkpt lat="45.06614" lon="5.49765">
        <ele>1186.26456984</ele>
        <time>2021-02-18T13:38:25Z</time>
      </trkpt>
      <trkpt lat="45.06622" lon="5.49772">
        <ele>1192.26487648</ele>
        <time>2021-02-18T13:38:31Z</time>
      </trkpt>
      <trkpt lat="45.06626" lon="5.4978">
        <ele>1194.26505332</ele>
        <time>2021-02-18T13:38:35Z</time>
      </trkpt>
      <trkpt lat="45.06628" lon="5.49802">
        <ele>1189.26511892</ele>
        <time>2021-02-18T13:38:40Z</time>
      </trkpt>
      <trkpt lat="45.0663" lon="5.49815">
        <ele>1188.26518376</ele>
        <time>2021-02-18T13:38:45Z</time>
      </trkpt>
      <trkpt lat="45.06629" lon="5.49826">
        <ele>1185.26515968</ele>
        <time>2021-02-18T13:38:50Z</time>
      </trkpt>
      <trkpt lat="45.06625" lon="5.49835">
        <ele>1184.264983</ele>
        <time>2021-02-18T13:38:54Z</time>
      </trkpt>
      <trkpt lat="45.0662" lon="5.49843">
        <ele>1184.26479876</ele>
        <time>2021-02-18T13:39:01Z</time>
      </trkpt>
      <trkpt lat="45.06615" lon="5.4985">
        <ele>1181.26461388</ele>
        <time>2021-02-18T13:39:05Z</time>
      </trkpt>
      <trkpt lat="45.06608" lon="5.49859">
        <ele>1179.26430652</ele>
        <time>2021-02-18T13:39:10Z</time>
      </trkpt>
      <trkpt lat="45.06603" lon="5.49869">
        <ele>1183.26410392</ele>
        <time>2021-02-18T13:39:15Z</time>
      </trkpt>
      <trkpt lat="45.06598" lon="5.4988">
        <ele>1182.26390276</ele>
        <time>2021-02-18T13:39:22Z</time>
      </trkpt>
      <trkpt lat="45.06597" lon="5.4989">
        <ele>1183.26388072</ele>
        <time>2021-02-18T13:39:27Z</time>
      </trkpt>
      <trkpt lat="45.06598" lon="5.49901">
        <ele>1184.26393104</ele>
        <time>2021-02-18T13:39:34Z</time>
      </trkpt>
      <trkpt lat="45.06601" lon="5.49913">
        <ele>1183.2640566</ele>
        <time>2021-02-18T13:39:39Z</time>
      </trkpt>
      <trkpt lat="45.06607" lon="5.49921">
        <ele>1183.26428896</ele>
        <time>2021-02-18T13:39:47Z</time>
      </trkpt>
      <trkpt lat="45.06612" lon="5.49931">
        <ele>1179.26448124</ele>
        <time>2021-02-18T13:39:53Z</time>
      </trkpt>
      <trkpt lat="45.06619" lon="5.49937">
        <ele>1178.26477356</ele>
        <time>2021-02-18T13:40:00Z</time>
      </trkpt>
      <trkpt lat="45.06622" lon="5.4995">
        <ele>1177.26487956</ele>
        <time>2021-02-18T13:40:04Z</time>
      </trkpt>
      <trkpt lat="45.06624" lon="5.4996">
        <ele>1175.26496964</ele>
        <time>2021-02-18T13:40:08Z</time>
      </trkpt>
      <trkpt lat="45.06627" lon="5.49972">
        <ele>1176.26507064</ele>
        <time>2021-02-18T13:40:13Z</time>
      </trkpt>
      <trkpt lat="45.06623" lon="5.49983">
        <ele>1176.2649128</ele>
        <time>2021-02-18T13:40:18Z</time>
      </trkpt>
      <trkpt lat="45.0662" lon="5.49995">
        <ele>1178.26480436</ele>
        <time>2021-02-18T13:40:26Z</time>
      </trkpt>
      <trkpt lat="45.06613" lon="5.50001">
        <ele>1180.26446928</ele>
        <time>2021-02-18T13:40:33Z</time>
      </trkpt>
      <trkpt lat="45.06606" lon="5.50006">
        <ele>1181.2640094</ele>
        <time>2021-02-18T13:40:38Z</time>
      </trkpt>
      <trkpt lat="45.06601" lon="5.50011">
        <ele>1180.2635668</ele>
        <time>2021-02-18T13:40:43Z</time>
      </trkpt>
      <trkpt lat="45.06594" lon="5.50017">
        <ele>1181.26309664</ele>
        <time>2021-02-18T13:40:47Z</time>
      </trkpt>
      <trkpt lat="45.06587" lon="5.50022">
        <ele>1181.26258592</ele>
        <time>2021-02-18T13:40:52Z</time>
      </trkpt>
      <trkpt lat="45.0658" lon="5.50028">
        <ele>1180.26207432</ele>
        <time>2021-02-18T13:40:57Z</time>
      </trkpt>
      <trkpt lat="45.06572" lon="5.50036">
        <ele>1181.2614398</ele>
        <time>2021-02-18T13:41:02Z</time>
      </trkpt>
      <trkpt lat="45.06566" lon="5.50043">
        <ele>1182.26091624</ele>
        <time>2021-02-18T13:41:06Z</time>
      </trkpt>
      <trkpt lat="45.06559" lon="5.50051">
        <ele>1183.26031</ele>
        <time>2021-02-18T13:41:10Z</time>
      </trkpt>
      <trkpt lat="45.06552" lon="5.50059">
        <ele>1185.25972016</ele>
        <time>2021-02-18T13:41:15Z</time>
      </trkpt>
      <trkpt lat="45.06545" lon="5.5006">
        <ele>1187.2593918</ele>
        <time>2021-02-18T13:41:21Z</time>
      </trkpt>
      <trkpt lat="45.06539" lon="5.50064">
        <ele>1186.25900016</ele>
        <time>2021-02-18T13:41:25Z</time>
      </trkpt>
      <trkpt lat="45.0653" lon="5.50069">
        <ele>1186.2584108</ele>
        <time>2021-02-18T13:41:29Z</time>
      </trkpt>
      <trkpt lat="45.06521" lon="5.5007">
        <ele>1183.25806124</ele>
        <time>2021-02-18T13:41:34Z</time>
      </trkpt>
      <trkpt lat="45.06514" lon="5.50075">
        <ele>1183.25755144</ele>
        <time>2021-02-18T13:41:40Z</time>
      </trkpt>
      <trkpt lat="45.06506" lon="5.50076">
        <ele>1182.25719756</ele>
        <time>2021-02-18T13:41:45Z</time>
      </trkpt>
      <trkpt lat="45.06497" lon="5.50081">
        <ele>1181.25665144</ele>
        <time>2021-02-18T13:41:49Z</time>
      </trkpt>
      <trkpt lat="45.06489" lon="5.50084">
        <ele>1182.25618612</ele>
        <time>2021-02-18T13:41:54Z</time>
      </trkpt>
      <trkpt lat="45.06484" lon="5.50092">
        <ele>1183.25567976</ele>
        <time>2021-02-18T13:41:58Z</time>
      </trkpt>
      <trkpt lat="45.06476" lon="5.50096">
        <ele>1184.25520084</ele>
        <time>2021-02-18T13:42:02Z</time>
      </trkpt>
      <trkpt lat="45.06468" lon="5.501">
        <ele>1185.25473088</ele>
        <time>2021-02-18T13:42:07Z</time>
      </trkpt>
      <trkpt lat="45.06458" lon="5.50103">
        <ele>1182.2542304</ele>
        <time>2021-02-18T13:42:11Z</time>
      </trkpt>
      <trkpt lat="45.06452" lon="5.5011">
        <ele>1181.25364684</ele>
        <time>2021-02-18T13:42:16Z</time>
      </trkpt>
      <trkpt lat="45.06445" lon="5.50119">
        <ele>1183.25303264</ele>
        <time>2021-02-18T13:42:22Z</time>
      </trkpt>
      <trkpt lat="45.06438" lon="5.50126">
        <ele>1184.25246588</ele>
        <time>2021-02-18T13:42:27Z</time>
      </trkpt>
      <trkpt lat="45.06431" lon="5.50133">
        <ele>1183.25191996</ele>
        <time>2021-02-18T13:42:31Z</time>
      </trkpt>
      <trkpt lat="45.06423" lon="5.5014">
        <ele>1181.25133456</ele>
        <time>2021-02-18T13:42:35Z</time>
      </trkpt>
      <trkpt lat="45.06417" lon="5.50144">
        <ele>1181.2509336</ele>
        <time>2021-02-18T13:42:39Z</time>
      </trkpt>
      <trkpt lat="45.06412" lon="5.50151">
        <ele>1180.250409</ele>
        <time>2021-02-18T13:42:44Z</time>
      </trkpt>
      <trkpt lat="45.06408" lon="5.50163">
        <ele>1182.249808</ele>
        <time>2021-02-18T13:42:49Z</time>
      </trkpt>
      <trkpt lat="45.06403" lon="5.5017">
        <ele>1183.24930048</ele>
        <time>2021-02-18T13:42:55Z</time>
      </trkpt>
      <trkpt lat="45.06398" lon="5.50179">
        <ele>1185.24876436</ele>
        <time>2021-02-18T13:43:00Z</time>
      </trkpt>
      <trkpt lat="45.06393" lon="5.50188">
        <ele>1187.24821496</ele>
        <time>2021-02-18T13:43:05Z</time>
      </trkpt>
      <trkpt lat="45.0639" lon="5.50197">
        <ele>1187.247694</ele>
        <time>2021-02-18T13:43:10Z</time>
      </trkpt>
      <trkpt lat="45.06385" lon="5.50209">
        <ele>1185.24703304</ele>
        <time>2021-02-18T13:43:15Z</time>
      </trkpt>
      <trkpt lat="45.06382" lon="5.5022">
        <ele>1184.24647676</ele>
        <time>2021-02-18T13:43:20Z</time>
      </trkpt>
      <trkpt lat="45.06376" lon="5.5023">
        <ele>1184.24585792</ele>
        <time>2021-02-18T13:43:25Z</time>
      </trkpt>
      <trkpt lat="45.06371" lon="5.50239">
        <ele>1181.24528352</ele>
        <time>2021-02-18T13:43:30Z</time>
      </trkpt>
      <trkpt lat="45.06367" lon="5.50248">
        <ele>1182.24474756</ele>
        <time>2021-02-18T13:43:34Z</time>
      </trkpt>
      <trkpt lat="45.06362" lon="5.50258">
        <ele>1184.24416908</ele>
        <time>2021-02-18T13:43:38Z</time>
      </trkpt>
      <trkpt lat="45.06359" lon="5.50266">
        <ele>1183.2436996</ele>
        <time>2021-02-18T13:43:42Z</time>
      </trkpt>
      <trkpt lat="45.06354" lon="5.50277">
        <ele>1184.24307768</ele>
        <time>2021-02-18T13:43:47Z</time>
      </trkpt>
      <trkpt lat="45.06349" lon="5.50287">
        <ele>1186.24247136</ele>
        <time>2021-02-18T13:43:53Z</time>
      </trkpt>
      <trkpt lat="45.06345" lon="5.50296">
        <ele>1185.24198548</ele>
        <time>2021-02-18T13:43:57Z</time>
      </trkpt>
      <trkpt lat="45.06341" lon="5.50307">
        <ele>1184.24135776</ele>
        <time>2021-02-18T13:44:02Z</time>
      </trkpt>
      <trkpt lat="45.06337" lon="5.50317">
        <ele>1186.24080024</ele>
        <time>2021-02-18T13:44:06Z</time>
      </trkpt>
      <trkpt lat="45.06334" lon="5.50329">
        <ele>1187.24020908</ele>
        <time>2021-02-18T13:44:12Z</time>
      </trkpt>
      <trkpt lat="45.06327" lon="5.50339">
        <ele>1185.23954124</ele>
        <time>2021-02-18T13:44:16Z</time>
      </trkpt>
      <trkpt lat="45.06324" lon="5.50349">
        <ele>1189.23902816</ele>
        <time>2021-02-18T13:44:21Z</time>
      </trkpt>
      <trkpt lat="45.06319" lon="5.50358">
        <ele>1187.23844056</ele>
        <time>2021-02-18T13:44:26Z</time>
      </trkpt>
      <trkpt lat="45.06316" lon="5.50369">
        <ele>1185.23786332</ele>
        <time>2021-02-18T13:44:30Z</time>
      </trkpt>
      <trkpt lat="45.06314" lon="5.50379">
        <ele>1185.237409</ele>
        <time>2021-02-18T13:44:34Z</time>
      </trkpt>
      <trkpt lat="45.06311" lon="5.50389">
        <ele>1184.23688568</ele>
        <time>2021-02-18T13:44:38Z</time>
      </trkpt>
      <trkpt lat="45.06308" lon="5.50399">
        <ele>1182.23634724</ele>
        <time>2021-02-18T13:44:42Z</time>
      </trkpt>
      <trkpt lat="45.063" lon="5.5041">
        <ele>1180.23561572</ele>
        <time>2021-02-18T13:44:47Z</time>
      </trkpt>
      <trkpt lat="45.06295" lon="5.50417">
        <ele>1182.2351036</ele>
        <time>2021-02-18T13:44:51Z</time>
      </trkpt>
      <trkpt lat="45.06291" lon="5.50425">
        <ele>1182.23463036</ele>
        <time>2021-02-18T13:44:55Z</time>
      </trkpt>
      <trkpt lat="45.06286" lon="5.50434">
        <ele>1182.23407004</ele>
        <time>2021-02-18T13:44:59Z</time>
      </trkpt>
      <trkpt lat="45.06278" lon="5.50443">
        <ele>1184.23338564</ele>
        <time>2021-02-18T13:45:04Z</time>
      </trkpt>
      <trkpt lat="45.06274" lon="5.50454">
        <ele>1186.23278392</ele>
        <time>2021-02-18T13:45:08Z</time>
      </trkpt>
      <trkpt lat="45.06269" lon="5.50464">
        <ele>1184.23218572</ele>
        <time>2021-02-18T13:45:12Z</time>
      </trkpt>
      <trkpt lat="45.06266" lon="5.50475">
        <ele>1185.231623</ele>
        <time>2021-02-18T13:45:17Z</time>
      </trkpt>
      <trkpt lat="45.06258" lon="5.50485">
        <ele>1183.23093048</ele>
        <time>2021-02-18T13:45:22Z</time>
      </trkpt>
      <trkpt lat="45.06251" lon="5.50491">
        <ele>1182.23039616</ele>
        <time>2021-02-18T13:45:26Z</time>
      </trkpt>
      <trkpt lat="45.06243" lon="5.50499">
        <ele>1180.22976416</ele>
        <time>2021-02-18T13:45:30Z</time>
      </trkpt>
      <trkpt lat="45.06232" lon="5.50504">
        <ele>1179.22912128</ele>
        <time>2021-02-18T13:45:35Z</time>
      </trkpt>
      <trkpt lat="45.06225" lon="5.50511">
        <ele>1177.2285678</ele>
        <time>2021-02-18T13:45:39Z</time>
      </trkpt>
      <trkpt lat="45.06219" lon="5.50522">
        <ele>1180.2279066</ele>
        <time>2021-02-18T13:45:43Z</time>
      </trkpt>
      <trkpt lat="45.06209" lon="5.50532">
        <ele>1179.2270894</ele>
        <time>2021-02-18T13:45:48Z</time>
      </trkpt>
      <trkpt lat="45.06203" lon="5.50548">
        <ele>1182.22622564</ele>
        <time>2021-02-18T13:45:52Z</time>
      </trkpt>
      <trkpt lat="45.06195" lon="5.50554">
        <ele>1183.22566864</ele>
        <time>2021-02-18T13:45:57Z</time>
      </trkpt>
      <trkpt lat="45.06185" lon="5.50551">
        <ele>1182.22536848</ele>
        <time>2021-02-18T13:46:02Z</time>
      </trkpt>
      <trkpt lat="45.06185" lon="5.50567">
        <ele>1181.2247026</ele>
        <time>2021-02-18T13:46:06Z</time>
      </trkpt>
      <trkpt lat="45.0618" lon="5.50578">
        <ele>1181.22409532</ele>
        <time>2021-02-18T13:46:11Z</time>
      </trkpt>
      <trkpt lat="45.06178" lon="5.5059">
        <ele>1180.22354372</ele>
        <time>2021-02-18T13:46:17Z</time>
      </trkpt>
      <trkpt lat="45.06172" lon="5.50598">
        <ele>1179.22294336</ele>
        <time>2021-02-18T13:46:21Z</time>
      </trkpt>
      <trkpt lat="45.06168" lon="5.50608">
        <ele>1178.22238132</ele>
        <time>2021-02-18T13:46:26Z</time>
      </trkpt>
      <trkpt lat="45.06161" lon="5.50614">
        <ele>1171.22185348</ele>
        <time>2021-02-18T13:46:30Z</time>
      </trkpt>
      <trkpt lat="45.06157" lon="5.50625">
        <ele>1172.22128164</ele>
        <time>2021-02-18T13:46:35Z</time>
      </trkpt>
      <trkpt lat="45.06156" lon="5.50635">
        <ele>1173.22084212</ele>
        <time>2021-02-18T13:46:40Z</time>
      </trkpt>
      <trkpt lat="45.06156" lon="5.50648">
        <ele>1171.22032892</ele>
        <time>2021-02-18T13:46:46Z</time>
      </trkpt>
      <trkpt lat="45.06148" lon="5.50653">
        <ele>1172.21981744</ele>
        <time>2021-02-18T13:46:53Z</time>
      </trkpt>
      <trkpt lat="45.06142" lon="5.50661">
        <ele>1170.21923876</ele>
        <time>2021-02-18T13:47:00Z</time>
      </trkpt>
      <trkpt lat="45.06135" lon="5.50668">
        <ele>1173.21868712</ele>
        <time>2021-02-18T13:47:07Z</time>
      </trkpt>
      <trkpt lat="45.06128" lon="5.50672">
        <ele>1175.21825124</ele>
        <time>2021-02-18T13:47:12Z</time>
      </trkpt>
      <trkpt lat="45.06122" lon="5.50679">
        <ele>1174.2177216</ele>
        <time>2021-02-18T13:47:16Z</time>
      </trkpt>
      <trkpt lat="45.06112" lon="5.50687">
        <ele>1173.21699552</ele>
        <time>2021-02-18T13:47:21Z</time>
      </trkpt>
      <trkpt lat="45.06105" lon="5.50695">
        <ele>1174.21639308</ele>
        <time>2021-02-18T13:47:25Z</time>
      </trkpt>
      <trkpt lat="45.06097" lon="5.50702">
        <ele>1176.2157904</ele>
        <time>2021-02-18T13:47:30Z</time>
      </trkpt>
      <trkpt lat="45.0609" lon="5.50708">
        <ele>1177.2152764</ele>
        <time>2021-02-18T13:47:34Z</time>
      </trkpt>
      <trkpt lat="45.06081" lon="5.50721">
        <ele>1177.21440436</ele>
        <time>2021-02-18T13:47:39Z</time>
      </trkpt>
      <trkpt lat="45.06073" lon="5.50727">
        <ele>1176.21385428</ele>
        <time>2021-02-18T13:47:43Z</time>
      </trkpt>
      <trkpt lat="45.06066" lon="5.50737">
        <ele>1177.21314332</ele>
        <time>2021-02-18T13:47:48Z</time>
      </trkpt>
      <trkpt lat="45.06057" lon="5.50741">
        <ele>1178.21264532</ele>
        <time>2021-02-18T13:47:54Z</time>
      </trkpt>
      <trkpt lat="45.0605" lon="5.50745">
        <ele>1178.21221292</ele>
        <time>2021-02-18T13:47:59Z</time>
      </trkpt>
      <trkpt lat="45.06043" lon="5.50747">
        <ele>1178.21183072</ele>
        <time>2021-02-18T13:48:04Z</time>
      </trkpt>
      <trkpt lat="45.06037" lon="5.50753">
        <ele>1179.21134868</ele>
        <time>2021-02-18T13:48:08Z</time>
      </trkpt>
      <trkpt lat="45.06029" lon="5.50758">
        <ele>1178.21086344</ele>
        <time>2021-02-18T13:48:13Z</time>
      </trkpt>
      <trkpt lat="45.06022" lon="5.50762">
        <ele>1179.21040536</ele>
        <time>2021-02-18T13:48:17Z</time>
      </trkpt>
      <trkpt lat="45.06015" lon="5.50769">
        <ele>1178.20982816</ele>
        <time>2021-02-18T13:48:21Z</time>
      </trkpt>
      <trkpt lat="45.06006" lon="5.50772">
        <ele>1176.209358</ele>
        <time>2021-02-18T13:48:26Z</time>
      </trkpt>
      <trkpt lat="45.05999" lon="5.50778">
        <ele>1175.20882008</ele>
        <time>2021-02-18T13:48:31Z</time>
      </trkpt>
      <trkpt lat="45.05993" lon="5.50786">
        <ele>1174.20826136</ele>
        <time>2021-02-18T13:48:35Z</time>
      </trkpt>
      <trkpt lat="45.05985" lon="5.50791">
        <ele>1174.20776352</ele>
        <time>2021-02-18T13:48:40Z</time>
      </trkpt>
      <trkpt lat="45.05981" lon="5.50802">
        <ele>1177.20717788</ele>
        <time>2021-02-18T13:48:44Z</time>
      </trkpt>
      <trkpt lat="45.05977" lon="5.50814">
        <ele>1178.2065488</ele>
        <time>2021-02-18T13:48:48Z</time>
      </trkpt>
      <trkpt lat="45.05971" lon="5.50826">
        <ele>1178.2058098</ele>
        <time>2021-02-18T13:48:53Z</time>
      </trkpt>
      <trkpt lat="45.05965" lon="5.50831">
        <ele>1177.20538444</ele>
        <time>2021-02-18T13:48:57Z</time>
      </trkpt>
      <trkpt lat="45.05959" lon="5.50839">
        <ele>1177.20478888</ele>
        <time>2021-02-18T13:49:02Z</time>
      </trkpt>
      <trkpt lat="45.05954" lon="5.50849">
        <ele>1178.20420928</ele>
        <time>2021-02-18T13:49:07Z</time>
      </trkpt>
      <trkpt lat="45.05949" lon="5.5086">
        <ele>1177.20357044</ele>
        <time>2021-02-18T13:49:12Z</time>
      </trkpt>
      <trkpt lat="45.05941" lon="5.50865">
        <ele>1175.2030318</ele>
        <time>2021-02-18T13:49:16Z</time>
      </trkpt>
      <trkpt lat="45.05934" lon="5.50874">
        <ele>1172.2023946</ele>
        <time>2021-02-18T13:49:20Z</time>
      </trkpt>
      <trkpt lat="45.05927" lon="5.50879">
        <ele>1170.20192004</ele>
        <time>2021-02-18T13:49:24Z</time>
      </trkpt>
      <trkpt lat="45.05921" lon="5.50887">
        <ele>1169.20135676</ele>
        <time>2021-02-18T13:49:28Z</time>
      </trkpt>
      <trkpt lat="45.05913" lon="5.50896">
        <ele>1171.2006942</ele>
        <time>2021-02-18T13:49:33Z</time>
      </trkpt>
      <trkpt lat="45.05906" lon="5.50902">
        <ele>1173.20013968</ele>
        <time>2021-02-18T13:49:37Z</time>
      </trkpt>
      <trkpt lat="45.05899" lon="5.50911">
        <ele>1173.19951488</ele>
        <time>2021-02-18T13:49:41Z</time>
      </trkpt>
      <trkpt lat="45.05892" lon="5.50918">
        <ele>1173.19893244</ele>
        <time>2021-02-18T13:49:47Z</time>
      </trkpt>
      <trkpt lat="45.05886" lon="5.50928">
        <ele>1174.19832356</ele>
        <time>2021-02-18T13:49:54Z</time>
      </trkpt>
      <trkpt lat="45.05879" lon="5.50939">
        <ele>1173.19762152</ele>
        <time>2021-02-18T13:49:59Z</time>
      </trkpt>
      <trkpt lat="45.05874" lon="5.50949">
        <ele>1173.1970092</ele>
        <time>2021-02-18T13:50:03Z</time>
      </trkpt>
      <trkpt lat="45.05869" lon="5.50961">
        <ele>1174.19631136</ele>
        <time>2021-02-18T13:50:07Z</time>
      </trkpt>
      <trkpt lat="45.05863" lon="5.5097">
        <ele>1172.19570408</ele>
        <time>2021-02-18T13:50:11Z</time>
      </trkpt>
      <trkpt lat="45.05856" lon="5.5098">
        <ele>1172.19505048</ele>
        <time>2021-02-18T13:50:16Z</time>
      </trkpt>
      <trkpt lat="45.0585" lon="5.5099">
        <ele>1172.19439604</ele>
        <time>2021-02-18T13:50:20Z</time>
      </trkpt>
      <trkpt lat="45.05843" lon="5.50999">
        <ele>1171.19375544</ele>
        <time>2021-02-18T13:50:25Z</time>
      </trkpt>
      <trkpt lat="45.05835" lon="5.51007">
        <ele>1170.19314096</ele>
        <time>2021-02-18T13:50:29Z</time>
      </trkpt>
      <trkpt lat="45.05829" lon="5.51015">
        <ele>1172.1925496</ele>
        <time>2021-02-18T13:50:33Z</time>
      </trkpt>
      <trkpt lat="45.05822" lon="5.51025">
        <ele>1172.191908</ele>
        <time>2021-02-18T13:50:37Z</time>
      </trkpt>
      <trkpt lat="45.05814" lon="5.5103">
        <ele>1172.19135516</ele>
        <time>2021-02-18T13:50:42Z</time>
      </trkpt>
      <trkpt lat="45.05806" lon="5.51035">
        <ele>1175.19084332</ele>
        <time>2021-02-18T13:50:46Z</time>
      </trkpt>
      <trkpt lat="45.05796" lon="5.51044">
        <ele>1176.19010564</ele>
        <time>2021-02-18T13:50:51Z</time>
      </trkpt>
      <trkpt lat="45.05789" lon="5.51047">
        <ele>1179.18967856</ele>
        <time>2021-02-18T13:50:55Z</time>
      </trkpt>
      <trkpt lat="45.05781" lon="5.51052">
        <ele>1179.18917984</ele>
        <time>2021-02-18T13:50:59Z</time>
      </trkpt>
      <trkpt lat="45.05774" lon="5.51057">
        <ele>1178.18870612</ele>
        <time>2021-02-18T13:51:04Z</time>
      </trkpt>
      <trkpt lat="45.05764" lon="5.5106">
        <ele>1176.18817332</ele>
        <time>2021-02-18T13:51:08Z</time>
      </trkpt>
      <trkpt lat="45.05755" lon="5.51066">
        <ele>1178.18755408</ele>
        <time>2021-02-18T13:51:12Z</time>
      </trkpt>
      <trkpt lat="45.05747" lon="5.51071">
        <ele>1179.18701276</ele>
        <time>2021-02-18T13:51:17Z</time>
      </trkpt>
      <trkpt lat="45.05738" lon="5.51075">
        <ele>1177.18651408</ele>
        <time>2021-02-18T13:51:24Z</time>
      </trkpt>
      <trkpt lat="45.05732" lon="5.51083">
        <ele>1175.185923</ele>
        <time>2021-02-18T13:51:31Z</time>
      </trkpt>
      <trkpt lat="45.05735" lon="5.51093">
        <ele>1180.18566504</ele>
        <time>2021-02-18T13:51:36Z</time>
      </trkpt>
      <trkpt lat="45.0573" lon="5.51105">
        <ele>1177.18500732</ele>
        <time>2021-02-18T13:51:40Z</time>
      </trkpt>
      <trkpt lat="45.05718" lon="5.51117">
        <ele>1175.18405176</ele>
        <time>2021-02-18T13:51:45Z</time>
      </trkpt>
      <trkpt lat="45.05712" lon="5.51125">
        <ele>1174.18346916</ele>
        <time>2021-02-18T13:51:49Z</time>
      </trkpt>
      <trkpt lat="45.05704" lon="5.5113">
        <ele>1174.18295928</ele>
        <time>2021-02-18T13:51:54Z</time>
      </trkpt>
      <trkpt lat="45.05697" lon="5.51138">
        <ele>1174.182378</ele>
        <time>2021-02-18T13:51:59Z</time>
      </trkpt>
      <trkpt lat="45.05692" lon="5.51143">
        <ele>1176.1819324</ele>
        <time>2021-02-18T13:52:03Z</time>
      </trkpt>
      <trkpt lat="45.05684" lon="5.5115">
        <ele>1177.18135152</ele>
        <time>2021-02-18T13:52:08Z</time>
      </trkpt>
      <trkpt lat="45.05677" lon="5.51155">
        <ele>1179.180887</ele>
        <time>2021-02-18T13:52:12Z</time>
      </trkpt>
      <trkpt lat="45.05669" lon="5.51153">
        <ele>1181.18062296</ele>
        <time>2021-02-18T13:52:17Z</time>
      </trkpt>
      <trkpt lat="45.05657" lon="5.51146">
        <ele>1180.1804296</ele>
        <time>2021-02-18T13:52:21Z</time>
      </trkpt>
      <trkpt lat="45.0565" lon="5.51148">
        <ele>1176.18006008</ele>
        <time>2021-02-18T13:52:25Z</time>
      </trkpt>
      <trkpt lat="45.05641" lon="5.5115">
        <ele>1175.1796468</ele>
        <time>2021-02-18T13:52:29Z</time>
      </trkpt>
      <trkpt lat="45.05632" lon="5.51145">
        <ele>1177.17949876</ele>
        <time>2021-02-18T13:52:33Z</time>
      </trkpt>
      <trkpt lat="45.05626" lon="5.51144">
        <ele>1177.17924608</ele>
        <time>2021-02-18T13:52:37Z</time>
      </trkpt>
      <trkpt lat="45.05619" lon="5.51145">
        <ele>1178.17894012</ele>
        <time>2021-02-18T13:52:41Z</time>
      </trkpt>
      <trkpt lat="45.0561" lon="5.51145">
        <ele>1176.178601</ele>
        <time>2021-02-18T13:52:46Z</time>
      </trkpt>
      <trkpt lat="45.05601" lon="5.51148">
        <ele>1177.17810628</ele>
        <time>2021-02-18T13:52:50Z</time>
      </trkpt>
      <trkpt lat="45.05593" lon="5.51148">
        <ele>1178.17777076</ele>
        <time>2021-02-18T13:52:58Z</time>
      </trkpt>
      <trkpt lat="45.05584" lon="5.51149">
        <ele>1178.17737716</ele>
        <time>2021-02-18T13:53:03Z</time>
      </trkpt>
      <trkpt lat="45.05575" lon="5.51148">
        <ele>1176.17707664</ele>
        <time>2021-02-18T13:53:11Z</time>
      </trkpt>
      <trkpt lat="45.0558" lon="5.51159">
        <ele>1170.176867</ele>
        <time>2021-02-18T13:57:48Z</time>
      </trkpt>
      <trkpt lat="45.05578" lon="5.51169">
        <ele>1163.17634508</ele>
        <time>2021-02-18T13:57:56Z</time>
      </trkpt>
      <trkpt lat="45.05584" lon="5.51176">
        <ele>1159.17629524</ele>
        <time>2021-02-18T13:58:04Z</time>
      </trkpt>
      <trkpt lat="45.05589" lon="5.51188">
        <ele>1159.17605912</ele>
        <time>2021-02-18T13:58:08Z</time>
      </trkpt>
      <trkpt lat="45.05594" lon="5.51198">
        <ele>1159.17581208</ele>
        <time>2021-02-18T13:58:14Z</time>
      </trkpt>
      <trkpt lat="45.056" lon="5.51205">
        <ele>1158.17580216</ele>
        <time>2021-02-18T13:58:18Z</time>
      </trkpt>
      <trkpt lat="45.05611" lon="5.51213">
        <ele>1159.17591944</ele>
        <time>2021-02-18T13:58:22Z</time>
      </trkpt>
      <trkpt lat="45.05625" lon="5.51224">
        <ele>1158.17603828</ele>
        <time>2021-02-18T13:58:27Z</time>
      </trkpt>
      <trkpt lat="45.05631" lon="5.51239">
        <ele>1152.1756958</ele>
        <time>2021-02-18T13:58:32Z</time>
      </trkpt>
      <trkpt lat="45.05637" lon="5.51256">
        <ele>1154.17526132</ele>
        <time>2021-02-18T13:58:37Z</time>
      </trkpt>
      <trkpt lat="45.05642" lon="5.51266">
        <ele>1155.17506432</ele>
        <time>2021-02-18T13:58:41Z</time>
      </trkpt>
      <trkpt lat="45.05647" lon="5.51277">
        <ele>1153.17482772</ele>
        <time>2021-02-18T13:58:45Z</time>
      </trkpt>
      <trkpt lat="45.05647" lon="5.51293">
        <ele>1153.1741438</ele>
        <time>2021-02-18T13:58:50Z</time>
      </trkpt>
      <trkpt lat="45.05651" lon="5.51314">
        <ele>1152.17347036</ele>
        <time>2021-02-18T13:58:55Z</time>
      </trkpt>
      <trkpt lat="45.05647" lon="5.51336">
        <ele>1153.172449</ele>
        <time>2021-02-18T13:59:00Z</time>
      </trkpt>
      <trkpt lat="45.05638" lon="5.51351">
        <ele>1150.17148892</ele>
        <time>2021-02-18T13:59:05Z</time>
      </trkpt>
      <trkpt lat="45.0563" lon="5.51361">
        <ele>1149.17077808</ele>
        <time>2021-02-18T13:59:09Z</time>
      </trkpt>
      <trkpt lat="45.05617" lon="5.51375">
        <ele>1145.16967296</ele>
        <time>2021-02-18T13:59:14Z</time>
      </trkpt>
      <trkpt lat="45.05603" lon="5.51396">
        <ele>1148.16830744</ele>
        <time>2021-02-18T13:59:19Z</time>
      </trkpt>
      <trkpt lat="45.05602" lon="5.51414">
        <ele>1149.16751372</ele>
        <time>2021-02-18T13:59:23Z</time>
      </trkpt>
      <trkpt lat="45.05608" lon="5.51431">
        <ele>1149.16708544</ele>
        <time>2021-02-18T13:59:27Z</time>
      </trkpt>
      <trkpt lat="45.05615" lon="5.51448">
        <ele>1148.16668156</ele>
        <time>2021-02-18T13:59:31Z</time>
      </trkpt>
      <trkpt lat="45.05618" lon="5.51463">
        <ele>1147.1662272</ele>
        <time>2021-02-18T13:59:35Z</time>
      </trkpt>
      <trkpt lat="45.0561" lon="5.51482">
        <ele>1144.16514996</ele>
        <time>2021-02-18T13:59:39Z</time>
      </trkpt>
      <trkpt lat="45.05599" lon="5.51498">
        <ele>1143.16403072</ele>
        <time>2021-02-18T13:59:43Z</time>
      </trkpt>
      <trkpt lat="45.05583" lon="5.51515">
        <ele>1143.16271956</ele>
        <time>2021-02-18T13:59:48Z</time>
      </trkpt>
      <trkpt lat="45.05568" lon="5.51522">
        <ele>1142.1618448</ele>
        <time>2021-02-18T13:59:52Z</time>
      </trkpt>
      <trkpt lat="45.05556" lon="5.51529">
        <ele>1143.16108128</ele>
        <time>2021-02-18T13:59:56Z</time>
      </trkpt>
      <trkpt lat="45.05542" lon="5.51536">
        <ele>1144.16025368</ele>
        <time>2021-02-18T14:00:00Z</time>
      </trkpt>
      <trkpt lat="45.05534" lon="5.51558">
        <ele>1143.15905092</ele>
        <time>2021-02-18T14:00:05Z</time>
      </trkpt>
      <trkpt lat="45.05531" lon="5.51577">
        <ele>1140.1581574</ele>
        <time>2021-02-18T14:00:10Z</time>
      </trkpt>
      <trkpt lat="45.05534" lon="5.51591">
        <ele>1141.1577424</ele>
        <time>2021-02-18T14:00:14Z</time>
      </trkpt>
      <trkpt lat="45.05541" lon="5.51599">
        <ele>1138.15766512</ele>
        <time>2021-02-18T14:00:26Z</time>
      </trkpt>
      <trkpt lat="45.05544" lon="5.51609">
        <ele>1140.15742044</ele>
        <time>2021-02-18T14:00:34Z</time>
      </trkpt>
      <trkpt lat="45.05558" lon="5.51614">
        <ele>1143.15775744</ele>
        <time>2021-02-18T14:00:38Z</time>
      </trkpt>
      <trkpt lat="45.05562" lon="5.51625">
        <ele>1140.1574986</ele>
        <time>2021-02-18T14:00:43Z</time>
      </trkpt>
      <trkpt lat="45.05566" lon="5.51634">
        <ele>1137.15727416</ele>
        <time>2021-02-18T14:00:49Z</time>
      </trkpt>
      <trkpt lat="45.05568" lon="5.51646">
        <ele>1132.15687972</ele>
        <time>2021-02-18T14:00:57Z</time>
      </trkpt>
      <trkpt lat="45.05572" lon="5.51657">
        <ele>1138.15660748</ele>
        <time>2021-02-18T14:01:03Z</time>
      </trkpt>
      <trkpt lat="45.05574" lon="5.5167">
        <ele>1138.15616644</ele>
        <time>2021-02-18T14:01:07Z</time>
      </trkpt>
      <trkpt lat="45.05576" lon="5.51683">
        <ele>1137.1557382</ele>
        <time>2021-02-18T14:01:11Z</time>
      </trkpt>
      <trkpt lat="45.05577" lon="5.51694">
        <ele>1137.1553192</ele>
        <time>2021-02-18T14:01:15Z</time>
      </trkpt>
      <trkpt lat="45.05578" lon="5.51711">
        <ele>1139.15469544</ele>
        <time>2021-02-18T14:01:20Z</time>
      </trkpt>
      <trkpt lat="45.0558" lon="5.51725">
        <ele>1140.1541904</ele>
        <time>2021-02-18T14:01:24Z</time>
      </trkpt>
      <trkpt lat="45.05583" lon="5.51736">
        <ele>1139.15389024</ele>
        <time>2021-02-18T14:01:29Z</time>
      </trkpt>
      <trkpt lat="45.05588" lon="5.51744">
        <ele>1139.15373308</ele>
        <time>2021-02-18T14:01:34Z</time>
      </trkpt>
      <trkpt lat="45.05585" lon="5.5176">
        <ele>1135.15299068</ele>
        <time>2021-02-18T14:01:39Z</time>
      </trkpt>
      <trkpt lat="45.05583" lon="5.51772">
        <ele>1134.15243848</ele>
        <time>2021-02-18T14:01:43Z</time>
      </trkpt>
      <trkpt lat="45.05585" lon="5.51783">
        <ele>1136.1520716</ele>
        <time>2021-02-18T14:01:49Z</time>
      </trkpt>
      <trkpt lat="45.05582" lon="5.51795">
        <ele>1137.15150528</ele>
        <time>2021-02-18T14:01:53Z</time>
      </trkpt>
      <trkpt lat="45.05577" lon="5.51806">
        <ele>1137.15087432</ele>
        <time>2021-02-18T14:01:57Z</time>
      </trkpt>
      <trkpt lat="45.05572" lon="5.51815">
        <ele>1135.15028032</ele>
        <time>2021-02-18T14:02:02Z</time>
      </trkpt>
      <trkpt lat="45.05567" lon="5.51824">
        <ele>1138.14972608</ele>
        <time>2021-02-18T14:02:08Z</time>
      </trkpt>
      <trkpt lat="45.05567" lon="5.51835">
        <ele>1141.14927452</ele>
        <time>2021-02-18T14:02:16Z</time>
      </trkpt>
      <trkpt lat="45.05571" lon="5.5185">
        <ele>1138.14881424</ele>
        <time>2021-02-18T14:02:20Z</time>
      </trkpt>
      <trkpt lat="45.05573" lon="5.51862">
        <ele>1139.1484624</ele>
        <time>2021-02-18T14:02:24Z</time>
      </trkpt>
      <trkpt lat="45.05577" lon="5.51871">
        <ele>1141.14822268</ele>
        <time>2021-02-18T14:02:33Z</time>
      </trkpt>
      <trkpt lat="45.05579" lon="5.51882">
        <ele>1142.14789108</ele>
        <time>2021-02-18T14:02:38Z</time>
      </trkpt>
      <trkpt lat="45.05584" lon="5.51892">
        <ele>1144.14767804</ele>
        <time>2021-02-18T14:02:43Z</time>
      </trkpt>
      <trkpt lat="45.05589" lon="5.51908">
        <ele>1142.14723264</ele>
        <time>2021-02-18T14:02:48Z</time>
      </trkpt>
      <trkpt lat="45.05592" lon="5.5192">
        <ele>1138.14689916</ele>
        <time>2021-02-18T14:02:54Z</time>
      </trkpt>
      <trkpt lat="45.05597" lon="5.51928">
        <ele>1138.14675412</ele>
        <time>2021-02-18T14:02:59Z</time>
      </trkpt>
      <trkpt lat="45.05593" lon="5.5194">
        <ele>1136.14612552</ele>
        <time>2021-02-18T14:03:03Z</time>
      </trkpt>
      <trkpt lat="45.05592" lon="5.5195">
        <ele>1139.14567688</ele>
        <time>2021-02-18T14:03:07Z</time>
      </trkpt>
      <trkpt lat="45.05592" lon="5.51961">
        <ele>1140.14525716</ele>
        <time>2021-02-18T14:03:11Z</time>
      </trkpt>
      <trkpt lat="45.05592" lon="5.51972">
        <ele>1140.1448096</ele>
        <time>2021-02-18T14:03:15Z</time>
      </trkpt>
      <trkpt lat="45.05592" lon="5.51982">
        <ele>1142.14436636</ele>
        <time>2021-02-18T14:03:19Z</time>
      </trkpt>
      <trkpt lat="45.05594" lon="5.51992">
        <ele>1142.14407604</ele>
        <time>2021-02-18T14:03:23Z</time>
      </trkpt>
      <trkpt lat="45.05597" lon="5.52004">
        <ele>1144.14375152</ele>
        <time>2021-02-18T14:03:29Z</time>
      </trkpt>
      <trkpt lat="45.05602" lon="5.52014">
        <ele>1141.14348708</ele>
        <time>2021-02-18T14:03:35Z</time>
      </trkpt>
      <trkpt lat="45.05605" lon="5.52026">
        <ele>1140.14315088</ele>
        <time>2021-02-18T14:03:41Z</time>
      </trkpt>
      <trkpt lat="45.05611" lon="5.52034">
        <ele>1139.14309036</ele>
        <time>2021-02-18T14:03:46Z</time>
      </trkpt>
      <trkpt lat="45.05617" lon="5.52036">
        <ele>1139.14323456</ele>
        <time>2021-02-18T14:03:52Z</time>
      </trkpt>
      <trkpt lat="45.05624" lon="5.52042">
        <ele>1139.14330076</ele>
        <time>2021-02-18T14:04:34Z</time>
      </trkpt>
      <trkpt lat="45.05633" lon="5.52046">
        <ele>1137.14346636</ele>
        <time>2021-02-18T14:04:41Z</time>
      </trkpt>
      <trkpt lat="45.0564" lon="5.52049">
        <ele>1134.14364228</ele>
        <time>2021-02-18T14:04:47Z</time>
      </trkpt>
      <trkpt lat="45.05648" lon="5.52055">
        <ele>1133.14372464</ele>
        <time>2021-02-18T14:04:53Z</time>
      </trkpt>
      <trkpt lat="45.05654" lon="5.52061">
        <ele>1133.1437354</ele>
        <time>2021-02-18T14:04:58Z</time>
      </trkpt>
      <trkpt lat="45.05666" lon="5.52072">
        <ele>1131.1437472</ele>
        <time>2021-02-18T14:05:03Z</time>
      </trkpt>
      <trkpt lat="45.05676" lon="5.52081">
        <ele>1130.14378544</ele>
        <time>2021-02-18T14:05:07Z</time>
      </trkpt>
      <trkpt lat="45.05683" lon="5.52087">
        <ele>1129.143854</ele>
        <time>2021-02-18T14:05:12Z</time>
      </trkpt>
      <trkpt lat="45.05689" lon="5.52095">
        <ele>1130.14376604</ele>
        <time>2021-02-18T14:05:17Z</time>
      </trkpt>
      <trkpt lat="45.05696" lon="5.52102">
        <ele>1129.14375916</ele>
        <time>2021-02-18T14:05:23Z</time>
      </trkpt>
      <trkpt lat="45.05702" lon="5.5211">
        <ele>1129.14369096</ele>
        <time>2021-02-18T14:05:28Z</time>
      </trkpt>
      <trkpt lat="45.05708" lon="5.52116">
        <ele>1130.14369724</ele>
        <time>2021-02-18T14:05:34Z</time>
      </trkpt>
      <trkpt lat="45.05715" lon="5.52122">
        <ele>1131.14372064</ele>
        <time>2021-02-18T14:05:40Z</time>
      </trkpt>
      <trkpt lat="45.0572" lon="5.52131">
        <ele>1131.14356568</ele>
        <time>2021-02-18T14:05:46Z</time>
      </trkpt>
      <trkpt lat="45.05725" lon="5.5214">
        <ele>1130.14341724</ele>
        <time>2021-02-18T14:05:51Z</time>
      </trkpt>
      <trkpt lat="45.05732" lon="5.52147">
        <ele>1131.14337432</ele>
        <time>2021-02-18T14:05:56Z</time>
      </trkpt>
      <trkpt lat="45.05739" lon="5.52152">
        <ele>1130.1434516</ele>
        <time>2021-02-18T14:06:01Z</time>
      </trkpt>
      <trkpt lat="45.05747" lon="5.5216">
        <ele>1130.14347132</ele>
        <time>2021-02-18T14:06:06Z</time>
      </trkpt>
      <trkpt lat="45.05754" lon="5.52167">
        <ele>1130.14350524</ele>
        <time>2021-02-18T14:06:10Z</time>
      </trkpt>
      <trkpt lat="45.05761" lon="5.52169">
        <ele>1131.14366952</ele>
        <time>2021-02-18T14:06:15Z</time>
      </trkpt>
      <trkpt lat="45.05768" lon="5.52175">
        <ele>1130.14369764</ele>
        <time>2021-02-18T14:06:19Z</time>
      </trkpt>
      <trkpt lat="45.05777" lon="5.52181">
        <ele>1129.14382904</ele>
        <time>2021-02-18T14:06:24Z</time>
      </trkpt>
      <trkpt lat="45.05783" lon="5.52185">
        <ele>1128.14392104</ele>
        <time>2021-02-18T14:06:28Z</time>
      </trkpt>
      <trkpt lat="45.0579" lon="5.52191">
        <ele>1128.14395584</ele>
        <time>2021-02-18T14:06:32Z</time>
      </trkpt>
      <trkpt lat="45.05798" lon="5.52193">
        <ele>1130.14421276</ele>
        <time>2021-02-18T14:06:38Z</time>
      </trkpt>
      <trkpt lat="45.05806" lon="5.52196">
        <ele>1130.14442096</ele>
        <time>2021-02-18T14:06:44Z</time>
      </trkpt>
      <trkpt lat="45.05814" lon="5.522">
        <ele>1130.14456112</ele>
        <time>2021-02-18T14:06:50Z</time>
      </trkpt>
      <trkpt lat="45.0582" lon="5.52206">
        <ele>1130.14453472</ele>
        <time>2021-02-18T14:06:55Z</time>
      </trkpt>
      <trkpt lat="45.05827" lon="5.52211">
        <ele>1131.14464504</ele>
        <time>2021-02-18T14:07:00Z</time>
      </trkpt>
      <trkpt lat="45.05835" lon="5.52207">
        <ele>1129.14511376</ele>
        <time>2021-02-18T14:07:09Z</time>
      </trkpt>
      <trkpt lat="45.05842" lon="5.52211">
        <ele>1128.14524044</ele>
        <time>2021-02-18T14:07:15Z</time>
      </trkpt>
      <trkpt lat="45.0585" lon="5.52216">
        <ele>1130.14536548</ele>
        <time>2021-02-18T14:07:21Z</time>
      </trkpt>
      <trkpt lat="45.05858" lon="5.52225">
        <ele>1131.1453316</ele>
        <time>2021-02-18T14:07:26Z</time>
      </trkpt>
      <trkpt lat="45.05865" lon="5.52231">
        <ele>1132.14536628</ele>
        <time>2021-02-18T14:07:31Z</time>
      </trkpt>
      <trkpt lat="45.05873" lon="5.52231">
        <ele>1131.1456654</ele>
        <time>2021-02-18T14:07:38Z</time>
      </trkpt>
      <trkpt lat="45.0588" lon="5.52237">
        <ele>1129.1457182</ele>
        <time>2021-02-18T14:07:43Z</time>
      </trkpt>
      <trkpt lat="45.05887" lon="5.52241">
        <ele>1131.14584948</ele>
        <time>2021-02-18T14:07:49Z</time>
      </trkpt>
      <trkpt lat="45.05895" lon="5.52245">
        <ele>1132.1459852</ele>
        <time>2021-02-18T14:07:55Z</time>
      </trkpt>
      <trkpt lat="45.05901" lon="5.52252">
        <ele>1132.14596976</ele>
        <time>2021-02-18T14:08:01Z</time>
      </trkpt>
      <trkpt lat="45.05909" lon="5.52255">
        <ele>1131.14617432</ele>
        <time>2021-02-18T14:08:09Z</time>
      </trkpt>
      <trkpt lat="45.05917" lon="5.52259">
        <ele>1131.14630124</ele>
        <time>2021-02-18T14:08:16Z</time>
      </trkpt>
      <trkpt lat="45.05925" lon="5.52259">
        <ele>1129.14664232</ele>
        <time>2021-02-18T14:08:24Z</time>
      </trkpt>
      <trkpt lat="45.05933" lon="5.5226">
        <ele>1127.14695628</ele>
        <time>2021-02-18T14:10:31Z</time>
      </trkpt>
      <trkpt lat="45.05934" lon="5.52257">
        <ele>1129.14708012</ele>
        <time>2021-02-18T14:11:34Z</time>
      </trkpt>
      <trkpt lat="45.05934" lon="5.52257">
        <ele>1129.14708012</ele>
        <time>2021-02-18T14:11:34Z</time>
      </trkpt>
    </trkseg>
  </trk>
</gpx>